GFSMA_sfc_dewp_000.txt.gz
Dewpoint
60 59 57 55 55 54 53 53 52 52 52 49 46 44 45 46 46 46 50 54 53 51 51 53 55 56 57 59 59 60 61 62 63 64 64 64 64 65 65 64 63 63 64
58 57 56 55 54 53 53 52 51 53 52 50 46 45 44 45 44 46 46 49 53 53 53 53 54 55 56 57 58 59 59 60 62 63 64 64 64 64 64 64 64 64 64
56 57 56 56 55 55 54 54 54 53 53 51 48 47 46 47 46 45 47 47 47 54 56 56 55 56 56 55 55 55 55 57 59 60 63 64 64 64 64 64 64 64 64
55 56 56 56 56 57 55 54 53 52 51 51 50 49 45 45 45 45 45 45 44 42 53 57 57 56 54 53 52 51 52 54 55 57 60 63 63 64 64 64 63 63 64
55 55 54 56 57 55 54 54 52 52 51 51 49 48 48 46 44 42 43 44 45 44 44 53 56 55 55 54 51 50 50 51 52 54 57 60 63 63 63 63 63 63 63
52 53 52 54 56 53 52 53 54 52 51 50 48 47 49 48 47 46 44 44 43 43 43 43 51 52 54 54 51 49 48 49 50 50 53 56 59 61 62 62 63 63 63
50 51 50 50 50 49 50 50 49 48 48 50 49 48 47 48 51 49 46 43 43 42 41 43 47 45 47 54 52 48 46 47 48 49 51 52 55 58 59 60 62 62 63
48 44 48 47 48 47 48 49 50 47 45 46 45 44 41 41 45 46 46 47 45 43 41 41 43 42 43 46 47 50 46 47 47 48 48 51 54 57 55 56 57 59 62
45 46 46 47 48 46 45 46 46 45 44 43 44 43 39 38 40 42 43 44 48 50 52 50 43 42 44 41 45 47 50 49 47 46 46 49 52 53 54 54 53 54 58
46 43 44 46 46 46 45 46 42 46 44 42 43 43 42 41 41 40 42 43 44 47 49 50 49 45 42 42 45 46 48 47 48 46 46 47 50 51 54 52 52 53 56
44 43 42 43 45 44 44 45 44 44 45 43 42 40 39 38 39 38 36 37 39 42 46 50 49 49 46 38 41 44 45 46 47 49 49 47 48 49 50 52 52 52 54
41 42 42 43 44 44 43 43 45 43 42 42 41 40 39 38 36 35 34 35 36 38 41 44 48 48 48 45 42 46 46 46 45 46 47 49 48 48 48 49 50 51 53
40 39 42 42 42 42 42 42 43 43 41 40 39 39 39 38 37 36 35 34 34 35 38 41 46 46 46 47 46 45 45 43 42 45 45 46 48 50 51 53 52 52 51
40 40 41 41 41 40 40 40 40 41 40 41 39 39 38 38 38 38 37 36 33 34 36 37 41 44 46 46 45 44 41 41 42 45 44 44 46 41 44 47 49 49 49
37 40 41 39 39 40 40 39 39 38 38 39 39 39 37 37 38 38 37 37 35 32 30 30 38 41 44 45 45 42 39 41 41 43 42 40 43 41 41 40 41 43 44
38 38 39 39 39 39 38 37 37 38 37 38 38 37 37 36 35 36 36 36 36 34 31 32 29 30 30 30 39 41 38 43 41 41 40 37 38 39 40 40 41 42 42
37 36 37 36 36 36 38 39 37 36 34 33 35 35 34 34 34 33 32 29 28 29 27 26 28 28 30 33 30 30 35 38 38 40 38 38 39 39 39 38 38 37 39
37 35 35 34 35 35 37 37 36 36 34 33 32 32 31 29 29 29 28 27 27 27 26 23 25 26 25 27 29 32 30 26 32 38 39 39 38 38 38 38 37 37 38
34 32 29 28 26 27 26 27 27 28 27 25 25 25 26 27 26 26 27 26 26 23 25 24 23 25 25 26 26 28 28 31 30 35 39 38 39 39 39 38 37 37 37
29 27 27 27 28 25 23 26 25 26 25 23 25 23 23 24 26 27 26 26 24 23 22 22 22 22 23 24 26 23 25 27 28 24 29 32 37 38 39 37 37 38 38
26 26 25 26 27 24 23 26 24 23 23 22 22 21 22 26 30 28 22 23 23 22 22 21 21 21 22 23 24 27 27 28 29 31 30 30 30 34 35 38 36 38 38
25 25 26 26 26 20 26 25 25 22 21 21 20 20 21 25 25 29 30 29 27 22 20 19 19 19 20 21 24 25 26 25 24 28 28 27 30 30 32 34 35 36 36
26 27 27 26 26 26 25 25 24 21 20 19 19 20 20 19 25 23 27 27 27 29 29 24 21 21 21 21 22 22 23 24 24 27 26 25 26 27 29 27 36 34 34
26 26 27 26 25 23 29 27 24 22 20 20 20 20 20 21 24 24 23 23 23 23 24 24 25 25 25 24 25 26 27 27 27 27 27 25 26 26 28 29 33 35 34
25 26 26 27 26 25 28 29 27 23 23 21 21 22 23 22 24 25 24 24 24 23 25 27 28 29 29 29 29 27 25 25 24 26 26 24 23 25 25 26 29 34 34
24 27 27 27 28 26 29 27 26 24 21 21 23 23 23 24 27 27 27 27 25 25 24 25 24 24 24 28 32 31 28 23 22 21 23 23 24 25 25 26 28 30 27

GFSMA_sfc_dewp_003.txt.gz
Dewpoint
55 55 54 53 52 51 51 52 52 51 52 50 47 43 40 41 43 44 48 58 57 57 54 54 56 57 59 61 63 63 63 63 64 66 64 65 65 65 65 65 64 64 63
55 55 53 54 52 52 52 50 49 50 51 51 48 45 41 40 41 43 46 51 56 56 55 53 54 55 57 58 61 61 61 62 63 65 65 65 64 64 64 64 64 64 63
52 53 53 54 54 54 54 52 52 52 52 52 50 47 45 43 43 43 44 48 50 55 55 57 57 56 56 57 59 60 60 61 61 62 64 64 64 64 64 64 64 64 64
53 52 51 51 54 55 53 52 52 51 51 51 50 50 47 44 43 44 43 45 46 45 52 56 58 58 59 57 57 57 57 58 58 59 61 63 64 64 64 64 64 64 64
51 51 51 52 53 53 52 52 52 52 51 50 48 47 47 47 45 42 43 43 45 44 44 52 55 57 59 58 54 54 54 55 56 57 59 61 62 63 64 63 64 64 63
48 48 47 48 48 48 48 48 48 48 48 47 46 47 50 51 50 48 46 45 45 45 42 43 50 52 56 57 56 53 52 52 53 55 57 57 60 62 63 63 63 63 63
44 44 45 47 46 46 45 45 47 46 45 47 45 43 45 47 46 47 50 49 46 46 45 43 44 48 51 55 56 52 52 51 51 52 53 55 57 59 60 62 62 62 63
44 43 45 46 45 44 43 43 43 44 43 45 43 42 40 41 43 44 45 48 48 50 50 47 44 46 45 49 51 54 51 50 50 50 52 54 56 57 57 57 59 60 62
44 43 43 44 43 44 43 42 44 41 42 43 43 43 41 39 40 43 42 40 42 45 47 49 49 47 44 42 48 51 52 51 52 49 49 49 52 54 56 55 55 55 57
42 42 41 41 43 43 42 43 43 43 43 42 43 42 42 40 37 36 38 38 37 39 45 46 48 49 49 46 46 48 49 48 50 49 46 46 48 52 54 54 54 54 54
40 40 41 40 42 43 41 42 43 42 42 42 41 41 39 38 39 37 32 35 36 37 41 43 44 49 49 48 48 46 48 46 47 47 46 47 48 48 50 55 54 53 53
39 38 39 40 41 40 40 41 42 41 40 41 41 41 40 38 36 35 33 33 34 35 37 39 42 46 49 48 48 48 47 46 46 48 48 47 48 49 49 49 53 52 52
37 37 39 39 39 39 39 39 39 39 39 38 38 37 38 37 37 37 36 32 33 34 36 38 40 41 45 47 48 48 48 45 44 45 46 43 45 47 49 52 52 53 53
37 39 38 38 38 38 38 38 38 38 39 38 38 38 38 38 37 37 36 34 33 34 33 32 36 40 41 45 46 47 47 45 43 44 44 42 46 41 43 44 47 51 52
37 39 39 38 38 38 38 37 36 37 37 37 37 37 38 37 36 36 37 38 36 31 29 31 32 34 38 41 43 45 47 46 43 42 43 39 43 41 40 40 41 43 45
37 37 36 36 35 35 36 37 37 36 36 35 35 36 36 37 39 39 38 37 35 33 30 30 30 31 31 29 38 40 40 45 43 41 41 38 38 39 39 39 40 40 41
35 35 34 34 34 34 35 36 36 36 35 34 35 35 34 34 34 37 37 35 34 33 29 26 28 28 27 27 28 32 38 37 42 42 40 37 37 38 39 38 37 36 38
33 33 32 29 29 28 29 32 34 35 33 30 28 27 27 24 26 28 30 30 28 28 28 24 25 25 25 26 28 29 30 26 37 40 39 38 39 39 38 38 37 37 37
30 28 27 27 26 27 26 26 27 27 26 25 25 24 23 23 22 24 26 27 27 24 24 23 23 24 23 24 23 25 26 29 28 37 39 39 38 39 39 38 38 37 37
26 24 23 25 27 26 26 25 24 24 23 23 24 23 22 22 22 25 25 26 25 22 21 21 22 22 23 23 25 26 27 28 28 27 31 36 38 39 39 38 38 38 37
25 22 22 24 25 24 23 24 22 22 21 21 22 21 21 23 26 28 25 25 23 21 21 20 20 20 20 22 22 26 24 26 26 30 28 29 30 32 34 36 38 39 39
21 21 23 25 24 22 26 25 23 20 20 20 19 19 21 23 25 27 30 29 28 23 20 19 18 18 18 20 22 22 23 23 22 28 27 25 27 27 30 32 36 36 35
21 22 24 25 24 23 25 24 24 21 20 19 19 20 19 18 23 24 25 26 25 26 27 25 22 22 21 22 21 20 21 21 22 25 26 25 26 25 27 27 34 32 32
20 22 24 25 25 24 28 27 24 22 22 22 22 21 21 23 26 23 22 22 23 24 24 23 24 25 25 25 24 23 27 27 25 26 27 23 24 23 26 27 32 35 34
21 23 26 25 25 25 29 28 28 24 24 23 23 22 21 20 23 26 25 25 25 24 25 25 26 29 30 31 30 29 26 24 21 22 25 25 23 21 22 24 27 33 34
22 26 26 26 28 26 29 27 28 23 21 22 22 21 22 23 29 28 25 23 21 20 22 23 23 23 23 24 24 28 27 26 24 18 21 21 21 23 21 23 24 26 26

GFSMA_sfc_dewp_006.txt.gz
Dewpoint
54 54 54 52 52 51 52 52 54 52 50 51 50 48 45 41 41 43 45 54 59 60 58 56 55 55 57 61 62 63 63 63 63 65 65 65 64 65 64 64 65 65 64
55 54 52 52 52 53 53 51 50 50 51 51 51 50 47 42 39 41 43 46 58 59 59 57 55 55 55 57 60 62 62 63 63 64 65 64 64 64 64 64 64 64 64
52 53 51 50 52 53 52 52 51 51 51 50 50 51 50 47 44 41 42 44 48 57 57 58 58 58 56 55 59 60 62 62 62 62 64 64 63 64 64 64 64 64 64
51 50 48 48 50 50 50 49 50 49 49 49 49 49 49 49 47 45 44 43 45 46 53 56 57 57 58 56 55 56 58 60 60 60 62 63 63 63 64 64 64 63 63
49 46 46 46 48 47 47 47 46 48 47 45 43 42 45 47 48 48 45 44 44 46 45 50 55 55 57 58 55 55 56 56 56 57 59 62 62 63 63 63 64 63 63
45 44 45 46 46 45 44 44 43 43 44 45 40 41 43 45 45 47 48 48 48 48 47 45 45 51 55 57 58 55 54 54 54 55 56 58 60 61 62 63 63 63 62
46 45 45 46 45 44 43 42 43 43 42 43 41 39 41 41 43 44 46 45 46 44 43 43 46 46 50 56 57 55 53 53 53 53 54 57 58 60 61 62 62 62 63
44 42 43 42 44 43 42 42 43 42 42 42 41 41 34 36 38 41 43 42 43 44 43 43 45 47 47 48 53 56 54 53 52 53 55 56 57 58 58 59 60 61 61
42 41 41 41 42 42 41 41 42 42 41 42 43 41 38 36 39 40 39 36 38 40 42 45 43 41 47 46 46 49 54 54 55 55 54 54 53 52 55 56 56 57 58
40 39 40 41 42 42 40 41 43 42 41 40 41 41 40 39 36 35 36 35 36 36 39 42 40 42 48 48 48 48 48 49 52 53 53 50 49 49 51 54 55 55 55
39 38 40 41 40 41 40 40 41 40 41 40 40 40 39 38 39 35 31 32 34 36 38 39 39 43 43 49 48 48 47 47 47 47 47 46 47 48 49 50 53 54 54
37 39 39 38 38 39 39 39 38 39 38 38 38 38 38 36 35 35 33 34 32 33 35 37 38 40 41 44 48 47 47 47 47 47 47 48 49 50 49 50 50 52 53
37 38 38 38 38 38 38 37 37 37 38 37 37 37 38 37 37 36 35 35 33 33 34 36 37 37 39 41 44 47 47 46 46 46 47 46 45 46 46 48 51 53 52
38 39 38 37 37 37 37 36 36 36 36 36 35 35 36 36 36 36 36 35 32 32 33 32 34 35 37 39 41 45 46 45 45 46 46 46 45 43 41 42 43 47 50
38 37 37 35 35 35 35 36 35 34 34 34 34 34 35 36 36 37 38 36 33 28 30 30 31 34 35 37 38 39 42 45 45 44 44 45 45 45 41 39 40 42 44
36 35 33 33 33 34 34 35 34 34 34 34 34 34 34 35 35 35 36 36 35 33 29 31 30 29 31 28 32 35 39 41 44 44 43 43 42 43 40 38 39 39 40
36 34 32 31 29 29 30 31 32 33 34 32 30 28 27 27 27 28 29 30 33 34 32 29 29 27 25 25 25 27 34 37 41 41 41 42 41 40 40 38 37 36 36
34 32 32 28 27 26 26 27 29 28 26 25 25 25 24 21 22 23 24 24 26 26 28 28 25 24 23 25 25 26 27 27 39 37 41 41 41 39 39 38 38 37 36
30 29 27 25 25 26 25 26 26 25 23 23 23 23 23 22 20 21 22 24 25 24 25 23 22 24 23 24 23 27 26 27 26 35 34 40 40 39 39 38 38 38 37
37 30 24 25 27 25 26 24 23 22 22 21 23 23 22 21 20 22 23 24 24 24 23 22 22 21 22 22 25 25 24 25 25 27 31 32 34 37 39 39 39 39 38
36 27 24 24 25 25 23 23 22 21 21 21 22 21 20 21 22 23 25 30 27 25 22 20 20 20 19 19 19 23 22 23 23 28 28 28 28 28 32 34 36 39 38
26 23 23 25 25 22 27 26 23 21 20 19 19 20 20 21 22 24 25 26 25 25 25 25 20 18 18 19 21 21 20 20 19 26 26 25 27 26 28 31 36 36 35
27 23 23 24 24 24 28 27 26 22 21 20 21 21 20 18 23 24 25 25 24 25 25 25 23 22 21 21 21 21 20 20 21 24 26 24 26 24 26 26 33 33 32
25 22 24 25 24 24 28 29 27 25 23 23 23 22 21 21 21 21 21 25 25 25 24 23 23 23 24 24 24 23 23 24 26 27 26 21 24 22 25 26 30 34 34
21 25 25 25 25 27 29 28 27 24 23 22 22 21 21 21 24 26 26 23 22 21 22 24 26 27 28 29 29 27 26 25 22 22 24 23 22 19 20 21 25 30 33
25 25 25 25 26 24 26 23 23 21 17 20 21 20 21 21 23 26 26 24 21 20 21 21 22 23 22 23 23 24 25 24 24 20 22 21 20 21 18 20 22 23 23

GFSMA_sfc_dewp_012.txt.gz
Dewpoint
53 53 52 52 52 52 52 50 50 50 50 50 49 50 50 49 48 47 46 50 52 53 55 56 56 56 58 61 62 62 62 61 61 62 64 64 64 63 63 63 63 64 63
53 53 51 50 49 51 49 49 49 49 48 47 45 47 47 47 47 47 46 46 50 52 53 54 56 57 57 57 59 61 62 62 62 61 62 63 64 64 63 63 63 63 63
53 49 47 46 47 48 47 46 46 44 43 43 43 43 43 45 45 48 47 46 46 48 48 49 51 54 55 55 56 57 60 61 62 61 62 62 63 63 63 63 63 63 63
47 46 45 47 48 46 45 44 45 42 42 43 41 41 41 42 43 48 47 46 45 42 43 46 47 48 49 52 55 56 56 58 60 61 61 62 62 62 63 63 62 62 63
46 45 46 47 45 43 43 42 42 42 42 42 40 40 39 40 42 46 45 44 43 42 40 41 44 44 45 46 48 51 55 56 57 59 60 60 61 61 62 62 62 61 62
45 45 43 43 42 41 41 41 40 41 41 42 40 38 39 40 43 45 43 41 41 41 40 39 39 38 40 41 46 49 51 54 56 57 58 58 59 60 61 61 61 62 61
41 40 41 41 41 40 40 41 41 40 40 42 40 37 40 37 41 43 42 40 40 41 41 39 39 37 34 40 46 49 50 50 53 56 57 57 58 59 60 59 58 59 61
39 39 41 41 40 40 40 41 40 40 40 42 40 39 35 36 39 38 40 39 38 40 37 36 38 39 37 38 44 45 50 51 51 51 52 56 57 57 58 57 56 57 58
39 40 41 41 40 39 40 40 40 39 38 39 40 39 35 32 36 37 36 37 36 36 37 38 38 38 37 39 40 45 46 49 49 50 50 51 54 56 57 55 54 54 56
39 39 39 40 39 40 41 40 39 38 39 36 38 38 37 37 34 31 34 34 35 35 36 38 38 38 38 39 39 41 43 48 47 48 50 50 52 53 54 52 50 52 54
38 38 38 38 39 39 37 37 36 35 36 35 35 35 35 36 36 35 30 30 33 34 36 37 37 38 38 39 39 40 41 43 47 47 49 48 50 48 47 49 49 50 52
38 38 39 38 38 37 37 36 35 34 34 34 35 34 35 33 32 32 31 30 30 31 32 36 37 37 38 38 37 38 40 43 47 47 47 48 46 46 48 49 50 51 51
39 39 37 37 37 36 37 36 33 33 32 31 31 32 34 33 34 34 32 28 29 27 33 34 36 36 35 37 37 39 39 42 45 46 46 46 46 45 43 43 45 47 50
39 37 37 35 35 36 37 37 35 33 33 31 30 30 31 32 33 33 32 30 25 26 27 28 32 33 34 35 35 34 34 40 43 45 46 46 46 46 44 42 41 41 46
38 37 36 37 37 38 36 35 33 31 32 32 32 32 32 32 31 29 31 29 28 22 18 23 28 32 33 35 33 33 34 38 43 43 42 42 42 43 46 45 44 41 41
36 37 37 37 37 36 34 34 33 31 31 31 32 31 27 28 27 28 26 27 27 24 20 24 23 29 31 30 29 33 32 33 40 40 39 40 40 40 42 46 46 43 40
35 36 36 34 31 32 31 29 28 28 28 30 27 25 24 24 24 25 24 23 22 23 20 19 23 25 27 30 27 30 30 30 33 38 39 39 39 39 39 42 44 44 41
34 33 34 35 35 32 28 26 26 26 28 25 24 23 23 20 21 21 21 19 20 21 21 21 23 24 26 27 25 27 26 25 26 35 36 37 38 38 38 41 42 42 41
32 35 36 36 33 29 25 26 25 26 23 22 23 23 22 22 20 20 19 20 21 22 26 26 25 25 24 26 24 25 27 26 21 24 34 34 35 37 37 39 41 40 40
35 37 36 35 29 25 25 25 24 22 22 23 24 23 23 22 21 20 21 20 21 22 22 23 24 24 24 24 23 23 22 24 21 18 26 32 32 32 35 37 39 40 39
36 37 33 26 25 25 24 23 22 22 22 22 23 23 22 24 26 23 19 20 21 22 22 23 22 21 24 23 19 21 20 20 21 23 26 26 27 30 31 33 36 39 39
34 34 28 27 25 23 28 28 27 26 24 24 24 23 23 22 22 22 22 23 22 21 22 23 21 21 21 24 26 24 20 19 16 23 25 24 26 25 28 30 33 36 38
32 31 27 23 23 24 29 29 30 26 24 23 22 19 18 17 21 21 23 23 24 26 28 27 23 22 23 24 21 21 21 20 19 21 24 23 25 24 25 25 29 32 34
31 29 24 24 25 28 28 28 27 22 21 21 20 19 19 19 21 20 23 25 22 23 23 22 22 24 25 26 23 22 22 21 22 23 26 23 24 24 24 26 28 31 33
27 25 25 25 26 23 25 23 22 22 21 20 19 19 19 20 22 25 23 23 21 20 21 23 23 23 23 24 27 27 24 23 20 18 25 24 23 24 23 25 27 28 32
23 25 25 24 22 22 22 20 21 20 16 19 21 20 21 20 22 23 25 22 21 20 21 23 23 23 23 23 23 22 23 23 24 21 22 23 21 21 21 23 25 25 27

GFSMA_sfc_dewp_015.txt.gz
Dewpoint
59 57 56 54 53 52 51 51 51 51 50 48 48 47 45 45 44 42 45 52 54 55 55 56 57 58 58 58 58 59 60 62 61 61 62 63 64 64 63 63 63 63 62
59 56 52 50 49 50 50 49 50 47 45 44 44 45 43 43 45 45 43 47 48 48 50 51 52 52 53 55 56 56 57 58 62 61 61 62 63 64 64 63 63 63 63
53 51 50 50 50 49 49 48 47 45 44 41 41 40 41 41 42 47 45 44 43 45 46 47 48 48 48 49 50 52 55 57 58 61 61 62 62 63 63 63 63 63 63
51 52 49 49 48 47 46 45 43 41 42 41 39 38 39 37 41 48 44 42 41 39 42 44 44 44 44 46 47 49 51 53 55 57 60 61 62 62 62 63 62 62 62
50 49 47 47 46 44 44 42 41 42 40 37 32 35 34 32 41 43 44 42 42 41 39 40 41 40 42 43 44 47 49 50 52 55 58 60 61 61 62 62 62 62 61
46 44 44 45 43 42 42 41 41 39 40 39 29 32 33 36 44 44 40 39 40 40 39 38 37 35 39 41 43 44 48 49 50 50 53 58 59 60 61 61 61 60 61
43 44 43 43 43 42 43 42 40 38 35 40 34 30 31 40 42 39 39 38 38 36 38 37 35 33 32 38 40 44 46 48 50 50 50 52 55 59 60 60 59 58 59
42 41 44 42 43 41 43 43 40 36 37 41 33 30 25 26 33 37 35 36 37 37 36 36 37 36 35 34 37 41 44 44 46 49 50 50 51 54 57 59 59 57 57
41 42 43 44 43 42 41 42 41 40 35 37 42 33 27 24 31 31 33 33 37 35 35 34 35 35 36 37 37 37 39 41 43 46 49 50 50 51 55 57 59 56 55
41 40 41 43 43 42 42 41 39 38 35 30 30 35 34 33 26 24 27 30 32 30 33 33 33 35 36 37 39 40 40 40 41 43 48 49 50 49 53 56 57 54 53
41 40 41 42 42 41 41 40 37 34 32 28 28 28 28 27 28 29 21 22 25 26 29 28 32 32 32 37 35 36 38 41 42 43 47 48 50 50 51 54 55 52 53
42 42 41 42 41 40 38 37 37 33 33 31 29 28 24 23 22 25 25 22 21 21 22 25 28 27 26 33 33 35 36 38 37 42 46 47 48 48 49 50 51 51 52
41 42 42 41 38 37 37 36 33 32 32 29 28 25 28 27 28 27 25 21 23 21 22 24 24 24 22 26 32 35 35 36 38 43 46 46 47 46 46 45 47 49 51
39 42 41 39 38 37 35 35 34 34 34 33 32 32 30 30 33 33 30 28 25 21 19 22 22 24 25 24 28 35 34 35 40 43 45 44 44 45 46 45 42 42 46
39 41 40 38 40 38 36 36 35 35 34 33 34 34 32 31 33 31 29 28 26 23 19 19 19 22 22 23 26 29 33 34 34 42 41 42 42 42 44 46 46 44 41
39 40 39 39 38 37 35 35 33 33 33 32 30 32 32 29 28 29 27 27 26 24 21 17 16 18 19 17 24 26 29 33 33 37 39 39 39 40 41 43 45 46 43
38 38 38 38 36 34 35 35 33 31 30 29 31 30 28 27 24 24 24 21 19 18 18 17 16 18 22 24 23 24 29 31 32 36 37 38 39 39 39 41 43 44 45
36 36 36 35 35 37 36 33 29 27 28 28 27 26 25 22 24 23 22 21 19 19 17 15 17 21 22 25 26 26 27 23 28 32 34 35 36 37 38 39 41 43 43
35 35 34 36 36 36 33 28 27 27 27 26 25 25 25 24 23 23 21 20 20 18 19 20 18 18 20 23 25 27 31 29 24 25 30 33 33 34 36 37 39 41 41
37 37 37 37 35 29 26 26 26 25 24 24 26 25 25 24 23 21 21 23 20 21 19 18 18 17 18 19 24 23 25 25 23 18 22 29 30 32 31 36 37 40 41
36 38 37 32 31 27 23 26 24 24 25 25 25 22 22 23 24 22 19 20 20 19 20 19 17 17 18 17 21 26 24 23 22 23 21 22 24 27 32 34 37 38 40
34 35 32 32 30 23 30 30 29 26 25 21 18 18 17 18 18 21 21 22 22 21 22 20 23 17 15 17 18 25 25 24 20 23 22 19 23 22 26 29 31 37 39
33 34 34 28 26 28 30 29 28 21 19 18 17 15 14 14 19 17 19 21 24 25 25 25 23 18 17 17 19 20 21 21 20 21 21 17 20 21 22 20 28 34 37
33 34 30 26 27 25 27 25 23 21 18 17 16 16 16 17 17 19 23 21 18 17 18 20 23 23 20 20 20 22 22 20 20 20 22 21 19 25 22 24 28 30 34
28 26 26 26 25 23 24 21 21 21 20 18 17 17 18 17 20 24 21 20 16 15 20 21 23 25 26 25 23 23 25 24 22 16 17 19 19 24 26 27 28 26 31
24 25 26 25 21 23 21 20 20 23 23 20 19 17 19 20 21 20 20 20 18 18 17 18 18 19 21 21 23 23 20 22 24 21 17 19 18 20 22 28 30 30 29

GFSMA_sfc_dewp_018.txt.gz
Dewpoint
61 57 58 55 54 52 51 50 49 47 46 45 46 46 44 44 44 41 42 51 51 52 53 54 54 53 53 53 54 57 57 58 60 60 61 62 63 64 64 64 63 63 63
62 58 56 52 51 50 49 48 47 44 43 44 42 44 44 43 43 44 41 44 48 48 49 50 50 50 50 50 50 51 53 55 57 58 61 62 63 63 63 63 63 63 63
57 54 55 53 51 50 49 47 45 44 43 41 41 41 41 42 40 43 42 40 41 47 46 46 46 46 47 47 48 48 50 51 53 55 58 61 62 62 63 63 63 63 63
53 55 51 51 50 48 45 45 43 41 41 40 40 37 38 37 37 41 43 43 40 37 44 43 43 43 43 44 45 46 47 48 50 52 54 57 61 61 62 63 62 62 62
51 50 48 48 47 44 44 42 41 41 39 38 37 35 37 37 36 34 42 43 43 41 38 43 43 43 40 40 42 44 45 46 47 50 51 52 55 59 60 61 62 62 62
47 46 46 47 44 42 41 42 43 42 41 40 36 34 36 34 34 37 40 36 36 39 37 37 36 34 41 38 40 41 45 46 46 48 50 51 51 53 58 60 61 62 61
44 44 42 43 43 43 44 44 42 41 39 39 37 32 31 32 37 36 34 35 37 36 37 35 35 33 32 39 38 40 44 44 45 45 46 48 50 50 53 57 60 61 59
41 40 43 42 44 42 43 44 43 39 36 39 38 35 28 28 27 33 33 32 35 34 34 34 34 34 33 32 36 40 41 43 45 44 44 45 48 50 51 52 57 59 59
41 42 43 43 43 41 39 42 41 40 36 36 36 34 31 26 27 28 30 27 33 32 32 31 32 32 33 32 33 36 40 40 42 43 43 44 45 48 50 51 55 57 59
43 41 41 43 43 41 42 41 38 38 35 31 30 28 32 32 27 25 26 28 26 25 29 27 29 28 29 27 31 39 38 38 38 40 41 43 46 47 48 50 52 56 58
43 41 41 41 43 42 42 41 38 36 35 34 32 29 27 25 26 23 20 21 21 21 21 24 25 26 26 25 24 31 37 39 37 37 40 43 46 46 47 50 51 55 56
31 34 37 43 43 42 42 38 37 38 36 32 27 26 24 22 21 21 20 20 20 20 21 23 24 24 25 25 24 33 37 37 37 36 42 45 46 46 47 49 51 53 55
27 30 34 38 40 41 39 37 38 38 32 29 29 25 25 24 23 23 22 21 20 19 20 22 21 22 19 24 25 32 31 32 37 35 43 42 43 44 46 47 46 49 53
29 34 36 38 41 40 37 37 38 34 32 30 30 28 26 25 24 23 23 23 22 20 20 22 20 21 21 21 25 30 24 31 35 34 41 42 43 44 45 46 46 46 46
28 33 39 40 40 40 39 39 35 34 33 32 30 30 26 25 26 25 24 24 26 25 20 20 19 21 20 21 23 23 24 29 34 33 39 40 40 41 41 43 45 47 46
31 33 36 38 39 39 40 37 34 35 31 30 26 27 27 25 24 25 23 24 24 25 25 18 16 19 20 16 22 25 25 29 30 33 38 38 39 39 39 40 41 44 46
31 31 32 35 36 37 36 36 36 37 31 27 27 26 28 26 24 24 24 23 22 20 19 19 17 19 21 21 23 24 26 25 24 36 35 35 37 38 38 39 39 41 44
32 32 33 33 33 33 34 35 35 30 25 25 26 26 25 20 25 25 22 22 21 20 19 18 19 19 21 21 22 23 22 19 21 33 33 33 35 36 37 37 38 40 42
31 33 32 32 32 36 37 35 29 26 26 26 27 27 26 26 25 23 22 20 19 19 22 22 19 19 19 19 20 22 23 26 26 32 33 34 34 34 34 36 38 39 41
32 31 33 33 35 31 28 28 26 27 26 26 28 27 26 24 22 22 19 20 19 22 21 20 17 18 19 18 21 20 25 25 28 25 26 26 28 30 33 33 37 38 39
31 31 32 32 33 32 30 31 28 27 27 26 26 23 20 21 21 21 19 20 19 18 19 19 18 18 19 19 17 18 20 21 23 29 26 23 22 25 27 33 35 37 38
30 30 30 32 34 29 30 30 27 25 24 22 20 18 18 19 19 20 21 21 21 20 21 21 22 21 18 19 20 20 21 26 19 25 27 20 23 21 21 24 30 34 37
30 30 31 33 32 30 30 28 24 23 23 20 18 17 15 13 19 18 19 21 24 26 24 25 20 20 21 22 19 16 17 21 21 21 26 21 20 20 21 17 28 32 36
29 29 29 29 28 27 27 23 22 24 21 19 18 18 18 17 18 20 20 21 18 17 15 14 19 20 22 24 25 23 21 21 21 19 20 20 19 22 23 24 28 26 35
29 28 27 28 29 27 24 21 22 24 22 21 19 18 17 17 20 21 20 17 15 14 17 21 21 22 22 23 24 23 22 20 22 18 16 17 18 23 25 27 29 27 31
27 25 26 29 25 27 22 20 21 25 26 23 21 17 16 19 20 19 20 19 18 15 15 17 18 18 19 20 23 23 19 21 21 21 21 16 16 18 21 26 28 30 30

GFSMA_sfc_dewp_021.txt.gz
Dewpoint
62 62 61 57 54 52 52 51 50 48 49 46 46 45 45 44 44 41 43 53 53 51 51 51 51 51 51 51 51 52 53 55 56 58 59 62 62 63 63 63 63 63 63
61 58 59 57 54 53 52 49 49 46 45 45 44 43 43 42 43 44 41 45 53 51 49 48 49 49 49 49 49 49 50 51 52 54 56 58 60 62 62 63 63 63 63
61 60 58 55 52 51 51 48 47 45 42 40 42 40 40 40 40 40 39 42 45 51 48 46 45 45 45 45 46 47 48 48 49 51 53 54 55 58 61 62 62 63 63
56 56 54 52 52 50 46 46 44 42 42 41 41 39 38 37 38 39 37 40 42 40 45 44 42 40 41 41 42 44 45 46 47 48 49 51 53 54 56 60 62 62 62
52 51 49 49 49 45 45 44 44 44 43 42 39 37 39 36 37 31 35 38 44 41 39 44 46 45 38 40 41 43 43 45 46 47 48 49 50 51 52 54 58 61 62
48 48 47 49 47 44 45 46 47 45 43 40 33 35 39 33 33 33 36 37 37 37 38 38 36 36 44 39 39 40 43 45 45 46 46 46 47 48 50 52 53 57 61
45 46 44 45 46 45 46 46 44 44 37 37 35 35 35 38 38 33 32 34 36 33 36 34 35 33 33 41 38 40 42 43 45 45 45 44 44 45 46 49 51 53 58
44 43 46 45 45 43 43 42 42 40 37 37 35 34 30 28 30 31 31 31 37 31 31 33 33 33 33 31 35 37 39 42 43 42 43 43 43 44 45 47 49 51 54
44 44 44 44 43 41 37 40 40 40 35 35 36 32 28 26 28 29 30 29 36 30 31 29 29 28 30 29 30 31 38 39 39 40 41 41 42 42 44 46 47 49 52
44 42 41 42 42 40 40 39 35 39 37 33 34 31 34 33 27 24 23 24 26 24 31 26 25 25 26 26 32 35 36 37 36 37 40 41 42 42 43 45 46 47 49
34 32 33 36 41 40 40 41 40 39 36 36 33 33 30 27 27 22 19 19 20 21 22 23 24 24 24 24 26 30 37 39 33 33 34 39 41 43 43 44 45 47 49
28 30 29 34 36 39 40 39 40 39 39 37 32 30 27 23 21 22 20 22 22 21 21 22 28 25 26 26 26 35 36 36 33 31 32 38 40 43 43 44 46 48 49
27 30 33 35 35 36 38 38 39 39 40 34 32 29 27 26 26 24 22 22 21 22 23 24 25 24 21 28 26 33 30 32 33 33 35 36 38 42 44 45 46 48 48
28 31 32 35 37 37 37 41 38 41 39 36 33 31 30 28 27 26 24 25 24 22 22 24 25 26 25 24 28 33 24 31 31 33 35 35 37 40 41 41 43 45 47
26 30 33 33 35 36 38 41 41 40 36 35 37 34 31 29 29 28 26 24 26 27 22 22 23 24 23 24 27 27 27 30 33 33 33 35 38 40 40 40 40 41 43
30 31 31 31 32 34 40 39 37 36 36 37 36 31 29 29 30 27 24 25 24 27 24 21 21 22 23 18 24 27 26 31 31 33 33 34 37 36 38 39 40 40 41
30 29 30 31 31 31 31 33 34 36 35 35 34 29 30 29 28 26 27 24 23 23 22 22 20 22 23 24 22 25 25 27 26 31 33 34 35 36 37 37 38 39 40
30 29 29 30 29 29 31 33 34 35 34 30 28 29 28 24 27 26 23 22 22 22 20 19 20 22 22 22 23 23 21 18 23 25 35 35 34 35 36 36 36 38 39
29 29 29 30 29 32 34 31 28 28 28 29 29 27 27 27 26 22 22 21 20 16 21 23 22 22 22 21 21 22 20 24 19 29 36 37 36 35 35 36 35 37 39
30 29 30 29 30 29 29 30 29 29 29 28 30 29 27 24 21 22 19 19 18 20 20 20 19 17 19 20 23 23 22 24 22 20 29 37 34 34 35 35 35 37 37
29 28 29 29 29 32 30 31 30 30 28 28 27 24 22 21 19 20 18 19 19 18 18 17 18 20 20 21 23 22 22 21 22 26 29 34 35 29 27 32 32 35 36
28 29 28 28 30 31 31 29 26 25 25 25 23 21 20 23 22 22 22 22 22 19 21 23 21 16 15 19 22 25 25 21 16 25 29 28 31 29 25 23 29 33 36
30 29 28 29 30 31 31 27 24 23 24 24 21 19 17 14 21 20 22 23 23 25 26 24 22 20 21 22 21 23 23 24 21 21 24 26 27 24 24 20 30 30 34
29 29 28 28 29 28 29 24 23 24 25 23 22 21 20 19 20 21 19 18 17 15 15 12 16 18 19 18 17 17 19 19 21 20 22 20 21 22 25 25 28 26 32
29 28 27 27 27 29 27 24 22 25 25 23 22 21 19 17 21 21 19 18 15 15 17 21 19 21 23 24 23 24 22 20 23 18 21 25 22 24 28 28 31 30 30
27 26 25 26 27 30 26 23 22 26 26 24 22 21 20 18 19 19 20 19 18 15 13 14 17 19 21 21 25 23 21 22 21 21 23 27 22 18 21 26 29 33 33

GFSMA_sfc_dewp_024.txt.gz
Dewpoint
63 62 61 59 59 57 56 55 52 51 50 49 49 48 46 45 45 46 50 55 55 51 49 50 50 50 50 50 50 50 51 51 52 54 55 56 58 60 62 63 63 63 63
61 59 59 59 58 56 54 53 52 50 49 47 45 46 45 43 44 46 43 50 53 52 49 49 48 47 47 45 46 47 48 49 50 50 51 52 54 55 58 59 61 63 63
61 59 58 57 56 54 52 51 49 48 46 44 44 44 43 42 41 42 44 41 50 53 50 46 43 43 43 43 43 44 45 45 48 49 49 50 52 52 54 56 57 59 62
57 56 56 55 54 54 50 49 49 47 46 46 45 44 43 41 37 38 40 40 46 44 49 47 43 41 41 41 42 43 44 44 45 47 47 48 49 49 50 52 53 55 58
54 54 53 53 52 51 50 49 49 48 46 45 41 38 41 39 39 34 36 38 41 43 41 48 48 46 40 40 41 43 43 45 46 46 46 46 47 47 47 47 50 52 54
52 52 52 50 49 49 49 49 48 47 47 42 34 34 40 40 37 38 36 38 39 39 39 37 38 39 45 40 39 40 42 44 44 45 45 45 45 45 46 46 47 48 51
48 48 50 50 49 48 48 46 44 43 42 42 38 38 38 36 36 32 35 35 36 31 37 39 36 35 34 38 37 38 40 43 43 42 42 42 43 43 44 45 45 46 48
47 47 48 47 48 46 44 44 43 42 41 41 37 35 32 32 33 33 34 33 32 35 34 31 33 33 33 32 33 35 36 39 39 39 39 40 40 42 43 44 44 45 47
47 46 46 46 45 44 43 43 42 41 39 38 38 36 32 30 32 34 31 31 31 32 33 32 29 30 29 29 29 33 36 33 33 36 36 37 37 39 41 43 43 44 46
45 41 41 43 44 45 43 43 39 41 39 36 37 36 36 34 28 25 27 27 27 25 28 31 29 28 28 29 31 38 37 37 33 34 34 36 37 38 40 42 43 44 44
38 36 37 40 41 41 43 43 43 40 39 37 37 35 32 32 30 27 22 23 24 26 26 28 31 30 28 29 29 32 39 38 32 31 33 34 35 36 38 41 43 44 44
36 37 37 39 40 41 41 42 41 40 40 40 39 35 32 29 26 26 24 24 24 24 26 28 29 29 30 29 27 36 37 36 34 30 31 32 33 36 37 39 43 45 46
34 36 36 38 39 40 41 41 41 39 40 40 38 34 33 31 30 29 28 26 25 26 26 27 27 28 24 28 28 35 33 35 35 31 30 31 32 33 36 37 41 42 43
34 35 36 37 38 39 40 40 40 40 40 40 37 37 34 34 32 30 28 28 25 24 25 25 26 27 26 25 30 35 27 33 35 35 33 32 32 32 32 36 38 41 41
30 35 36 36 36 37 39 37 41 41 41 40 37 38 36 36 34 32 32 29 27 24 22 23 24 25 26 25 27 25 26 29 32 33 33 34 34 32 32 35 38 40 40
34 35 35 35 35 35 36 38 38 37 37 38 38 38 37 35 32 32 30 29 27 26 23 22 22 24 25 22 25 25 24 28 30 31 32 32 34 35 34 35 37 38 39
34 34 34 33 33 34 34 35 35 35 36 36 36 36 36 33 31 30 30 28 25 25 22 21 21 23 22 23 23 24 25 23 24 30 32 32 34 35 37 36 36 36 37
34 33 33 32 33 33 34 35 35 34 34 33 31 32 31 27 29 29 27 24 23 22 20 18 21 22 22 23 23 23 22 20 22 26 31 32 36 37 38 37 37 37 37
33 33 32 33 33 33 34 34 33 32 31 31 31 31 30 29 27 25 24 21 21 19 22 21 19 21 21 22 21 22 23 25 23 27 27 33 35 36 38 37 37 37 36
33 33 33 33 34 32 31 32 31 30 31 31 31 30 29 26 22 21 18 19 18 20 19 19 18 19 19 20 22 23 22 23 23 22 26 31 34 36 37 36 36 37 37
33 33 32 32 33 32 30 32 30 30 30 29 29 27 25 23 22 20 17 19 20 20 19 18 18 19 20 19 18 22 24 24 24 24 28 31 31 34 35 35 34 35 35
32 32 32 32 33 30 31 29 26 25 27 26 25 23 22 25 25 25 25 24 23 20 19 20 21 20 19 21 23 23 22 21 20 25 24 25 29 29 32 34 34 34 34
33 33 33 32 31 31 31 28 25 23 25 26 24 22 20 17 25 22 23 22 22 24 24 22 21 21 24 22 20 18 18 18 19 20 21 19 23 24 25 22 31 32 33
32 33 32 32 31 30 31 27 25 22 26 25 23 23 21 21 22 21 20 19 19 18 17 16 17 16 18 19 20 20 20 20 21 20 21 18 22 25 24 26 32 31 32
32 32 31 30 30 29 30 27 23 24 27 25 24 23 22 19 22 21 20 19 17 17 18 19 18 20 23 25 25 23 22 21 20 20 22 23 24 26 25 26 27 30 32
31 31 30 31 29 30 29 26 23 27 26 27 25 23 22 20 19 19 20 20 18 18 16 14 18 21 22 23 26 29 27 23 22 21 23 25 26 28 21 25 27 28 27

GFSMA_sfc_dewp_027.txt.gz
Dewpoint
59 57 58 56 56 54 53 52 50 48 46 45 45 44 44 42 42 44 50 54 55 52 50 50 50 48 48 47 46 47 48 48 50 51 51 52 53 54 55 55 57 58 61
58 58 57 57 53 52 50 50 47 47 44 44 43 44 42 42 39 39 44 50 54 54 50 49 46 45 44 44 44 45 46 46 47 49 49 51 50 50 51 52 54 55 57
58 56 55 53 51 51 48 46 47 47 46 45 44 44 42 40 37 37 39 39 51 53 52 46 42 43 42 42 43 43 44 44 45 46 47 48 48 49 49 49 50 51 54
56 55 53 50 49 50 48 47 47 46 46 45 43 41 40 38 38 36 36 36 48 47 51 49 44 42 41 41 42 42 43 44 45 45 46 47 47 46 47 47 48 48 49
54 52 51 48 48 48 49 47 46 46 45 44 37 35 37 38 36 36 36 36 39 43 45 50 48 47 41 41 41 41 42 42 43 45 46 44 44 44 45 45 46 47 47
48 50 48 47 47 47 46 45 44 43 44 40 37 37 39 37 36 35 34 33 34 34 37 36 36 38 43 38 38 37 39 41 41 42 42 42 42 42 43 43 44 45 46
46 47 47 47 46 45 43 43 42 40 39 41 37 35 35 35 32 34 34 33 31 33 34 34 34 34 35 37 33 34 37 38 36 37 38 38 39 39 39 41 43 44 45
45 46 45 45 43 42 41 41 40 39 40 38 34 34 32 33 34 33 32 30 29 32 32 30 31 31 32 30 29 28 30 33 33 34 34 35 36 37 38 39 41 42 43
45 44 44 42 41 41 40 40 40 39 37 36 36 34 32 30 31 31 28 28 27 28 28 30 28 28 28 28 28 30 34 36 33 34 35 34 35 36 37 38 39 41 42
40 36 38 37 38 41 40 42 40 39 38 35 36 37 33 33 27 26 27 26 26 25 27 28 30 28 28 29 32 37 39 37 32 31 32 34 34 35 35 37 38 39 41
35 34 37 36 36 38 38 39 40 40 38 36 37 35 32 30 28 25 23 23 25 26 27 28 29 29 30 28 27 29 39 35 33 29 31 33 34 34 35 35 36 38 39
35 36 34 35 36 37 38 39 40 38 39 39 38 37 33 29 26 26 25 25 25 26 27 28 28 28 29 27 27 35 38 37 34 30 31 32 34 34 34 35 36 38 38
32 32 32 35 35 37 38 39 38 38 38 37 37 36 34 32 31 29 28 26 25 27 27 27 27 28 27 28 28 32 32 34 34 31 31 31 33 33 33 34 35 36 37
32 32 33 33 34 35 36 38 39 38 38 38 37 36 36 34 34 32 30 27 25 24 25 24 27 28 28 28 28 31 27 33 33 33 30 30 30 30 31 32 34 35 35
30 32 33 32 33 33 33 35 37 39 39 39 38 38 36 36 37 36 34 30 29 23 22 23 24 25 27 25 26 26 25 28 32 32 31 31 30 30 31 32 33 34 34
31 32 32 32 32 33 33 34 36 35 35 36 37 36 37 37 37 36 32 29 27 27 22 23 22 23 23 22 24 25 25 28 29 31 31 33 33 31 31 32 34 33 35
31 31 31 31 31 32 33 33 34 33 34 34 35 36 35 36 35 33 30 27 25 23 20 20 21 23 22 23 23 25 25 24 24 29 31 32 32 33 34 35 36 36 35
31 31 31 32 33 33 33 33 33 32 31 31 31 30 30 28 27 27 25 21 20 20 20 19 19 20 21 22 23 22 21 22 23 27 31 31 31 32 35 35 36 37 37
31 31 31 32 33 33 32 33 33 31 30 31 31 30 28 27 25 23 21 19 19 19 20 19 18 20 21 21 21 22 23 24 24 26 27 29 31 32 34 34 35 37 37
32 30 31 32 33 33 33 32 32 31 32 31 31 29 28 23 20 19 17 17 18 19 19 19 18 18 19 21 22 21 22 25 24 22 25 28 31 30 31 34 35 36 37
31 32 33 32 32 33 31 31 28 28 27 27 27 26 23 22 24 20 17 18 20 20 20 19 18 19 19 20 20 25 22 21 20 21 23 26 25 28 30 33 35 36 36
32 33 31 31 32 30 32 30 27 25 25 25 24 22 21 24 25 26 25 24 23 21 20 19 20 19 19 21 25 21 19 17 15 20 22 20 23 23 24 31 32 35 36
31 32 32 31 31 31 32 29 27 23 23 25 23 21 21 23 23 21 21 20 20 21 21 21 18 17 16 18 19 18 18 19 19 19 20 19 21 20 24 23 30 32 33
30 30 31 31 32 30 32 30 26 21 24 25 23 22 21 21 22 21 20 19 19 19 18 16 17 15 16 19 21 21 21 21 21 22 22 19 21 21 25 26 29 30 33
30 31 31 31 30 30 31 29 24 23 25 25 24 23 23 20 21 20 20 19 18 18 18 20 19 22 23 25 24 25 25 25 20 19 22 21 21 23 24 26 27 29 32
30 31 28 29 31 29 31 29 25 25 25 25 24 23 23 20 20 20 21 18 18 17 18 17 18 20 22 23 26 24 23 23 23 22 22 23 22 23 21 24 26 26 27

GFSMA_sfc_dewp_030.txt.gz
Dewpoint
57 57 56 55 53 51 51 48 47 45 44 43 44 42 42 42 38 42 47 54 54 53 49 51 50 48 47 47 47 47 47 47 47 49 49 49 50 50 50 51 51 52 54
58 57 55 53 51 49 48 47 46 45 45 44 44 43 42 38 37 37 41 44 53 54 52 50 46 46 44 45 45 45 45 45 46 47 47 48 48 48 48 48 49 50 51
56 55 53 50 50 49 46 47 46 46 45 45 42 40 40 38 38 36 37 37 47 54 54 47 42 44 42 42 43 42 43 45 45 44 47 47 45 46 46 46 47 48 49
56 54 50 49 49 49 48 47 46 45 45 44 39 36 37 38 35 35 34 37 43 47 52 49 45 42 41 40 41 41 42 42 43 45 46 44 43 43 44 44 45 46 47
54 51 49 47 48 48 47 46 45 44 44 40 38 36 38 37 35 34 33 33 34 38 44 45 44 44 40 39 39 40 41 41 41 42 41 42 42 42 41 42 42 43 45
51 49 47 47 47 45 42 42 40 40 41 39 38 34 35 35 33 34 33 31 32 36 34 33 34 38 42 34 35 35 36 38 39 38 38 38 39 38 39 40 41 42 43
47 47 47 45 44 42 40 41 40 39 38 39 35 34 34 34 33 33 32 30 29 30 31 32 33 33 34 35 32 31 33 34 35 33 34 35 35 36 38 38 39 40 41
46 45 45 43 42 41 40 40 39 38 40 37 34 34 31 32 33 31 29 29 26 28 28 27 29 29 31 29 32 35 34 31 32 33 34 34 34 35 36 37 38 38 40
45 44 44 42 42 42 41 40 40 39 36 36 36 33 30 29 30 31 27 27 25 26 27 28 28 27 28 28 32 34 35 35 31 31 33 33 34 34 36 36 36 37 38
39 38 37 37 37 38 37 39 41 39 37 35 35 36 33 32 27 26 27 25 26 25 26 28 28 27 28 27 28 31 37 37 30 29 31 33 34 35 35 36 36 36 37
36 37 36 35 37 38 37 37 38 39 38 36 36 35 33 31 29 27 22 24 26 27 27 28 28 28 28 27 26 28 37 38 33 30 30 32 34 34 35 35 35 36 37
37 34 35 35 35 36 37 38 38 38 38 38 37 38 36 33 27 26 25 25 25 26 27 28 27 27 28 28 29 34 36 35 30 30 31 32 33 34 34 35 35 36 36
34 32 34 34 34 35 35 38 38 37 37 37 36 36 35 33 31 30 28 27 25 26 27 27 27 27 27 29 29 31 31 31 30 30 30 31 32 32 32 33 34 34 36
34 34 34 33 33 33 33 33 36 37 38 37 36 36 36 35 34 32 33 34 30 26 25 24 26 27 28 27 28 30 27 29 28 29 29 29 29 29 30 31 32 33 34
33 34 33 32 34 33 33 33 35 36 38 37 36 36 37 36 37 37 38 37 34 25 23 23 23 24 25 25 25 26 24 27 28 28 29 29 29 30 30 30 31 33 33
33 33 32 32 31 31 32 33 34 34 34 35 36 36 36 36 37 37 34 31 29 28 25 23 21 22 23 20 23 23 25 27 27 28 29 29 29 30 30 30 31 32 34
33 32 32 31 30 31 32 32 33 33 33 34 33 34 36 35 35 34 31 26 24 22 20 20 21 22 21 21 22 24 24 23 24 27 27 28 29 29 31 30 31 33 35
33 32 32 31 31 32 32 33 33 33 31 30 31 31 31 32 29 27 25 21 20 20 19 18 19 19 19 20 21 22 21 21 24 25 26 26 26 29 32 33 34 34 34
32 32 31 30 31 32 33 33 34 32 30 31 31 30 29 28 26 24 21 19 19 19 20 19 18 19 19 20 20 22 22 23 24 24 23 23 24 29 29 29 30 33 34
33 32 32 32 34 32 32 32 31 31 31 31 31 29 27 25 21 20 18 17 18 19 19 19 19 18 19 20 22 21 22 23 21 18 20 22 24 27 25 27 28 33 34
32 32 32 33 34 33 32 32 30 29 27 26 26 24 23 23 25 21 18 18 19 19 19 19 19 19 18 19 20 21 23 19 18 19 19 22 22 23 25 26 27 31 31
29 31 31 33 32 32 33 34 30 25 25 25 24 22 21 24 26 26 25 24 21 19 18 19 19 17 17 16 18 18 19 17 17 20 21 20 22 22 23 25 27 30 30
32 31 31 32 32 33 33 32 30 24 24 24 24 21 20 23 24 21 21 20 19 18 18 20 17 17 15 15 16 18 19 20 20 21 21 21 21 21 22 21 26 28 30
32 31 31 32 32 32 33 32 29 22 23 25 24 22 22 21 22 21 19 18 18 18 18 17 18 17 17 20 22 23 24 25 24 23 23 20 20 20 22 24 28 30 31
30 30 31 32 31 31 33 31 26 22 24 25 25 24 23 21 23 23 20 19 18 18 17 20 20 22 22 23 24 25 22 22 19 20 22 23 21 21 22 24 26 30 31
30 31 30 30 30 29 33 31 27 24 24 25 25 23 24 22 24 22 22 20 17 16 17 18 18 19 20 21 24 23 23 21 21 19 22 25 23 22 20 22 24 24 28

GFSMA_sfc_dewp_033.txt.gz
Dewpoint
56 55 54 53 52 50 48 47 45 45 44 44 43 42 39 38 37 39 42 48 54 53 49 50 50 48 48 48 48 47 47 47 48 48 49 49 49 48 48 48 49 49 50
56 55 53 51 49 48 47 46 45 45 45 44 40 41 38 38 36 36 37 39 49 53 52 49 47 46 45 45 44 44 44 47 46 46 48 47 45 46 46 46 47 47 48
56 53 51 50 49 47 47 46 46 45 45 42 38 38 38 38 35 34 35 38 49 53 53 47 43 43 42 42 41 42 43 43 44 47 47 45 44 43 44 44 44 45 46
55 52 49 48 49 48 47 46 45 43 44 39 37 36 38 35 35 33 33 33 39 47 48 48 44 43 41 41 40 40 42 42 42 42 43 42 42 42 42 42 42 43 44
53 49 48 48 47 46 45 44 42 42 40 38 37 36 37 35 34 31 30 32 36 40 38 40 43 43 38 37 37 37 38 39 40 41 40 39 39 39 39 40 40 41 42
50 48 47 47 45 42 41 41 38 40 39 39 36 34 34 34 34 33 30 29 31 31 32 31 34 34 42 37 35 35 36 36 37 37 36 37 36 37 37 38 39 39 40
48 46 45 44 43 40 40 40 39 38 38 37 35 34 34 33 32 32 30 28 27 28 28 29 31 31 31 36 37 35 35 35 35 35 35 35 35 35 35 37 38 38 38
46 45 44 43 41 40 39 39 38 38 39 36 34 33 30 32 33 31 29 28 25 27 27 28 28 28 29 28 34 34 35 35 35 35 35 34 35 35 35 36 36 37 37
45 44 43 42 41 41 39 39 39 38 36 37 35 33 30 29 30 31 28 26 24 26 26 27 27 27 27 27 31 31 31 30 30 31 33 34 34 35 36 37 37 37 37
41 38 37 37 37 38 37 38 39 38 37 35 35 36 33 31 28 28 28 26 26 25 26 28 27 27 28 28 28 31 35 36 31 31 33 33 34 35 36 36 36 36 37
37 36 37 37 37 37 37 37 38 38 38 36 35 35 34 32 30 29 25 24 26 27 27 28 28 28 27 28 27 29 35 38 35 32 32 33 34 35 35 35 36 36 36
36 36 35 36 37 37 36 38 38 37 38 37 37 36 35 33 29 27 26 25 25 27 27 29 28 27 28 29 30 34 33 33 31 31 32 33 34 35 35 35 35 35 36
34 35 35 36 36 35 35 37 37 37 36 36 35 36 35 33 32 30 28 28 27 26 28 29 28 28 27 28 28 30 31 30 30 30 31 32 33 33 33 33 33 35 36
35 35 35 35 34 34 33 32 34 35 37 37 37 37 36 36 35 33 31 33 33 31 27 26 27 26 26 26 27 28 26 28 28 28 29 29 29 30 30 31 32 33 35
34 35 35 34 34 33 32 33 34 34 37 37 36 36 36 37 36 36 37 37 35 28 25 24 23 24 24 24 23 24 24 26 27 26 26 28 29 29 30 31 31 32 33
36 35 34 33 33 32 32 32 33 34 34 34 35 34 35 36 37 36 35 33 33 29 24 24 21 21 22 20 21 22 23 26 26 27 27 27 27 29 30 30 30 31 31
34 34 34 33 32 31 32 33 33 33 33 32 33 32 33 35 35 34 33 29 26 26 24 20 21 21 20 20 20 22 24 23 24 26 26 27 27 27 27 28 30 31 31
34 34 33 32 31 31 31 32 31 32 32 30 30 31 32 34 33 29 27 24 21 20 19 17 18 19 19 19 20 21 21 21 23 25 26 24 24 24 24 26 31 30 31
33 32 32 31 31 32 32 32 32 33 31 30 30 30 29 28 26 26 23 21 19 18 19 19 19 19 19 19 19 21 22 22 23 24 22 22 23 24 25 26 28 28 28
33 32 32 33 33 33 32 32 32 31 31 31 31 30 29 27 25 22 20 19 17 18 19 19 19 18 19 19 21 21 18 20 19 18 20 22 23 24 26 26 26 27 27
33 33 33 33 34 33 31 33 31 30 29 28 28 26 24 23 25 22 18 17 19 19 19 18 17 17 18 17 17 16 16 17 19 20 20 20 22 23 24 26 26 27 27
33 33 34 34 33 31 33 35 32 29 27 25 24 23 21 26 27 28 26 25 22 19 18 17 17 17 15 16 16 16 17 18 17 20 21 21 23 22 23 24 26 27 28
37 35 33 31 31 32 34 35 33 27 25 24 24 22 21 20 26 25 26 23 21 21 20 18 17 16 17 16 17 18 20 20 21 22 23 20 21 20 22 21 26 28 30
36 35 32 31 31 31 33 34 33 24 24 24 25 23 22 21 24 21 20 19 19 19 18 16 17 18 18 19 20 21 25 24 23 22 22 20 20 21 22 23 26 29 30
35 31 31 30 29 29 33 34 31 23 23 24 25 24 23 22 24 26 22 20 19 19 17 20 20 22 22 22 21 21 20 20 17 18 20 22 22 22 23 24 25 27 30
30 30 28 28 30 29 31 34 31 24 24 25 25 25 28 24 25 26 22 21 19 18 16 17 19 20 20 20 21 21 21 19 18 17 20 21 21 24 22 22 22 24 24

GFSMA_sfc_dewp_036.txt.gz
Dewpoint
56 55 54 52 50 49 47 46 45 45 44 42 42 39 39 38 38 38 39 47 51 53 51 52 52 49 48 48 47 47 48 49 47 49 49 47 47 47 47 46 46 46 46
55 53 52 50 48 47 46 46 45 45 43 41 40 39 39 36 35 36 39 44 54 54 52 49 49 47 46 46 44 44 47 45 45 49 47 46 45 45 44 44 44 44 45
55 52 50 49 47 47 47 46 45 45 42 39 37 38 38 36 34 34 35 39 47 52 52 47 46 43 43 44 41 41 43 43 43 45 45 43 43 42 42 42 42 43 44
54 50 49 48 48 47 46 45 44 43 40 39 37 38 36 36 34 33 34 39 45 44 44 48 45 43 42 41 40 40 41 41 41 40 43 42 40 39 39 40 41 41 41
52 49 48 48 47 46 44 42 42 41 38 38 37 37 36 34 34 30 33 34 36 35 34 40 43 44 39 36 35 37 38 39 39 39 39 38 38 37 38 38 38 40 41
50 48 48 46 44 42 41 39 39 40 39 39 35 34 35 34 34 32 30 29 31 31 31 32 35 35 39 36 35 34 35 36 37 38 38 37 37 36 36 36 36 37 38
48 47 46 44 43 41 40 39 39 37 39 37 35 35 35 35 34 32 31 29 29 29 30 31 33 31 30 34 35 35 36 36 36 36 36 36 36 35 36 36 37 37 37
46 45 44 42 41 40 40 39 39 38 39 37 34 34 32 33 33 32 30 28 28 28 29 30 30 31 30 30 35 32 31 32 33 33 34 34 35 35 36 36 37 37 38
45 44 43 42 41 40 38 39 39 38 36 37 36 34 31 29 31 32 30 28 27 28 28 29 30 30 30 29 30 32 33 31 30 33 34 34 34 35 35 36 37 37 37
42 40 38 37 37 38 37 38 38 39 38 36 36 36 34 32 30 30 30 28 28 27 28 29 29 29 30 30 30 31 34 36 35 34 34 33 35 35 36 36 37 37 37
37 37 37 37 37 38 37 39 39 39 38 36 35 35 34 33 32 30 28 26 27 28 29 30 30 29 29 30 30 31 35 35 34 34 34 35 35 35 35 36 36 36 37
36 36 35 36 36 36 37 39 38 37 37 37 37 36 35 33 32 29 26 26 26 27 29 30 30 30 30 29 30 33 32 32 32 32 33 34 35 36 36 36 36 36 36
36 35 35 36 36 36 38 37 37 37 36 36 36 36 36 35 33 31 29 28 27 29 29 30 30 28 26 28 28 29 30 29 29 30 31 32 33 34 34 34 34 34 35
37 37 37 38 39 37 35 34 34 34 35 37 36 36 36 36 35 33 31 30 31 33 30 29 28 26 27 26 26 26 25 27 27 27 29 30 30 30 31 32 32 33 34
35 36 41 39 37 34 33 34 34 34 36 37 37 37 35 36 36 36 35 35 36 29 27 26 26 26 24 24 23 24 23 25 27 27 27 28 28 29 29 30 32 33 32
35 40 38 35 35 34 33 34 34 35 36 35 35 34 34 35 35 35 35 35 36 33 28 27 24 23 22 19 22 23 22 26 26 27 27 27 28 28 28 28 29 29 30
37 38 34 34 34 33 33 32 33 34 33 33 33 34 33 33 35 34 33 32 30 30 28 26 23 21 20 19 20 21 23 23 24 26 26 27 27 26 26 26 27 27 28
37 34 35 34 33 32 32 32 33 32 33 32 32 31 33 34 33 32 31 28 25 23 20 18 18 19 19 20 20 20 20 20 23 24 26 26 24 25 25 25 26 26 28
35 34 34 33 33 33 33 33 32 32 32 32 30 30 30 29 29 28 26 24 21 19 20 19 18 20 20 19 18 20 21 22 21 23 22 23 24 26 26 26 27 27 27
34 33 34 34 34 33 33 33 32 32 32 32 31 31 30 29 28 26 24 22 19 18 19 19 19 18 18 18 20 19 16 17 17 17 21 23 25 26 26 27 27 28 28
34 34 34 36 36 36 32 33 32 32 31 30 30 30 30 29 30 25 20 20 18 18 19 19 17 16 15 16 15 17 16 17 19 20 20 20 23 24 25 26 26 27 28
36 38 38 37 37 33 33 35 34 31 30 28 27 26 24 27 29 31 30 24 20 20 19 17 16 15 14 15 18 17 18 17 15 21 21 21 22 23 23 25 26 27 28
38 38 37 37 35 33 33 35 35 30 28 27 26 25 23 20 26 24 28 29 26 25 22 20 17 16 16 17 17 18 19 19 20 21 22 20 21 20 21 21 26 27 28
38 38 36 35 33 32 33 34 34 31 28 26 25 25 23 22 23 24 23 22 20 19 19 18 17 16 18 19 19 19 21 21 21 20 20 18 19 21 23 23 26 27 28
37 36 34 32 30 29 32 33 33 30 26 25 24 25 24 23 25 28 23 21 19 19 21 22 21 22 23 23 22 21 19 19 17 16 18 19 20 21 23 24 26 27 28
35 31 30 29 29 29 30 32 32 27 26 26 25 25 29 25 27 28 26 22 20 19 19 16 16 19 21 20 22 20 18 18 18 15 20 20 19 22 22 24 25 26 26

GFSMA_sfc_dewp_039.txt.gz
Dewpoint
59 58 56 53 51 49 49 48 48 46 46 44 43 42 41 41 41 38 40 51 54 52 52 52 53 50 49 48 46 46 48 45 46 48 47 47 46 45 45 44 44 45 45
59 57 54 51 50 49 49 48 47 45 43 43 42 41 39 37 38 40 39 45 54 54 51 48 52 49 48 45 43 44 45 43 47 47 44 43 43 42 42 42 43 43 44
58 56 54 50 50 50 50 49 48 46 43 40 41 40 38 37 36 38 39 44 46 52 53 49 48 44 45 45 41 41 44 42 41 41 43 42 41 41 39 40 40 41 42
57 55 52 50 51 50 49 48 46 43 42 40 41 38 38 36 35 38 40 45 46 42 48 50 47 44 43 41 40 41 41 40 41 41 41 40 41 39 38 38 38 38 40
56 54 51 51 51 49 48 45 45 43 40 39 37 39 39 36 34 32 35 40 40 39 38 42 44 45 39 36 37 38 39 39 39 39 39 39 39 38 38 37 38 37 37
54 52 51 51 48 46 45 43 43 43 41 40 34 37 39 37 36 34 33 30 33 34 33 35 35 36 39 37 36 36 36 37 38 39 38 38 38 38 37 37 37 38 38
52 52 49 48 47 45 44 45 43 43 41 42 39 37 38 38 37 34 33 32 30 30 33 32 30 29 29 33 33 32 33 34 36 36 36 36 36 36 36 37 37 38 38
51 50 48 46 45 44 45 45 44 41 42 41 36 36 32 34 35 36 35 32 34 31 29 30 32 32 31 28 32 33 33 32 33 34 34 35 36 36 36 37 37 37 38
49 48 48 45 45 45 42 43 42 42 37 40 41 34 30 28 34 36 36 34 35 32 31 30 30 30 31 30 30 30 34 36 35 34 35 35 36 36 36 37 37 37 38
48 46 45 45 43 41 41 41 40 41 40 36 39 38 39 37 30 29 34 34 34 32 33 32 30 31 31 30 32 32 35 37 37 36 36 35 36 36 37 37 37 37 37
46 43 42 42 41 39 41 42 43 42 41 41 37 39 39 38 38 32 26 28 30 30 32 33 34 33 31 31 31 33 34 34 34 35 36 37 37 37 37 37 37 37 37
41 41 39 40 40 39 41 42 43 43 41 40 39 39 35 33 31 31 29 29 30 31 31 30 33 33 32 31 26 30 30 30 31 31 32 34 35 36 36 36 36 36 37
40 39 39 39 38 39 41 42 41 41 41 39 40 38 39 37 36 34 32 30 30 29 31 32 33 32 29 31 30 27 27 27 28 29 29 30 31 32 33 34 34 35 35
40 39 39 39 39 39 39 39 39 38 39 39 40 40 38 38 38 36 33 32 30 28 28 30 31 31 31 31 26 26 23 25 26 27 28 29 30 30 31 32 32 32 33
39 40 40 41 41 39 38 37 37 37 39 41 41 41 39 37 38 37 37 36 35 30 25 27 28 31 30 28 25 25 24 24 25 27 27 28 29 30 30 30 30 31 32
40 39 41 42 38 37 37 37 36 36 38 39 39 38 38 36 36 36 36 36 36 35 30 26 26 29 28 21 21 24 22 23 23 25 27 27 28 29 29 29 29 29 30
40 38 41 38 37 35 35 35 35 35 36 37 37 37 36 37 35 35 37 36 35 34 29 24 26 26 25 22 21 21 19 18 18 22 24 26 26 27 27 26 27 27 28
39 38 38 36 36 34 34 34 34 36 35 35 35 35 35 32 36 36 35 35 32 31 28 23 23 21 21 22 21 20 14 14 18 20 23 25 25 25 26 27 27 27 28
38 38 36 35 36 35 34 34 38 37 34 34 34 34 34 34 34 33 33 32 30 27 26 24 20 19 20 20 18 16 15 18 14 19 20 22 23 25 26 27 28 28 29
36 37 37 37 35 34 36 39 38 35 34 34 35 35 34 34 33 32 30 30 28 26 23 20 18 18 18 18 17 12 14 14 14 14 19 21 24 25 26 27 28 28 29
36 36 36 39 39 39 39 38 36 36 35 34 35 34 34 34 35 33 29 28 25 22 20 18 18 18 17 16 12 14 14 14 16 17 18 19 19 20 21 24 25 27 27
39 39 39 39 39 40 36 36 35 33 34 33 32 33 33 33 34 33 31 29 25 23 22 20 18 17 17 15 13 15 16 15 13 17 17 16 18 18 19 21 24 26 27
40 39 40 41 39 38 36 35 35 33 33 33 32 32 30 25 28 26 29 31 28 26 25 24 21 19 20 14 15 15 15 15 15 16 17 16 17 17 19 18 26 26 27
40 40 40 38 37 36 34 33 33 32 32 33 33 32 31 30 28 25 24 25 25 25 24 21 21 20 17 16 18 19 20 19 16 16 16 14 17 19 20 22 26 27 29
40 38 37 37 37 34 32 32 32 31 32 32 31 30 30 29 29 28 25 24 23 22 23 24 24 24 21 24 24 22 20 18 19 13 15 17 17 18 21 23 25 26 28
37 36 34 34 32 32 31 32 31 32 31 30 31 30 30 28 29 29 28 28 25 21 20 20 19 19 21 20 23 23 18 19 18 17 15 18 16 18 19 20 24 27 29

GFSMA_sfc_dewp_042.txt.gz
Dewpoint
56 56 56 55 54 53 51 50 50 48 48 47 46 45 43 41 38 33 35 54 54 52 52 50 53 51 50 48 46 47 45 44 48 46 45 44 44 43 43 43 43 43 43
58 57 57 54 52 51 51 50 49 48 47 46 45 43 39 36 36 38 34 43 53 53 51 49 54 51 49 46 44 44 43 42 45 44 43 43 41 41 41 41 40 40 41
60 59 56 54 52 52 53 52 50 48 45 43 42 39 37 38 36 38 36 38 42 52 53 50 50 47 47 47 42 41 44 43 41 42 42 42 41 41 39 39 39 38 39
60 59 56 54 53 53 51 50 48 46 45 42 40 37 37 37 38 38 38 38 37 37 48 49 48 45 44 42 42 42 43 42 42 42 41 41 41 40 39 39 38 38 38
59 57 55 54 55 52 51 49 47 47 42 39 35 37 38 36 36 31 37 39 40 38 36 45 44 44 42 39 39 40 41 40 40 40 40 40 41 40 39 39 38 38 38
58 57 54 55 53 51 49 47 47 42 41 39 26 31 38 37 36 36 34 31 34 36 33 33 33 35 40 38 38 37 36 38 39 39 39 39 39 40 39 38 38 38 38
58 57 54 54 52 50 49 49 45 43 40 39 38 39 39 40 39 35 34 32 32 32 34 31 30 28 31 35 33 32 33 36 37 37 36 36 37 37 38 38 38 38 39
57 56 54 52 51 48 49 47 45 41 39 41 39 38 38 36 37 37 34 34 36 33 31 31 32 32 32 30 35 33 34 36 35 36 36 36 37 37 38 38 38 38 38
56 54 54 51 50 48 46 46 43 39 39 41 41 38 33 30 32 34 38 36 36 34 33 31 32 32 33 32 32 32 35 34 37 37 38 38 38 38 38 38 38 39 38
55 52 52 51 50 47 45 43 38 41 41 39 42 38 38 33 28 29 34 36 35 32 34 33 32 33 33 33 33 32 35 36 35 36 37 38 38 38 38 39 39 39 39
53 51 51 50 49 45 44 41 43 42 42 43 39 36 37 36 37 32 26 26 29 30 31 32 33 34 33 33 33 35 32 31 32 33 34 35 36 37 38 38 38 38 38
51 50 48 48 47 43 43 43 44 44 42 40 37 35 33 33 30 29 29 30 29 29 30 32 32 32 32 31 29 29 28 30 30 30 31 31 32 33 34 35 36 36 36
50 49 47 46 43 42 42 44 44 43 41 40 38 35 35 33 33 32 30 28 27 27 29 32 31 30 29 31 32 29 30 30 27 28 29 30 30 32 33 34 34 35 35
49 47 46 44 41 41 43 43 42 41 40 38 39 37 34 36 35 32 29 29 29 27 27 29 29 29 29 29 31 26 28 32 29 27 28 28 29 29 30 32 33 33 34
47 46 44 41 42 42 43 41 40 38 37 39 39 39 37 34 34 32 32 31 32 30 25 25 25 28 29 29 31 29 27 29 27 27 26 27 28 29 30 31 31 31 32
45 44 42 41 42 42 40 39 38 37 37 39 36 36 35 32 33 34 32 31 31 30 29 26 24 26 27 24 27 25 25 26 27 27 24 25 27 28 29 29 29 30 30
47 43 41 41 42 39 38 37 38 34 37 39 38 35 34 34 33 32 32 31 30 29 29 27 23 24 27 27 24 24 24 22 18 25 25 24 25 26 27 27 27 28 29
44 43 42 42 38 37 37 38 37 35 41 39 34 34 33 29 34 34 31 32 30 29 26 25 25 23 24 24 24 24 19 13 16 22 23 23 24 24 25 27 28 28 29
45 42 41 39 37 38 37 38 40 41 42 39 36 34 33 34 33 32 31 30 28 24 26 25 23 24 22 20 21 21 19 18 13 20 24 26 23 24 25 26 27 28 29
42 41 41 41 39 36 36 39 41 41 40 40 37 35 35 34 33 32 29 30 28 27 26 24 22 20 18 19 19 17 14 14 14 11 20 24 24 24 26 26 26 27 28
40 39 38 40 40 39 40 40 39 39 39 37 36 34 36 36 36 34 28 29 29 26 25 23 21 18 17 17 16 16 12 14 16 17 16 17 17 18 20 25 25 27 27
39 40 40 41 40 38 39 37 38 39 39 34 33 33 33 36 36 36 35 34 31 28 26 24 21 18 18 18 18 16 14 14 13 17 16 16 17 16 18 19 27 28 27
41 41 40 39 39 40 38 38 37 36 33 32 32 31 29 26 33 33 34 33 31 29 28 27 23 21 21 20 19 14 15 16 16 17 16 14 17 16 17 15 28 29 29
40 39 40 40 41 39 37 37 34 33 32 30 30 30 31 31 31 32 31 30 29 28 29 24 24 23 22 22 19 16 20 19 18 17 17 15 16 17 19 20 27 29 28
41 40 39 38 37 38 37 34 32 32 29 30 29 29 29 30 31 34 31 30 29 29 29 29 29 28 27 23 21 20 22 20 22 14 16 15 16 17 19 21 24 29 29
38 37 36 36 34 34 34 33 32 32 31 31 31 30 30 30 31 32 31 30 29 28 29 26 23 24 26 25 25 23 20 21 20 18 16 17 14 16 17 18 22 24 27

GFSMA_sfc_dewp_048.txt.gz
Dewpoint
59 58 58 57 56 57 55 56 55 53 52 50 49 46 42 40 39 42 47 53 53 49 48 54 55 54 52 50 50 49 45 47 46 44 44 45 43 42 42 41 42 41 41
59 59 60 59 59 57 57 55 54 53 52 50 47 42 40 39 38 38 44 48 53 54 51 47 54 55 53 50 47 48 44 45 44 42 44 43 42 42 42 41 40 40 41
59 61 59 60 58 58 57 56 54 54 50 48 45 41 41 37 39 37 38 45 50 54 55 55 54 54 53 50 46 45 46 44 43 42 43 42 42 42 42 41 39 40 40
60 60 61 59 59 58 57 56 54 53 51 48 44 42 40 39 37 37 39 39 43 47 53 54 51 49 47 46 48 45 44 44 44 43 42 41 41 42 43 43 42 41 40
61 61 60 60 59 58 57 56 55 53 49 46 43 42 41 41 40 36 37 38 39 39 47 53 52 50 46 44 42 41 41 41 41 40 40 40 41 41 41 41 41 41 41
62 62 61 60 59 57 57 55 53 51 49 46 38 37 43 43 42 40 39 37 37 36 36 40 46 46 50 46 44 41 37 37 37 37 39 39 39 39 39 39 40 40 40
61 61 61 60 59 57 56 56 53 50 45 44 41 43 45 46 43 42 41 40 37 36 36 35 36 35 44 45 40 34 33 33 34 37 38 39 39 39 39 39 40 41 41
60 60 60 59 58 57 56 55 52 49 48 46 44 45 44 43 44 44 42 40 39 38 37 36 36 34 35 37 38 36 35 34 33 34 37 39 39 40 40 40 40 40 41
60 60 60 60 59 58 56 54 53 50 46 46 45 44 41 41 38 43 42 41 42 41 38 38 36 35 35 35 39 39 39 37 35 34 35 36 37 39 39 39 39 39 39
61 60 60 59 58 57 55 54 52 50 48 46 47 44 44 43 37 36 41 41 42 39 39 40 36 35 35 36 40 41 40 37 35 33 33 36 38 39 39 38 38 38 39
61 60 60 59 58 57 56 54 52 51 48 46 46 45 45 44 43 39 37 37 40 39 39 40 38 37 35 35 38 39 39 36 34 32 33 35 35 36 36 35 35 36 36
60 60 59 58 58 57 56 54 51 49 46 46 44 42 41 40 38 39 38 37 35 36 36 37 37 36 37 36 35 40 38 35 34 33 32 32 33 34 34 35 35 35 36
59 58 58 57 56 55 53 50 49 49 46 45 43 42 42 40 40 39 37 35 34 34 34 35 36 38 35 36 37 38 37 37 36 34 32 31 32 32 32 32 33 34 35
58 57 57 56 54 51 50 49 48 47 45 44 41 43 42 42 42 40 37 36 34 32 33 33 34 35 36 34 36 40 36 38 38 37 32 31 31 30 28 29 31 33 34
58 57 56 51 50 48 47 47 46 43 43 44 42 43 42 42 43 41 39 37 35 32 31 31 32 32 32 33 36 35 33 38 37 36 34 33 31 29 28 28 29 30 31
57 55 51 49 48 46 47 45 44 43 42 42 43 42 42 42 42 41 37 37 36 34 31 31 30 31 30 27 32 32 30 35 35 36 36 36 35 29 27 27 28 28 30
52 50 49 48 46 45 46 44 42 40 40 41 44 44 43 43 41 38 38 37 35 34 31 31 32 30 31 32 28 32 33 29 29 35 35 35 35 32 29 28 27 28 29
51 49 48 47 45 46 45 43 39 37 43 42 43 44 42 40 39 39 38 36 35 34 32 30 30 30 29 29 29 29 28 22 24 30 33 33 33 32 32 31 30 29 29
52 48 47 45 45 44 42 40 41 43 43 43 43 42 41 41 40 39 38 36 35 33 33 31 30 31 30 29 28 28 26 26 25 30 33 33 33 33 32 32 31 32 32
46 45 46 45 43 41 42 43 43 42 41 41 41 41 41 41 41 39 37 36 35 35 34 31 30 29 29 28 28 24 23 25 23 18 24 26 30 30 32 34 33 33 33
46 44 42 42 42 42 41 42 40 40 39 39 41 41 40 40 40 38 36 35 34 34 33 32 29 28 27 27 25 24 23 22 22 22 20 21 22 23 23 27 28 32 32
42 42 41 41 40 39 39 39 39 39 40 40 39 39 39 39 38 37 36 35 33 32 32 32 31 29 27 27 26 25 23 21 19 22 19 20 21 20 21 23 28 29 29
42 41 41 41 41 40 38 38 37 39 39 39 39 38 38 30 32 32 32 33 34 34 34 32 31 30 29 29 30 27 25 23 21 21 19 19 21 21 23 17 28 29 29
41 41 41 41 41 39 38 38 37 38 38 38 37 34 32 31 32 32 31 30 30 31 33 33 33 33 32 32 32 29 27 25 21 21 20 18 21 21 22 23 28 28 29
41 41 41 41 40 40 37 37 37 37 34 33 32 32 32 32 33 34 32 31 30 30 30 33 35 35 33 32 30 28 26 25 23 20 21 20 20 20 21 21 22 27 29
41 40 40 40 34 35 36 34 33 33 31 31 31 30 31 31 32 33 32 31 31 32 34 34 31 32 32 31 30 29 26 27 26 23 22 21 20 19 18 19 22 23 24

GFSMA_sfc_dewp_051.txt.gz
Dewpoint
57 56 56 56 54 54 51 53 53 52 50 48 46 42 39 37 42 44 47 54 54 51 51 56 55 55 53 51 52 48 45 49 46 44 44 45 43 43 43 42 42 42 42
60 57 57 56 56 55 54 54 53 51 50 47 44 38 37 38 37 44 43 46 53 53 51 50 55 56 54 51 50 49 45 46 45 42 43 40 42 42 44 42 39 39 41
58 58 60 60 60 57 56 53 53 51 50 48 43 39 38 37 36 36 43 45 49 54 55 56 53 56 54 52 49 48 47 45 45 42 42 41 41 43 43 44 40 41 42
59 58 59 58 59 57 55 54 53 51 49 47 43 40 40 38 35 35 39 45 45 50 53 54 56 54 53 52 50 48 47 46 46 42 40 40 41 42 42 42 42 42 42
60 58 59 59 58 56 55 54 53 52 50 46 41 41 40 40 36 36 38 40 39 48 49 53 53 52 49 47 48 47 45 44 42 41 39 39 40 40 40 40 41 40 41
59 60 60 59 58 56 55 55 53 52 49 44 40 38 40 40 41 39 37 37 38 41 46 47 48 47 51 49 47 46 43 40 39 37 38 39 39 40 40 40 40 40 40
60 60 60 59 59 56 55 54 53 49 44 42 39 40 41 42 41 40 40 38 36 35 36 40 40 38 44 51 46 40 38 37 34 36 37 38 39 40 40 40 40 40 40
60 60 60 58 58 57 56 54 51 47 45 42 39 44 41 43 44 42 41 39 37 37 36 34 35 35 40 39 38 40 37 36 36 35 36 36 37 38 39 39 39 39 40
60 60 59 59 58 58 56 53 51 47 45 45 44 44 40 40 39 42 42 41 38 38 38 37 36 34 35 37 42 42 43 40 38 37 34 34 36 37 39 38 39 39 39
60 60 60 59 58 58 56 54 53 51 48 44 46 44 42 42 37 35 40 41 41 39 38 38 37 36 35 36 40 42 43 42 39 38 36 35 35 36 37 37 37 37 37
60 60 60 59 58 58 57 55 53 51 50 48 45 45 43 44 43 39 36 37 40 40 39 39 39 37 35 36 39 42 43 41 40 38 37 36 35 35 35 36 36 36 36
60 61 61 59 59 58 57 55 52 51 49 47 45 44 43 42 41 41 40 37 36 35 38 39 40 37 36 36 39 42 43 41 40 38 37 36 34 33 34 35 35 34 35
58 58 59 58 58 56 55 53 50 48 48 47 47 45 45 44 42 41 37 36 35 34 34 36 37 37 36 36 38 42 42 40 39 38 38 35 34 34 33 33 32 32 34
58 58 58 57 55 54 51 50 49 48 48 47 44 45 46 43 42 40 38 37 34 33 32 32 34 34 37 35 40 42 38 39 39 40 38 36 35 33 33 30 29 29 31
56 56 57 55 54 51 49 49 47 47 46 44 44 45 43 42 43 43 42 39 36 31 31 32 31 32 32 36 37 39 36 39 40 40 39 38 35 34 32 29 28 28 28
56 55 55 53 50 48 47 47 46 45 44 44 44 42 44 44 44 44 43 39 36 34 31 32 31 31 31 29 33 36 33 38 40 38 37 37 37 36 33 30 28 28 27
54 54 52 50 48 47 47 45 44 43 44 43 44 43 43 44 44 43 40 37 35 34 31 32 32 31 30 30 31 35 34 34 33 38 37 38 38 36 36 34 31 29 28
53 51 50 49 47 46 45 44 42 41 42 43 43 43 42 41 41 40 39 38 36 36 34 31 31 31 29 30 30 29 30 28 29 33 37 36 36 36 35 34 33 33 31
51 49 49 47 46 46 44 42 40 42 44 43 42 42 42 41 40 41 41 40 39 36 36 35 35 32 32 31 30 28 28 29 25 31 35 35 35 36 36 35 34 34 33
49 48 47 46 46 44 42 42 43 43 43 42 42 41 42 41 41 40 39 38 37 35 35 35 35 34 31 31 30 28 27 28 25 22 26 25 29 31 34 35 35 35 35
47 46 45 43 43 42 42 43 42 42 40 40 40 41 41 41 40 39 39 38 35 34 33 32 32 30 29 29 28 29 28 26 25 24 22 20 20 22 23 26 28 32 31
44 43 42 42 42 41 40 39 40 39 39 39 39 40 40 40 39 38 38 37 36 33 31 30 31 31 31 28 27 29 29 25 25 26 22 19 21 20 21 22 27 30 31
40 40 39 39 39 39 38 38 37 39 39 39 39 38 38 38 35 33 33 33 32 33 34 31 30 31 31 31 30 30 30 28 31 29 21 18 20 19 22 19 28 31 30
39 39 39 39 39 38 38 38 37 38 36 36 36 36 33 31 32 32 31 30 31 31 31 31 31 32 32 33 33 32 32 31 29 25 21 18 20 20 21 23 27 29 28
40 39 40 39 39 38 37 37 36 35 33 31 32 31 30 29 32 30 27 24 22 22 27 32 33 34 34 33 33 33 29 30 28 21 25 21 22 20 21 20 21 26 29
40 40 39 39 36 33 34 34 33 29 27 26 27 28 29 28 29 28 24 22 22 22 21 23 26 29 30 31 34 33 32 27 28 26 27 22 21 20 17 19 20 22 22

GFSMA_sfc_dewp_054.txt.gz
Dewpoint
55 55 56 56 54 54 50 51 52 52 47 47 43 39 38 42 42 45 47 55 57 57 56 56 56 55 54 53 50 48 50 48 46 44 46 44 43 42 45 42 41 41 42
56 55 55 54 54 53 51 52 52 50 48 45 39 38 38 40 42 41 44 47 52 53 53 53 56 56 55 52 52 48 46 47 45 42 42 43 43 43 43 43 40 41 42
56 57 58 58 57 55 53 54 52 51 49 47 40 38 37 37 41 42 42 45 49 53 54 55 53 56 56 53 51 50 46 47 45 45 41 41 40 42 44 44 44 44 44
58 58 59 60 59 58 55 53 53 51 49 48 42 39 38 37 36 37 43 44 45 50 53 56 58 58 56 54 52 50 49 48 48 47 41 39 40 41 41 41 41 42 42
59 58 59 59 59 57 55 54 53 51 49 47 43 40 39 38 36 35 40 44 44 48 49 54 54 54 54 53 53 52 51 48 44 43 41 38 39 40 40 40 41 41 40
57 58 59 59 58 56 54 53 52 52 50 48 41 40 39 40 38 38 38 40 41 46 48 49 49 48 52 51 48 48 47 46 42 39 37 38 39 40 40 41 40 40 40
57 57 59 58 58 57 55 54 53 51 46 44 39 39 40 41 41 40 38 38 39 44 45 46 45 44 45 53 48 47 46 41 38 37 39 38 38 37 38 38 39 39 39
58 59 59 58 58 57 55 54 52 48 47 42 40 42 41 43 43 42 40 39 37 36 37 40 40 38 37 46 46 47 43 40 40 41 40 39 37 36 36 37 38 38 39
58 59 59 58 57 56 55 54 52 49 47 45 44 43 42 41 39 40 42 41 39 38 37 36 35 36 38 40 43 45 47 45 43 42 42 40 38 37 36 37 37 38 38
58 59 59 59 57 58 56 55 54 51 51 47 45 45 44 43 38 36 40 41 41 39 38 38 37 35 35 37 40 44 46 45 44 42 42 41 39 36 36 36 36 37 37
59 59 59 58 58 58 58 56 55 52 51 49 46 45 45 44 42 39 38 37 40 41 41 39 39 38 36 36 38 42 45 44 44 42 42 41 40 38 36 35 36 37 37
59 59 60 59 58 58 58 58 56 54 51 48 48 48 47 45 45 44 40 39 37 36 38 40 40 40 38 37 39 42 45 43 43 43 41 41 40 38 37 37 37 36 35
57 58 59 58 58 58 58 57 54 53 49 48 48 48 48 47 46 44 40 37 36 36 36 36 36 37 37 37 39 43 45 42 42 43 42 40 40 38 37 37 35 35 33
57 57 58 57 57 56 55 54 51 49 49 48 48 47 47 47 44 43 40 39 36 35 34 33 35 35 34 36 38 44 42 42 41 42 42 41 39 38 37 36 34 33 31
57 57 57 56 55 54 53 50 48 47 48 47 47 46 45 44 43 44 43 41 39 36 35 33 32 33 33 33 37 41 40 42 42 41 40 41 40 38 37 35 35 32 30
56 55 55 55 53 51 49 48 47 47 46 45 45 45 44 44 44 44 44 42 40 37 34 33 32 33 32 31 34 40 39 40 41 40 40 40 40 40 39 36 35 32 30
57 55 55 53 51 48 47 47 46 45 44 45 44 44 44 44 43 43 42 40 38 36 35 34 33 32 30 30 31 35 37 36 36 40 40 39 38 38 38 38 37 35 31
56 55 53 51 49 47 46 45 44 44 44 43 43 44 44 44 42 41 40 39 37 37 35 35 33 32 31 32 31 30 30 32 33 35 40 39 38 37 37 37 36 36 34
54 53 52 50 48 47 45 44 43 43 43 43 43 43 43 42 40 40 39 39 39 39 38 37 35 35 34 34 33 32 31 31 31 35 36 38 38 38 37 36 36 36 35
53 52 51 49 47 45 44 42 42 43 43 43 43 42 42 41 40 39 38 36 37 35 35 35 35 35 33 33 32 31 31 30 29 28 33 33 36 36 36 36 36 36 36
51 49 47 46 45 44 43 42 42 42 42 42 42 41 41 41 41 39 38 36 34 33 33 33 32 31 29 28 29 30 29 30 30 28 29 26 27 27 28 34 32 35 36
48 45 44 44 43 43 40 40 41 41 41 40 38 39 40 40 39 36 34 33 32 29 28 27 28 28 29 30 29 30 29 27 28 29 27 28 29 29 26 25 27 30 31
45 43 43 43 42 42 39 39 38 39 39 38 38 39 37 34 33 32 32 31 31 32 33 29 28 28 29 29 32 31 29 30 29 31 28 29 29 27 27 20 29 31 32
41 41 40 40 40 39 38 37 36 37 36 36 34 33 31 29 31 29 27 24 22 23 22 22 26 28 30 31 31 30 29 31 33 31 30 29 26 26 22 23 27 29 31
39 38 38 38 37 37 37 36 37 35 32 31 29 29 28 27 27 27 25 23 22 24 25 27 28 29 28 29 31 29 27 27 26 28 28 28 25 26 24 22 23 30 28
38 39 39 38 37 37 36 36 33 30 26 25 26 25 26 25 26 24 24 24 24 25 26 27 27 27 28 28 30 29 29 27 27 25 27 25 26 26 20 20 20 21 22

GFSMA_sfc_dewp_057.txt.gz
Dewpoint
56 57 56 55 53 52 50 49 51 48 47 44 40 43 44 45 46 48 51 57 58 59 55 55 55 56 55 53 52 52 51 48 46 47 45 44 43 44 45 42 42 42 43
56 55 55 54 52 51 50 51 52 48 47 42 39 38 41 41 41 41 44 47 53 56 57 57 56 56 55 54 51 48 49 48 45 44 44 44 42 43 44 44 45 44 44
54 55 56 56 54 53 50 53 51 49 46 43 38 38 39 41 42 40 42 45 49 52 52 54 57 57 56 53 54 51 48 48 46 44 42 41 40 43 42 42 42 43 43
55 56 57 56 56 55 53 53 52 50 48 46 40 38 37 37 40 41 42 44 46 48 53 54 56 54 57 55 53 51 51 49 48 47 42 40 39 40 40 40 41 41 41
57 56 58 58 58 57 55 54 52 51 49 47 43 39 38 38 36 37 42 43 44 48 48 55 57 58 58 56 55 52 51 51 48 44 43 39 39 39 39 40 40 41 41
59 58 58 58 59 58 56 54 52 51 50 47 44 40 39 39 38 37 39 43 43 46 48 49 51 51 54 55 53 51 51 50 48 45 39 40 40 40 39 40 40 40 40
57 58 58 58 58 56 55 54 52 51 49 46 41 39 40 40 40 39 38 41 39 44 47 47 47 46 48 53 49 47 47 48 46 41 41 42 42 40 37 37 38 38 39
57 57 58 58 58 56 54 54 52 50 49 44 41 41 37 40 43 42 40 38 38 40 44 44 44 43 41 42 48 49 47 47 44 42 43 43 43 40 38 37 37 37 38
56 57 57 57 56 56 55 54 53 50 50 45 44 44 42 41 40 41 42 41 39 38 39 39 41 39 38 38 44 50 51 49 45 44 44 44 42 41 39 37 36 36 37
55 57 58 57 57 57 55 55 54 52 51 48 47 47 45 45 41 41 42 42 43 40 38 38 37 36 36 38 42 45 47 47 47 45 44 45 44 42 40 38 36 36 37
55 57 58 57 57 57 57 56 54 52 51 51 50 48 47 45 46 45 39 40 42 42 42 40 39 39 36 36 37 40 46 46 46 47 45 45 45 43 41 40 38 37 38
55 57 58 58 58 57 56 56 56 54 53 53 50 49 49 48 46 44 42 41 39 39 37 40 40 40 40 39 38 42 44 45 45 46 47 45 44 44 42 41 39 39 38
54 56 57 57 58 58 58 58 56 56 54 52 49 49 49 48 47 46 44 41 37 37 36 37 36 37 38 40 39 43 44 45 45 45 45 46 44 44 42 41 40 39 38
54 56 57 58 58 56 56 55 55 54 52 50 49 48 49 48 46 44 41 40 37 36 35 35 35 35 35 35 37 41 41 44 44 43 44 45 45 45 42 41 40 38 37
55 55 57 57 55 55 55 53 52 50 49 49 49 48 47 46 44 44 43 41 40 35 36 36 34 33 34 34 35 37 40 42 44 43 42 43 44 44 44 43 40 38 37
57 56 55 55 55 54 54 52 48 48 48 48 47 46 45 45 45 45 44 43 42 40 37 35 34 33 33 32 34 37 38 42 42 42 42 41 42 42 43 42 41 39 37
57 57 56 55 54 53 50 48 47 47 46 45 45 45 44 44 44 44 44 42 41 38 36 36 34 33 31 32 32 33 36 37 38 40 42 41 40 40 40 40 40 40 39
57 57 57 55 53 52 51 49 47 46 45 45 45 44 44 44 43 42 41 40 39 38 35 33 34 33 32 32 33 33 33 32 34 36 39 40 41 40 39 39 39 39 39
58 56 55 54 52 51 49 49 46 46 45 44 44 43 43 43 41 40 40 39 39 38 36 34 35 34 33 33 33 33 33 33 32 35 37 37 39 40 40 39 38 38 38
56 54 54 52 50 49 49 47 46 44 44 44 44 43 43 42 41 40 39 38 36 33 33 31 31 31 31 32 31 30 30 31 31 31 33 33 35 37 39 39 38 38 37
55 53 52 50 49 47 46 44 44 43 43 42 43 42 42 42 41 40 38 35 31 30 29 28 27 27 27 27 27 28 29 30 31 31 30 30 30 30 33 36 38 39 37
52 50 49 47 47 45 40 40 42 43 42 42 41 40 40 40 35 34 34 33 31 27 26 26 26 26 26 27 27 27 29 26 25 29 28 29 28 27 27 29 33 35 34
49 46 46 45 45 44 39 40 39 42 41 40 39 39 36 32 33 31 30 27 27 27 30 26 24 24 24 25 27 27 25 25 24 25 29 27 31 29 29 29 33 33 35
45 45 45 45 44 42 38 38 37 39 38 37 36 35 31 31 29 26 23 21 21 22 22 22 22 23 24 26 27 26 26 27 26 26 28 27 27 28 29 30 33 35 33
44 43 43 42 40 40 37 36 36 35 32 30 29 28 26 25 26 24 23 22 24 25 26 28 29 29 30 30 29 29 27 26 24 23 26 28 28 27 27 26 28 28 31
40 39 38 38 37 37 36 36 34 31 27 26 24 23 25 24 23 23 25 25 24 23 24 24 26 27 27 27 29 28 28 26 25 25 24 27 27 26 25 24 23 24 28

GFSMA_sfc_dewp_060.txt.gz
Dewpoint
56 56 56 54 52 51 50 50 48 46 46 46 49 50 50 51 52 53 55 59 59 58 56 57 57 56 55 54 53 52 50 48 48 48 47 45 45 46 45 43 45 44 45
56 54 54 52 51 50 50 51 48 47 44 42 43 44 45 45 45 46 48 52 57 59 58 56 56 57 56 54 52 52 51 48 46 46 45 46 43 45 46 45 44 43 44
55 54 55 54 53 50 51 52 50 48 44 40 39 41 42 42 42 41 43 45 48 52 54 58 58 57 56 56 53 51 49 49 47 44 43 43 42 44 43 42 41 41 41
55 55 55 54 55 53 52 53 50 48 46 43 40 39 40 42 43 41 42 44 47 46 52 53 56 59 58 55 55 54 52 49 49 48 44 42 42 43 42 40 40 40 40
56 54 55 55 55 55 53 53 52 50 48 47 42 40 39 39 40 40 42 43 45 48 49 53 55 56 58 57 55 54 53 53 51 50 46 43 43 42 41 40 39 40 40
56 56 57 57 57 56 55 54 53 52 50 48 44 41 40 40 39 39 41 43 44 47 47 50 54 55 57 59 57 54 52 52 53 49 47 43 44 43 42 40 37 38 38
58 58 58 58 58 57 56 55 53 51 50 48 44 42 42 41 41 40 39 41 44 45 47 48 49 49 52 56 55 49 47 48 49 48 45 43 44 44 42 38 36 36 37
58 58 58 58 58 57 55 54 52 51 51 47 45 42 40 41 43 42 41 39 41 42 45 47 47 47 45 47 50 50 47 47 48 48 45 44 45 44 42 40 38 36 36
56 57 57 58 57 57 55 54 53 51 50 48 45 47 42 41 41 43 43 41 41 40 40 44 44 45 44 41 44 49 51 51 50 47 45 45 46 45 43 42 39 37 37
54 55 56 56 56 56 55 54 54 52 51 48 46 47 47 46 43 41 43 43 43 40 40 40 40 41 41 40 41 44 47 49 50 49 46 46 47 46 45 43 41 40 38
54 55 56 56 56 56 56 55 53 52 51 50 47 47 47 47 47 46 44 43 43 44 43 41 40 40 39 38 39 40 45 47 48 50 48 46 46 47 46 45 43 42 40
53 54 56 55 56 56 56 56 55 55 54 53 51 50 49 48 47 46 44 43 41 41 39 42 42 42 41 41 39 42 43 44 46 48 49 49 47 45 47 47 45 44 42
52 53 54 55 55 56 57 57 56 56 55 54 53 53 52 50 50 48 46 44 42 40 38 39 39 39 39 41 41 43 44 44 44 46 47 48 48 48 46 45 45 45 43
52 53 54 55 55 56 57 57 57 56 56 54 53 52 51 50 49 47 46 42 39 37 37 38 37 37 38 37 38 40 42 43 43 44 46 46 46 47 46 46 45 44 42
53 53 54 55 55 55 55 56 56 54 53 52 50 49 50 48 47 45 43 42 42 38 37 38 37 36 36 36 36 37 38 39 42 43 44 44 45 45 45 45 45 44 43
54 54 54 54 55 54 54 53 52 50 51 48 49 49 47 46 45 45 44 43 42 41 39 39 36 36 36 34 36 37 36 39 42 42 42 43 43 44 44 44 44 44 43
56 56 56 56 56 55 55 54 52 50 50 48 47 47 46 45 45 45 44 43 42 41 38 38 36 35 35 35 35 35 36 37 38 40 41 41 42 42 42 42 42 43 43
56 56 56 57 57 55 52 52 50 50 49 47 47 46 45 45 44 44 42 41 40 39 38 36 36 36 34 35 35 34 34 34 35 36 39 39 40 40 40 41 41 40 41
56 56 57 56 56 54 53 52 51 50 48 47 46 45 45 44 43 42 41 39 40 38 38 37 37 35 35 34 34 34 34 34 33 35 37 38 38 39 39 39 40 40 40
55 56 57 56 55 53 52 51 49 48 47 47 45 45 44 44 42 40 39 38 37 36 35 33 32 32 32 32 31 30 28 31 31 30 32 34 35 36 37 37 38 39 39
56 56 57 54 52 50 49 48 48 47 45 44 44 44 44 43 41 40 39 37 34 32 30 29 28 28 27 28 27 28 27 26 27 28 29 30 31 31 32 33 34 36 38
57 57 55 53 50 49 43 43 45 45 44 43 43 42 42 40 38 36 35 33 32 29 28 26 26 25 22 24 26 26 26 25 22 26 26 25 27 27 28 30 32 33 34
54 53 51 50 48 47 41 41 40 43 43 42 41 40 36 34 34 32 31 28 25 25 27 25 22 21 23 24 25 25 26 25 25 26 27 25 26 26 27 27 32 34 34
51 49 49 47 46 43 39 39 39 41 40 39 39 35 32 30 30 27 22 20 21 23 24 23 23 24 25 26 27 27 27 26 26 26 28 24 26 26 27 29 32 33 34
47 45 44 44 42 40 39 38 38 36 34 31 30 30 29 27 27 25 21 22 24 25 25 23 24 26 27 27 25 27 24 23 22 21 25 25 26 25 27 28 29 30 32
42 41 40 41 39 38 37 36 35 32 29 27 25 25 27 24 24 26 26 25 22 22 20 18 20 23 22 23 22 24 25 23 22 20 25 25 24 27 25 27 24 26 29

GFSMA_sfc_dewp_063.txt.gz
Dewpoint
57 56 55 52 52 53 54 54 54 53 53 54 54 54 54 55 56 54 55 59 59 58 57 57 56 56 55 53 52 51 50 51 50 48 47 47 47 47 45 46 45 45 45
58 56 54 52 52 52 51 52 52 52 51 52 53 52 52 52 54 56 54 56 59 59 58 57 57 57 56 55 54 53 51 47 49 47 48 46 45 47 46 45 43 43 42
58 57 55 53 54 54 53 51 51 49 47 47 48 48 48 49 48 50 51 54 55 56 57 59 58 58 57 56 54 53 52 49 47 46 45 45 44 46 45 43 41 41 41
57 57 55 55 56 56 53 51 49 47 45 43 43 43 43 44 45 44 43 44 45 45 51 55 58 60 58 57 55 53 52 51 49 48 47 45 45 45 44 42 40 39 40
57 56 54 56 56 56 56 53 52 50 47 44 42 42 43 43 45 40 43 45 47 45 43 51 54 57 59 59 57 56 55 53 52 51 50 46 45 45 44 43 41 38 38
57 57 56 57 57 56 57 55 55 53 50 49 41 41 43 42 42 44 43 43 45 47 47 48 48 47 56 59 58 55 54 54 55 53 50 49 46 46 45 44 40 38 36
57 58 58 58 58 57 57 57 57 54 52 52 48 47 46 45 44 42 42 42 44 45 48 47 48 48 50 58 59 55 52 50 50 54 53 48 47 47 46 45 41 39 38
57 57 58 59 58 58 58 57 56 56 54 52 50 48 48 46 45 44 43 42 44 44 45 47 48 51 50 47 49 55 50 48 48 49 50 49 47 47 47 46 43 41 39
58 59 59 60 60 60 59 59 58 56 55 53 51 52 47 47 46 46 46 43 44 43 45 46 47 48 48 47 47 48 52 52 51 49 48 51 47 48 48 47 44 43 41
58 58 58 59 60 60 59 59 58 58 57 54 51 48 51 50 47 48 45 46 46 44 43 43 43 46 46 45 47 45 46 47 50 50 49 47 47 48 48 48 46 45 43
56 56 57 58 59 59 60 60 59 58 57 56 54 51 51 49 51 50 49 49 47 46 45 43 43 43 44 44 44 45 45 45 47 48 49 49 48 47 48 49 48 47 45
56 57 56 58 59 59 59 59 60 59 58 57 56 55 53 50 50 49 48 49 47 48 45 45 46 44 44 42 42 43 43 44 45 46 46 47 47 48 47 47 48 49 48
55 55 56 58 58 58 59 59 59 59 59 58 56 54 52 53 54 50 49 48 47 47 44 42 42 44 42 44 44 44 45 44 44 45 45 46 47 46 47 47 46 46 47
54 55 55 56 57 58 58 59 59 59 59 56 55 56 56 56 56 52 50 47 43 43 41 42 40 40 40 41 41 40 42 42 43 43 44 45 45 46 47 47 47 47 45
54 54 55 55 56 57 58 59 59 59 59 58 58 59 57 56 55 52 49 49 48 44 41 42 42 41 40 39 39 41 40 41 40 42 42 43 44 45 45 46 47 47 47
53 54 54 55 55 56 57 58 58 58 57 58 57 56 55 54 52 50 48 47 46 47 45 42 40 40 40 36 39 40 40 38 40 41 41 42 42 43 43 44 44 45 45
54 54 54 54 54 55 57 57 57 57 56 56 54 53 53 51 50 49 48 47 45 43 42 40 39 38 39 39 39 40 39 39 37 39 40 40 40 41 41 42 42 42 43
54 54 54 54 54 56 56 56 56 54 53 52 51 51 51 49 48 48 45 43 44 43 40 40 39 38 38 40 40 38 34 31 34 35 38 38 38 39 39 39 40 40 40
54 54 54 55 55 54 56 56 55 54 53 53 51 50 50 48 47 45 44 42 42 40 41 39 38 38 38 37 35 34 33 32 26 31 32 34 35 37 36 36 37 37 38
53 54 55 55 55 56 56 55 54 53 52 51 50 49 48 47 45 44 43 41 41 38 38 38 35 34 34 34 32 29 23 22 22 20 26 29 32 33 34 34 34 34 34
53 53 54 55 57 57 56 55 54 53 51 49 48 47 46 45 43 42 42 39 38 36 33 32 31 31 30 28 24 19 21 22 24 25 23 24 24 25 26 29 30 31 32
54 55 55 56 56 55 47 47 51 51 49 47 45 45 44 42 40 38 38 37 36 32 31 30 29 26 24 20 21 23 24 22 19 25 25 24 25 25 25 26 30 31 33
56 56 56 57 56 55 45 45 44 49 47 45 43 42 39 37 36 34 33 31 30 29 29 27 22 19 20 23 26 25 23 23 22 23 24 23 24 23 24 23 31 32 33
56 56 56 53 53 49 43 41 40 45 43 43 41 39 36 34 33 30 25 21 21 22 24 22 24 25 26 27 27 25 25 24 23 23 24 22 22 22 24 26 30 32 32
50 48 48 47 46 42 39 39 40 38 36 35 34 34 33 31 31 29 24 23 22 24 25 23 22 23 24 24 24 23 22 20 22 16 19 20 22 23 23 25 28 31 31
44 43 42 43 40 39 37 37 37 34 31 30 30 29 29 29 29 27 25 23 21 22 19 17 19 19 21 21 21 20 21 22 21 18 23 22 16 19 20 22 26 28 29

GFSMA_sfc_dewp_066.txt.gz
Dewpoint
59 57 57 57 56 56 56 55 54 53 52 52 51 50 51 52 53 51 54 60 59 58 57 57 56 55 55 54 53 52 52 50 49 48 48 48 48 46 47 46 46 44 44
59 55 55 53 54 56 55 54 53 51 50 50 51 50 50 51 52 53 52 55 59 59 59 58 57 56 56 55 53 52 51 52 50 49 47 47 48 47 47 44 44 42 41
58 57 53 53 53 53 54 53 53 51 49 48 50 49 48 50 50 51 51 53 55 59 59 60 59 58 57 56 55 54 52 50 50 49 49 48 47 47 46 44 42 40 40
58 57 55 52 53 53 52 51 51 50 49 48 47 46 45 45 46 48 47 50 51 51 56 58 60 60 59 57 56 55 55 52 50 49 48 48 47 48 47 44 43 40 39
58 56 54 54 57 53 52 51 50 51 49 47 45 44 44 42 44 41 43 46 47 45 46 56 57 59 60 59 57 56 55 54 53 52 51 49 48 48 47 46 44 42 40
55 54 53 55 56 55 54 52 54 53 51 49 42 43 45 44 44 43 43 43 44 46 46 46 47 50 58 60 59 58 57 57 55 54 53 52 49 48 48 47 45 43 41
57 57 55 56 56 55 56 57 56 55 53 54 49 48 47 47 47 44 44 44 44 46 47 47 46 45 46 57 59 58 56 54 54 56 55 54 52 50 49 48 47 44 42
57 57 57 55 55 55 57 58 57 55 55 55 52 51 50 50 48 47 45 44 47 44 44 46 47 49 51 48 51 59 56 54 51 50 53 55 54 50 49 49 48 46 43
56 57 58 57 57 57 56 57 57 56 55 56 56 53 49 47 50 50 50 47 47 46 46 47 48 48 49 46 49 52 55 54 53 50 51 53 53 50 50 49 49 47 45
57 56 58 58 59 60 59 58 57 57 59 55 55 53 55 52 47 45 49 50 49 46 48 48 47 47 47 46 49 48 49 50 51 50 50 50 50 51 50 50 50 49 48
58 58 59 59 60 61 60 62 60 59 58 59 54 53 54 53 54 51 47 50 48 49 51 49 47 44 46 47 46 47 47 46 46 47 47 47 48 49 49 50 50 51 50
57 58 58 59 60 59 59 59 59 61 59 59 58 57 55 54 53 53 52 52 52 50 50 51 48 46 45 45 46 46 45 45 45 45 46 46 46 47 48 48 48 49 50
55 56 57 57 57 56 57 58 59 58 58 58 58 58 58 57 55 54 53 54 52 51 49 49 47 48 46 47 46 44 44 44 45 45 45 46 46 46 46 46 47 47 48
54 55 57 57 57 57 56 57 58 57 59 59 59 59 58 58 55 56 53 53 49 49 48 49 47 46 46 44 43 41 42 42 43 43 43 44 44 45 45 45 45 45 45
53 55 57 56 57 55 55 56 57 56 57 60 61 60 59 57 57 57 56 54 52 49 47 49 46 45 43 43 43 43 44 43 41 41 41 42 43 43 43 44 44 44 44
54 55 55 55 54 54 54 55 55 56 57 59 60 59 59 59 59 58 56 54 53 51 49 48 46 46 44 39 41 43 43 40 41 41 41 41 41 41 41 41 41 41 41
54 54 53 53 53 53 54 55 55 55 56 58 59 58 57 57 56 55 54 53 51 50 49 48 44 44 43 42 39 41 42 41 41 41 40 39 39 39 40 40 40 40 39
55 54 54 52 52 52 54 55 55 55 56 57 57 56 54 54 52 53 52 50 49 49 48 47 43 40 41 42 43 42 39 34 35 38 37 37 37 38 38 38 39 38 38
55 55 53 54 54 54 53 54 55 55 56 55 55 55 53 53 52 52 50 48 48 47 44 42 43 41 40 40 38 38 36 36 30 34 31 33 34 34 36 35 36 36 37
53 54 55 54 55 54 53 55 54 55 55 54 54 54 53 53 51 50 47 47 44 42 43 40 39 37 37 36 35 33 31 30 23 15 25 28 31 31 34 34 35 34 34
54 54 54 55 55 55 54 55 53 55 55 55 55 54 53 50 47 48 45 44 43 41 39 38 35 33 33 33 32 30 24 22 23 25 24 25 24 25 26 32 31 33 34
53 53 54 54 55 53 47 46 50 56 55 55 53 52 50 45 44 41 41 40 40 39 36 34 33 32 32 32 29 25 23 22 20 23 25 24 24 23 24 25 30 32 32
54 55 54 53 54 55 46 45 45 55 55 53 50 47 44 44 42 40 36 35 34 34 34 35 32 32 29 26 25 25 24 23 22 22 23 22 24 23 23 18 31 33 33
55 55 55 55 56 55 45 46 44 52 49 48 46 44 42 39 38 36 33 30 28 26 25 22 26 25 25 25 26 25 25 24 23 23 24 22 23 21 21 23 30 33 34
56 57 57 57 56 51 41 40 43 44 41 39 39 39 37 34 34 33 29 27 27 26 27 25 25 26 26 25 24 22 21 21 24 17 19 20 21 22 21 21 23 29 32
54 48 44 45 42 42 38 39 41 38 34 33 33 34 33 33 33 32 31 29 26 23 19 18 21 21 20 21 22 20 19 21 22 20 20 21 18 16 17 20 22 25 26

GFSMA_sfc_dewp_069.txt.gz
Dewpoint
61 61 60 57 56 56 55 53 52 52 51 50 50 52 51 52 53 53 54 60 60 59 57 56 56 55 54 54 53 52 51 51 50 49 50 48 48 47 47 46 45 44 44
60 59 61 58 56 55 54 53 52 51 50 49 50 51 51 52 52 54 53 56 59 59 59 57 56 56 55 55 53 53 52 51 50 49 49 49 48 47 46 44 43 42 41
60 60 59 57 56 56 57 55 53 51 49 48 49 49 49 52 51 53 53 54 56 59 59 60 59 57 57 56 55 54 53 53 52 51 50 49 49 48 47 45 43 41 40
60 60 57 55 59 57 55 53 51 48 48 48 48 47 47 49 51 51 51 53 53 53 58 60 60 60 59 57 56 55 54 52 52 51 51 50 49 49 48 46 44 42 40
59 58 56 56 59 55 55 53 52 51 49 48 46 46 46 45 47 45 48 50 53 52 53 57 59 60 60 59 58 57 57 55 53 52 51 51 50 50 49 48 46 44 42
59 57 56 59 57 54 53 54 54 52 51 50 44 44 46 45 45 45 44 44 46 49 48 52 55 56 59 60 60 58 57 57 56 55 53 53 52 50 50 50 48 46 44
56 57 55 58 59 57 56 58 56 57 53 53 48 47 48 49 49 47 45 45 46 47 50 48 49 49 53 59 60 59 58 58 58 57 56 55 53 52 51 50 49 48 46
54 54 55 56 57 57 59 59 58 57 55 57 51 52 50 49 49 50 49 48 52 46 46 49 50 50 50 50 57 60 59 57 56 56 56 57 57 55 54 51 51 49 48
56 55 56 58 58 57 58 60 60 59 56 57 57 57 52 49 53 53 53 50 52 50 49 49 50 50 51 50 52 53 57 57 58 56 55 55 57 56 54 52 52 51 50
56 56 57 58 59 58 58 59 59 59 59 57 57 56 57 55 51 50 52 53 53 50 52 48 47 49 50 49 50 51 54 54 54 54 52 52 52 52 53 53 52 52 51
58 55 58 59 58 60 60 61 60 60 60 57 56 57 55 53 54 51 47 50 51 51 50 51 49 48 47 47 48 50 48 49 50 51 50 49 48 48 49 50 51 52 52
57 58 58 58 59 59 61 60 59 59 59 60 57 57 55 52 51 53 52 54 55 55 53 53 50 49 50 49 48 49 49 47 47 48 48 47 47 47 48 48 49 49 50
57 57 58 56 56 56 57 59 58 59 58 59 59 57 56 57 56 56 55 55 54 54 53 52 52 53 51 49 48 48 47 45 45 46 47 47 47 46 46 46 46 47 47
55 56 57 56 56 56 57 57 58 57 59 59 59 58 58 57 57 57 57 54 50 53 54 52 52 54 52 51 51 46 45 44 44 45 46 46 46 45 45 44 44 44 45
53 54 55 56 57 56 56 56 55 56 57 58 60 60 58 59 60 59 57 55 52 50 49 51 51 52 52 52 47 45 46 44 44 43 42 43 44 44 44 44 43 43 43
56 55 55 55 55 55 55 55 53 56 57 58 58 59 59 59 59 59 57 57 56 53 50 53 52 50 49 44 45 46 45 45 43 42 41 42 42 43 42 41 41 40 40
57 56 56 56 55 55 55 55 55 55 55 56 57 58 58 59 59 59 59 57 55 54 52 53 49 52 48 47 42 44 44 44 43 42 41 41 40 39 39 39 39 38 37
57 56 56 55 55 54 55 55 55 54 55 55 56 57 57 57 58 58 55 54 54 53 52 50 50 48 47 45 42 43 41 40 42 42 42 41 38 37 36 36 37 38 38
56 55 54 54 54 55 55 55 55 55 55 55 55 56 57 57 55 55 55 54 53 52 53 51 48 44 45 43 43 44 42 43 38 42 38 36 35 34 34 35 37 36 36
56 55 55 54 55 54 53 54 54 55 55 55 55 57 56 56 54 54 53 52 52 50 49 46 44 43 41 40 40 38 37 38 36 30 29 26 31 34 36 35 35 35 35
56 56 56 56 56 55 53 55 54 55 54 54 56 56 55 54 50 52 53 52 50 47 45 43 40 37 38 37 36 36 34 34 34 28 26 28 29 29 31 34 34 36 36
56 56 56 56 56 54 47 45 50 56 54 55 55 55 54 50 49 45 45 45 46 45 44 42 40 39 35 36 35 34 29 28 26 29 28 27 28 28 27 28 32 32 31
57 57 56 56 56 56 46 44 43 54 55 54 54 56 54 52 47 49 40 38 35 37 37 40 37 35 35 36 33 30 29 28 27 27 26 26 26 25 27 22 33 34 33
56 56 57 57 56 55 44 43 43 54 55 55 55 55 52 45 44 41 37 31 30 31 30 30 32 31 32 32 30 28 28 27 27 25 25 23 26 28 27 27 31 33 34
56 56 56 56 56 56 44 42 44 52 45 40 41 41 40 38 37 36 32 31 31 30 32 32 32 31 31 29 27 27 27 22 26 21 25 25 25 25 29 28 26 27 31
56 55 51 47 42 50 41 42 44 40 36 34 34 35 35 35 34 35 34 31 28 27 27 26 25 22 21 24 22 21 20 23 23 22 23 23 21 22 20 25 27 26 26

GFSMA_sfc_dewp_072.txt.gz
Dewpoint
62 62 56 55 55 55 54 52 53 52 52 50 54 53 54 53 54 54 56 59 59 58 57 57 56 56 55 54 53 52 52 52 52 51 50 49 48 48 48 46 46 45 45
61 61 57 54 56 54 54 53 54 53 52 52 53 53 53 53 53 54 55 57 59 59 58 57 57 56 56 55 53 53 52 51 50 50 50 49 48 48 46 45 44 43 43
61 60 60 55 56 55 55 55 54 54 53 50 51 53 53 53 54 54 55 56 57 59 59 59 58 56 56 56 55 54 53 52 52 51 50 50 50 48 47 46 43 42 41
61 59 59 58 56 56 56 56 54 53 52 51 50 50 51 52 53 54 54 55 55 55 59 60 59 59 58 57 56 56 55 54 53 53 51 50 51 50 49 47 46 44 43
59 58 60 60 59 57 58 54 54 53 52 51 50 50 50 50 52 49 53 53 54 54 56 59 60 60 59 59 57 56 56 55 54 54 53 53 52 51 51 49 48 46 44
57 59 59 58 60 57 57 55 54 54 53 52 44 47 49 49 50 50 49 50 53 54 54 55 57 58 59 60 60 58 58 58 56 55 54 53 53 52 52 51 50 49 47
57 58 59 59 58 56 56 57 56 55 55 54 51 50 50 50 49 48 48 48 48 49 49 54 55 56 57 59 60 60 59 58 59 58 56 55 54 55 54 52 52 51 49
57 57 57 57 58 57 57 56 56 56 55 55 51 50 49 49 50 50 49 48 48 48 48 49 52 53 52 55 58 60 60 58 58 59 58 58 58 57 56 53 52 52 51
56 56 56 56 57 57 57 58 58 56 55 55 55 54 50 50 51 50 50 50 49 51 48 48 49 50 50 52 55 58 58 57 59 60 59 59 59 58 57 56 55 54 52
56 55 56 56 56 57 59 59 60 57 57 55 56 57 57 56 51 52 54 52 52 50 50 50 49 50 49 51 52 52 53 55 56 59 59 58 56 57 57 56 55 55 54
57 56 57 58 57 57 59 59 59 58 58 56 55 55 55 55 55 52 49 51 52 52 51 51 50 50 50 50 49 50 50 52 53 56 57 56 55 54 53 52 52 52 53
57 57 58 59 59 60 59 58 58 58 57 56 56 56 55 53 53 53 52 52 52 52 53 52 50 50 49 48 48 48 49 50 51 53 54 54 53 51 50 49 49 49 50
55 57 56 57 56 57 59 59 58 57 57 56 56 55 55 56 56 55 53 52 52 53 53 53 52 51 49 48 48 49 49 47 47 48 50 50 51 50 49 48 49 49 49
55 56 57 56 56 57 57 57 56 57 56 57 56 55 54 55 55 55 53 53 50 51 51 51 53 52 51 52 52 48 47 45 46 46 47 48 49 49 49 48 46 46 45
54 55 56 56 55 54 55 55 55 55 55 55 55 55 55 56 57 57 56 56 53 50 49 50 53 53 53 53 51 50 48 46 44 44 45 46 47 47 47 47 46 45 45
55 55 55 56 55 54 54 54 53 54 55 55 54 55 55 55 57 58 57 57 55 54 51 52 52 54 53 52 51 47 46 46 44 43 44 44 44 45 45 45 45 43 42
56 54 55 54 54 53 53 53 53 53 53 52 54 54 55 57 57 57 57 57 56 55 53 54 53 53 51 51 46 46 46 45 43 42 42 42 42 42 42 41 41 40 40
56 55 54 54 53 53 53 53 53 52 52 51 52 53 54 55 56 57 58 57 57 56 55 53 53 51 51 51 46 44 46 44 43 43 42 42 41 40 39 38 38 37 37
55 55 55 53 53 53 53 53 52 52 52 52 52 52 53 54 54 57 57 56 56 55 55 53 53 49 48 46 45 44 44 44 43 44 43 41 40 39 39 37 35 35 37
55 55 55 54 54 54 53 53 52 53 52 52 53 53 53 53 54 56 56 55 55 54 53 52 52 43 45 43 45 43 42 42 42 41 40 38 38 38 37 35 35 36 36
55 54 55 55 54 54 53 53 53 53 53 53 53 53 53 52 49 53 55 54 53 52 52 51 50 40 41 39 42 42 41 39 41 41 34 30 30 30 32 36 35 36 36
56 55 55 54 54 53 47 44 48 52 52 52 52 53 53 48 49 46 46 46 51 52 50 49 48 44 44 40 37 37 35 34 32 39 35 33 30 28 28 30 33 34 35
56 56 55 55 55 54 46 44 43 52 53 53 53 53 53 53 48 52 44 40 36 35 40 46 44 37 35 37 37 34 32 32 32 35 33 30 28 26 28 23 33 35 35
55 55 55 55 55 54 45 44 42 50 52 53 53 53 53 52 49 46 37 33 33 33 34 34 34 34 34 35 35 34 33 32 32 33 31 27 26 27 28 29 32 33 35
55 55 55 55 55 55 44 43 43 50 52 42 40 40 42 41 39 38 34 33 31 30 33 34 34 34 33 33 33 32 31 30 29 27 29 29 27 26 26 26 28 30 31
55 55 54 46 40 47 39 41 44 43 37 34 34 34 35 35 35 35 34 31 29 28 28 27 27 29 29 29 28 29 29 28 28 25 25 26 23 23 23 24 25 25 24

GFSMA_sfc_dewp_075.txt.gz
Dewpoint
61 60 59 57 56 56 54 52 53 49 49 50 53 53 53 54 55 56 57 59 59 59 58 57 57 56 55 55 55 54 53 52 52 51 51 50 50 49 48 47 47 46 46
60 58 55 54 55 54 51 52 53 50 49 51 52 53 54 54 54 55 56 57 58 57 59 57 57 56 56 55 54 54 53 53 52 51 50 50 49 49 47 46 46 45 44
60 58 54 54 55 54 50 52 54 52 51 52 51 53 54 54 54 54 55 56 56 58 59 59 58 57 56 56 54 54 53 52 52 52 51 50 49 49 47 46 45 44 43
60 59 54 54 56 54 53 54 54 52 51 50 50 51 52 54 54 54 55 55 56 56 58 59 59 59 58 57 56 56 55 54 53 52 52 52 51 50 49 47 46 45 44
59 59 57 57 57 54 56 55 53 52 50 50 50 49 50 53 54 54 54 55 56 56 56 59 59 59 59 59 57 57 56 56 55 54 53 52 52 52 51 50 48 47 45
58 57 60 60 60 57 58 54 52 52 50 50 47 48 49 51 52 53 54 54 54 55 55 56 57 57 59 59 59 58 58 57 56 56 55 55 54 53 53 52 51 50 48
58 58 59 59 60 59 57 54 53 52 52 51 48 48 48 48 49 49 50 53 54 54 55 55 56 57 57 59 60 59 60 59 58 58 56 56 55 56 55 53 53 52 51
57 57 57 58 59 59 58 56 54 55 54 52 48 49 46 47 48 48 48 47 48 50 53 54 55 55 56 57 58 60 60 60 60 59 60 59 57 57 56 56 54 54 53
57 56 57 57 58 58 57 55 55 53 54 54 50 52 50 46 49 50 49 48 46 48 48 48 54 54 55 54 56 58 58 58 60 61 60 60 59 59 58 58 57 55 54
57 56 56 56 56 55 55 57 57 55 56 54 55 57 55 54 50 48 53 50 50 48 49 48 48 50 52 52 53 54 54 55 57 59 60 60 60 60 59 59 58 57 57
57 56 56 56 56 57 57 58 57 57 57 55 53 54 53 54 54 51 48 51 52 51 50 49 49 48 48 49 50 52 52 53 55 57 59 60 60 59 59 59 59 58 57
57 56 57 56 56 56 58 58 58 57 57 56 55 55 53 52 51 51 49 50 50 51 52 51 50 50 49 49 50 50 50 49 51 54 57 58 59 58 57 57 56 54 54
56 56 56 57 57 56 57 58 58 57 57 56 55 55 55 55 55 55 54 52 52 52 52 52 51 50 50 49 49 49 49 47 47 50 53 55 56 56 56 56 54 52 50
55 57 56 58 57 57 58 58 58 57 57 57 56 55 54 54 55 55 53 52 49 50 51 51 52 52 51 50 49 48 48 46 46 47 50 52 53 53 52 52 52 52 50
54 55 56 56 57 56 56 57 57 56 56 56 56 55 55 54 55 55 55 54 51 48 48 50 51 53 53 52 51 51 50 48 46 46 46 48 49 49 49 50 50 49 48
53 55 56 56 56 55 55 55 54 54 55 55 55 55 54 54 55 56 55 55 55 52 50 51 51 52 53 53 52 52 52 49 46 45 44 45 46 47 48 47 47 47 47
52 54 55 56 56 55 54 53 53 53 53 53 54 55 54 54 54 55 55 55 55 55 52 52 54 54 52 53 53 52 52 50 48 44 44 44 44 45 44 44 45 45 45
54 54 54 54 55 55 54 52 52 51 52 52 53 54 53 54 54 55 55 55 55 55 54 52 53 53 51 52 53 49 48 47 46 44 44 44 43 42 42 42 42 41 41
55 55 54 54 54 54 53 52 52 52 52 53 53 52 52 53 54 55 55 55 56 55 55 55 54 54 53 48 49 48 48 48 46 45 43 42 41 41 41 41 40 39 38
54 55 55 54 54 54 53 52 52 52 52 52 52 52 52 51 52 53 54 55 55 56 56 55 54 53 50 48 50 50 45 46 46 44 44 41 42 42 41 40 39 37 36
55 55 55 55 54 53 53 53 52 52 52 52 52 52 52 51 48 50 53 54 55 55 55 54 52 52 46 40 44 47 47 46 42 43 41 41 40 39 39 39 36 37 37
55 55 55 54 54 54 48 45 49 52 52 51 51 52 52 48 48 44 44 46 52 55 54 53 52 51 50 47 45 41 36 36 35 39 37 36 39 37 38 39 37 37 36
55 55 55 55 54 54 46 44 43 52 53 53 53 52 52 52 48 52 43 39 36 36 39 49 51 50 43 37 37 34 34 34 33 33 34 32 36 34 37 36 35 35 36
56 55 55 55 55 54 45 44 41 49 52 52 52 52 52 52 51 49 40 34 33 34 34 36 37 35 35 36 36 35 34 32 32 34 34 30 33 32 34 33 34 35 35
55 55 55 55 55 55 45 44 44 51 51 52 43 41 45 47 43 41 36 32 31 31 34 34 34 34 34 34 35 34 32 31 29 30 32 31 31 30 30 29 30 32 28
55 55 54 48 40 49 39 41 42 49 45 37 35 35 36 38 36 36 34 32 28 28 28 29 29 29 29 30 32 32 31 29 29 28 29 27 25 25 23 25 25 25 25

GFSMA_sfc_dewp_078.txt.gz
Dewpoint
62 61 60 60 58 57 55 53 52 51 51 53 53 53 54 55 55 56 57 60 60 59 58 58 57 57 57 56 55 55 54 54 53 52 52 51 50 50 49 48 48 48 48
61 60 59 57 56 55 53 52 52 49 50 52 53 53 54 55 55 55 56 57 59 59 59 58 57 57 57 56 55 54 54 53 52 52 51 50 50 49 48 47 46 46 46
59 59 56 55 55 53 51 52 52 50 49 52 53 54 54 54 55 55 55 55 57 58 59 58 58 57 57 56 55 55 54 53 52 52 51 50 50 49 48 47 46 45 44
58 55 53 54 53 51 51 53 53 50 50 51 53 53 53 54 54 55 55 55 55 55 58 59 59 58 57 56 55 55 55 54 53 53 52 51 50 50 49 48 46 45 45
57 53 51 54 53 50 51 53 53 51 50 50 52 53 54 54 54 54 54 55 55 55 56 58 59 59 59 58 57 57 56 55 54 54 53 53 53 52 51 50 49 48 46
57 53 55 58 54 52 54 54 53 52 50 50 48 50 53 54 54 54 54 54 55 55 56 56 57 57 58 59 59 58 57 57 56 56 55 54 54 54 53 53 51 50 49
58 56 54 59 57 56 55 54 52 50 51 50 48 48 48 52 53 54 54 54 54 55 55 55 56 56 56 59 60 59 59 59 59 58 57 56 56 56 55 54 54 53 52
57 57 55 58 58 57 56 54 52 53 52 50 48 47 45 47 49 49 52 53 53 54 54 55 55 56 56 56 57 60 60 60 60 60 59 59 58 58 57 57 55 55 54
57 57 58 58 58 57 56 54 53 52 52 51 48 50 48 44 48 49 48 49 50 52 53 54 54 55 56 56 57 57 57 58 60 61 61 60 59 59 58 58 58 57 55
57 57 57 58 58 57 57 57 56 53 53 51 52 55 54 53 48 49 52 49 48 47 48 50 53 54 54 55 56 55 54 55 57 60 61 61 60 60 59 58 58 58 58
57 57 57 57 57 57 57 57 57 55 55 54 49 54 54 54 52 49 47 50 51 50 48 48 48 49 53 54 54 53 53 52 54 57 59 60 60 60 60 60 59 59 59
57 57 57 57 57 57 55 57 58 56 55 55 54 54 53 52 51 50 48 49 49 51 51 50 49 49 48 49 51 51 50 50 52 54 57 58 59 60 60 60 60 60 60
56 56 56 56 56 57 56 56 57 56 55 54 55 55 54 53 53 53 51 50 50 52 51 52 51 50 49 50 49 49 50 48 49 52 54 56 57 58 58 59 59 59 59
55 56 56 56 55 56 57 57 57 57 57 56 54 54 55 55 55 54 53 52 50 51 52 52 53 52 51 50 50 49 49 47 47 48 50 51 53 54 55 56 57 57 57
54 57 56 56 56 56 56 57 57 56 57 56 55 55 55 55 55 55 55 54 51 48 48 49 51 53 53 53 51 50 49 48 47 46 46 47 49 50 52 54 55 55 54
53 55 56 56 57 57 57 57 56 56 56 56 55 55 55 54 55 55 55 54 54 51 49 49 50 52 53 53 52 51 51 49 47 46 45 45 47 49 50 51 51 51 51
53 54 55 56 55 56 56 56 55 55 55 55 55 54 54 54 54 54 54 54 54 53 51 50 52 53 51 52 52 52 53 52 52 48 46 45 45 46 48 48 48 48 48
51 53 54 55 55 55 55 55 54 54 54 54 54 54 53 53 53 53 54 53 53 53 52 50 51 52 51 53 53 52 53 53 53 49 46 45 45 44 45 45 45 45 45
52 51 52 53 54 55 55 54 53 53 52 52 52 52 52 53 53 53 53 53 53 53 53 53 52 53 53 52 52 51 53 52 51 48 44 44 44 44 44 44 43 43 42
55 54 53 53 53 53 54 54 53 53 52 51 51 52 52 52 52 52 52 53 53 53 53 53 53 53 54 53 51 52 50 50 50 50 46 44 43 44 43 42 41 41 40
54 54 55 55 54 54 53 53 53 53 52 51 51 52 52 51 48 50 52 52 53 52 52 52 53 53 53 45 47 51 49 51 42 43 43 42 42 42 42 41 40 38 38
55 55 54 54 55 54 48 46 50 53 52 51 51 51 51 48 47 44 44 44 49 51 52 52 52 52 52 53 51 50 50 38 39 39 38 36 38 37 38 38 38 37 37
55 55 55 55 54 54 46 44 43 52 52 52 52 52 51 51 47 51 45 42 42 39 41 51 52 53 52 53 51 38 36 35 33 35 35 32 36 35 38 38 38 37 37
55 55 55 55 55 55 45 44 42 50 52 53 53 53 52 52 51 51 50 45 41 35 36 37 40 40 36 38 39 38 36 32 32 33 34 31 33 32 35 35 35 36 36
55 56 56 55 55 55 44 44 44 52 52 53 53 53 52 52 49 45 47 38 32 32 34 35 34 34 34 34 36 35 33 33 29 30 32 31 31 31 32 32 35 36 33
52 55 46 38 35 38 35 36 39 50 51 50 41 37 35 38 39 39 48 37 31 29 30 29 29 30 30 31 31 31 32 29 29 27 27 28 28 28 25 26 29 28 26

GFSMA_sfc_dewp_081.txt.gz
Dewpoint
62 64 62 62 61 59 57 54 52 52 53 53 54 54 54 55 56 57 57 60 60 60 59 59 59 58 57 57 56 56 55 55 55 54 53 52 51 51 50 49 50 50 50
63 62 61 60 59 58 55 53 51 52 53 53 54 54 54 55 56 56 57 57 59 59 59 58 58 58 57 57 56 55 55 54 54 53 52 51 51 50 49 49 48 48 49
63 61 60 58 57 55 52 52 50 50 53 53 53 54 55 55 55 55 56 57 57 59 59 59 58 57 57 57 56 55 55 54 54 53 52 52 50 50 49 48 48 47 46
62 60 59 57 56 53 52 51 50 49 53 53 53 54 54 55 55 55 55 55 56 56 58 59 59 59 57 57 56 56 55 54 53 53 52 52 51 50 49 48 48 47 46
60 58 56 54 54 51 51 52 51 49 52 53 53 53 54 54 54 54 54 54 54 55 56 59 59 58 58 57 57 57 56 55 55 54 53 52 52 52 50 50 48 48 47
57 55 54 53 52 49 52 53 50 50 51 52 52 53 53 54 54 54 54 54 54 55 55 56 57 57 58 59 57 57 57 57 56 55 55 55 54 53 53 52 51 50 49
55 52 53 53 52 50 52 53 52 50 50 51 50 49 50 53 53 53 54 54 54 55 55 55 56 56 56 59 60 59 58 58 59 57 56 56 55 56 56 55 54 53 52
54 52 54 51 52 52 54 54 52 50 50 50 49 48 47 48 50 52 54 54 54 54 55 55 55 56 56 56 57 60 59 59 60 60 60 59 58 58 57 57 56 55 55
57 52 54 53 54 54 54 54 52 50 50 50 49 49 46 45 49 49 50 53 53 53 54 54 55 55 56 55 56 57 57 58 60 61 61 60 60 59 59 59 58 58 57
58 57 56 58 55 55 55 55 54 51 53 49 50 53 51 50 47 47 51 49 52 52 53 53 54 54 55 56 56 55 54 54 56 59 61 62 61 61 60 60 59 59 59
59 58 58 58 58 57 57 56 55 54 53 51 49 53 53 53 51 50 48 50 49 48 50 52 53 53 54 55 55 55 53 53 54 57 59 60 61 61 61 61 60 60 59
58 58 58 58 58 57 57 57 57 55 55 53 50 53 52 52 51 50 49 48 49 50 50 48 48 49 51 53 54 53 52 51 52 54 57 58 59 60 60 60 61 61 60
57 57 57 57 57 57 57 57 57 57 56 54 52 51 53 53 53 52 50 50 49 50 51 52 51 49 48 49 49 51 52 49 50 52 53 55 56 57 58 59 59 60 61
55 56 56 56 57 57 56 56 57 57 56 55 54 53 53 53 54 53 52 51 48 48 50 50 52 52 51 50 50 49 49 47 48 48 50 52 53 54 55 56 57 58 58
55 55 56 56 56 56 56 56 55 56 56 56 55 55 55 55 55 55 55 54 51 48 47 49 51 53 53 53 51 51 50 49 47 47 47 48 50 51 52 53 54 55 56
54 55 56 55 56 56 56 56 56 55 56 55 55 55 54 54 55 55 55 54 54 52 50 50 49 51 53 52 52 52 51 49 47 46 45 46 46 48 49 50 51 52 53
53 55 56 56 56 56 55 55 55 55 55 54 55 55 54 54 54 54 55 53 53 53 51 51 51 52 51 52 52 53 53 52 52 47 46 45 45 45 46 46 47 49 50
52 54 54 56 56 56 56 55 55 54 55 54 54 54 54 54 54 53 53 52 53 53 52 50 51 52 51 52 52 52 52 52 52 50 48 46 46 45 44 45 45 46 48
50 52 53 54 55 55 55 55 55 55 55 55 54 54 54 54 53 53 53 53 53 53 53 52 51 52 52 50 51 51 52 53 53 51 47 46 46 46 45 44 45 45 46
52 51 51 52 53 54 55 55 54 54 54 54 54 54 54 53 53 53 53 53 53 52 52 52 52 51 52 52 52 53 52 52 52 53 50 48 46 44 44 44 44 44 43
55 54 53 52 52 52 52 53 54 53 53 53 52 52 52 51 48 50 52 51 52 51 51 51 51 51 51 51 49 52 52 52 52 51 49 43 44 44 44 43 43 42 40
55 55 55 55 53 52 47 44 48 52 53 52 52 52 52 47 47 43 43 44 48 51 50 50 50 50 50 50 51 52 51 51 48 41 41 37 39 39 40 40 39 39 38
55 55 54 54 54 55 46 45 44 52 53 53 53 52 52 52 47 51 46 42 42 42 44 50 50 50 50 51 52 52 51 51 50 37 36 33 36 36 39 38 38 38 37
54 55 55 55 55 54 42 44 43 51 53 53 53 53 53 52 52 51 50 50 48 48 44 43 46 47 43 40 43 43 39 33 33 33 34 32 32 32 34 35 36 36 36
53 55 55 55 52 43 36 36 38 49 52 53 53 54 46 49 47 44 49 49 41 32 34 34 34 34 34 34 36 36 33 34 31 29 28 31 30 31 31 32 34 35 35
42 40 34 33 34 33 34 35 36 42 48 49 38 35 34 34 34 35 39 46 36 29 30 30 29 29 29 30 30 30 32 30 29 25 26 27 27 27 26 29 28 28 29

GFSMA_sfc_dewp_084.txt.gz
Dewpoint
62 62 63 63 63 60 57 55 55 56 55 55 55 55 55 56 56 57 58 60 60 60 60 60 59 58 58 57 57 56 56 56 56 55 55 54 54 53 52 52 53 52 52
63 62 63 62 61 59 55 53 54 54 54 54 54 55 55 56 57 57 57 58 59 60 58 58 58 58 58 57 57 56 56 55 55 55 54 53 52 52 51 51 51 51 50
62 63 62 61 60 59 54 52 52 53 54 54 54 55 55 56 56 56 57 57 58 59 59 60 59 58 57 57 56 56 56 55 55 54 53 52 52 51 50 50 49 49 49
62 62 61 60 59 57 53 52 52 53 53 54 54 54 55 55 56 56 56 57 57 57 58 59 59 59 57 57 57 56 56 55 55 54 53 53 52 51 50 50 49 48 48
63 62 61 59 56 55 54 51 51 53 53 53 53 54 54 54 55 55 55 55 56 56 56 58 58 58 59 58 57 56 56 55 55 54 54 53 52 51 51 50 49 49 48
62 61 59 57 56 54 53 51 50 52 53 53 53 53 53 54 54 54 54 55 55 55 56 57 57 57 58 59 57 57 57 57 56 55 54 54 53 53 52 51 51 50 49
62 59 56 55 54 54 52 51 50 52 52 53 52 51 51 53 53 54 54 54 54 55 55 56 57 57 57 59 59 58 57 58 57 56 56 55 56 56 55 54 53 52 52
58 56 54 53 52 52 52 52 50 50 51 53 51 50 48 50 52 53 54 54 54 55 55 55 56 56 56 57 58 59 59 59 60 59 59 58 58 58 58 57 56 55 55
56 55 54 52 50 51 51 52 50 50 51 51 52 50 48 48 50 51 53 54 54 54 54 55 55 55 56 56 57 57 57 58 60 61 61 60 59 59 59 59 58 58 58
55 55 53 51 51 51 51 53 51 50 52 50 51 52 51 50 49 47 51 52 54 53 54 54 54 55 55 56 56 55 54 54 56 59 61 62 61 61 60 60 59 59 59
56 56 57 54 53 54 55 55 54 54 53 51 50 52 52 52 51 48 47 50 50 52 53 54 54 54 55 55 55 55 53 52 53 57 59 60 61 61 61 61 61 60 60
58 57 57 57 57 56 56 55 55 54 53 52 50 52 52 51 50 50 49 49 49 50 50 52 53 53 54 54 55 53 53 52 52 54 56 58 59 60 60 61 61 61 61
57 58 57 56 58 57 57 56 56 55 54 53 52 51 53 52 53 52 50 50 49 51 51 51 49 50 50 52 53 53 53 50 51 52 54 55 56 57 59 59 60 60 60
58 58 58 58 57 57 57 57 57 56 55 55 53 52 53 53 53 53 51 50 49 49 51 51 53 52 51 50 50 49 51 49 49 50 51 52 53 54 55 56 57 58 58
57 58 58 58 58 58 57 57 56 56 56 56 55 55 54 54 55 54 54 53 50 48 48 50 51 53 53 53 51 51 50 48 47 47 47 48 50 52 52 53 54 54 55
56 56 57 57 57 57 57 55 55 55 56 56 56 55 55 55 55 55 55 54 54 52 49 49 50 52 53 53 53 52 52 50 48 46 46 46 47 48 49 50 51 51 52
54 55 56 56 56 56 56 55 55 55 55 54 55 55 55 55 55 55 55 55 54 54 51 51 51 53 52 53 52 53 53 52 52 47 46 45 45 45 46 47 47 48 50
53 54 55 55 56 55 55 56 56 56 55 55 55 54 54 54 55 55 55 54 54 53 52 50 50 50 52 53 52 53 51 51 52 50 47 46 46 45 44 45 45 45 46
52 53 54 55 55 55 55 55 55 55 55 55 55 55 54 55 54 54 54 53 53 53 52 51 50 51 52 53 52 52 52 53 52 50 47 46 46 46 46 45 45 45 45
51 52 53 54 54 54 55 55 55 55 55 55 55 55 54 54 54 53 53 53 53 53 52 52 52 52 52 53 52 51 51 52 52 53 51 50 48 47 46 45 44 44 44
52 51 51 52 53 53 54 54 54 54 54 54 54 54 54 53 50 51 53 53 53 52 52 52 51 51 51 51 51 51 51 52 52 53 52 53 52 51 49 44 45 44 44
54 54 53 52 52 51 46 44 50 54 54 54 53 53 53 48 48 44 45 46 49 52 51 51 50 50 50 50 51 51 51 50 49 51 51 50 42 41 42 43 43 42 41
55 54 54 54 54 54 43 43 43 51 52 53 53 53 52 52 48 51 46 42 42 42 44 51 50 50 50 51 51 50 50 50 50 41 37 34 36 36 38 38 39 39 39
55 55 55 55 55 39 36 36 37 47 52 52 53 53 53 53 52 51 51 50 49 46 38 41 43 40 35 34 38 42 40 33 34 32 33 32 32 31 33 33 35 35 35
44 39 38 39 39 35 35 35 36 43 49 52 51 37 36 38 37 38 42 46 41 32 32 33 33 32 31 32 33 37 34 36 32 27 28 31 29 30 29 29 32 34 33
35 34 32 32 32 32 34 35 36 41 41 36 33 33 33 34 34 36 38 39 33 30 29 29 29 29 29 29 29 29 30 29 28 25 27 27 27 28 26 29 28 28 28

GFSMA_sfc_dewp_087.txt.gz
Dewpoint
62 63 64 64 64 62 62 63 60 60 60 59 59 58 58 57 57 55 55 60 60 60 59 60 60 60 59 58 58 57 57 56 56 56 56 55 55 55 54 54 54 53 52
63 64 65 63 63 61 62 61 59 59 58 58 58 57 57 57 57 57 56 57 59 60 61 60 60 59 59 58 57 57 56 56 56 56 55 55 54 54 53 54 53 53 51
63 64 63 63 62 60 59 59 59 58 57 56 57 57 56 57 57 57 57 56 57 59 60 61 60 58 58 57 56 57 56 56 56 55 55 54 53 52 51 52 52 52 51
63 63 62 62 62 60 58 57 56 56 56 55 55 55 55 56 57 57 57 57 56 55 58 59 60 59 59 57 57 57 56 56 56 55 54 53 53 52 51 51 51 51 51
63 63 62 62 60 58 58 56 56 56 55 55 54 55 55 55 56 55 57 57 57 56 55 58 58 58 58 58 57 57 57 56 56 55 54 54 53 53 52 51 51 50 50
63 62 62 60 60 59 56 55 56 56 56 55 52 54 55 55 56 56 56 56 57 57 57 56 56 55 58 59 58 57 57 57 56 56 55 55 54 53 52 52 51 51 50
62 62 60 59 59 59 56 56 56 56 55 55 54 54 55 56 56 55 56 56 56 56 57 56 56 54 55 58 59 58 58 58 57 57 56 55 55 56 55 54 53 52 52
62 61 59 58 58 59 57 55 56 55 55 55 53 52 51 53 54 55 55 55 56 55 56 56 56 56 56 55 56 59 59 59 59 58 58 59 58 58 57 56 56 55 54
62 60 59 59 59 57 55 55 56 55 53 55 55 52 52 50 52 53 55 55 55 55 55 56 56 57 57 56 56 57 57 57 60 61 61 60 59 59 59 59 59 58 58
60 58 59 58 56 56 56 55 54 54 56 54 55 53 55 54 51 52 53 54 55 55 56 55 55 56 56 56 56 55 54 54 56 59 61 62 61 61 60 60 60 59 59
57 57 57 55 54 55 56 55 54 56 57 55 53 54 53 54 54 52 50 51 53 54 54 55 55 55 56 56 57 56 53 52 53 56 59 60 60 61 62 61 61 60 60
57 55 54 54 54 55 56 56 56 56 57 56 55 55 53 51 50 52 51 52 53 53 54 55 56 55 55 56 56 53 53 51 52 54 56 58 59 60 60 61 61 62 62
56 57 56 56 56 57 56 56 57 55 55 55 55 54 54 54 54 52 52 51 51 52 52 53 55 55 54 56 56 53 53 50 51 52 54 55 56 57 59 59 60 60 61
56 56 56 56 57 57 57 57 56 56 56 57 56 56 55 54 54 53 52 53 51 52 52 53 53 53 52 53 53 50 53 50 49 50 51 52 53 54 55 56 57 58 59
58 57 56 55 55 54 55 57 56 55 56 57 57 56 55 55 57 54 54 54 51 49 48 52 53 54 54 54 53 54 54 50 48 48 48 50 51 52 52 53 54 55 56
58 58 58 56 56 55 53 54 55 57 55 55 56 55 55 55 56 57 55 55 55 53 50 50 52 54 55 54 53 54 54 51 48 46 46 46 48 49 49 50 51 52 53
57 58 57 57 57 56 54 53 52 55 56 55 56 56 55 56 56 56 56 56 56 55 53 52 53 53 54 54 53 54 53 53 53 47 46 46 45 45 46 47 48 48 50
57 57 58 57 57 57 57 56 53 53 55 55 55 55 55 55 55 56 55 55 55 54 53 53 53 54 55 55 56 55 52 51 53 50 47 46 46 45 45 45 45 45 46
56 56 57 57 57 56 56 56 56 55 55 55 55 55 55 55 55 56 56 55 55 54 55 54 53 54 54 55 54 55 55 56 53 50 47 46 46 46 46 45 45 45 45
55 55 56 56 57 57 56 56 56 56 56 56 56 57 56 56 56 56 55 55 54 54 54 53 53 52 53 54 55 55 55 56 55 53 51 49 48 48 46 46 45 45 45
54 54 55 55 56 56 55 56 56 56 56 55 56 56 57 55 50 53 55 56 56 55 54 54 53 53 53 53 53 54 53 53 55 55 54 55 55 55 53 46 48 45 44
55 54 53 54 54 53 47 46 52 55 55 55 55 56 56 50 50 45 45 46 51 54 53 53 52 51 51 51 52 52 51 51 50 54 53 53 42 39 39 40 39 40 40
57 56 55 54 53 48 37 39 41 54 55 55 55 54 54 54 50 54 48 43 43 42 43 50 51 52 51 50 48 51 51 52 50 38 39 36 35 32 34 35 36 37 36
45 46 44 47 40 35 35 36 36 47 50 52 48 42 43 44 39 40 44 49 45 34 35 37 35 34 33 34 37 39 39 34 34 33 33 33 32 30 32 33 34 34 34
37 36 35 36 35 33 35 35 38 45 46 38 35 34 34 35 34 35 39 40 32 31 33 33 32 31 31 30 31 37 35 35 34 30 29 32 30 29 29 28 31 32 32
33 32 31 32 32 32 33 35 37 42 37 33 32 31 32 33 33 34 37 38 33 31 32 30 28 28 28 28 28 29 30 32 30 26 27 28 29 31 28 30 30 30 30

GFSMA_sfc_dewp_093.txt.gz
Dewpoint
67 65 64 62 66 66 64 64 64 64 64 63 63 61 60 59 58 57 58 62 62 63 61 59 59 60 58 59 59 59 57 57 57 57 56 57 56 56 57 56 55 55 54
66 64 63 63 63 64 64 64 64 63 63 62 62 60 59 57 54 53 55 58 61 62 61 60 59 60 60 60 60 58 57 56 56 56 56 56 56 56 56 56 55 54 53
66 64 64 64 65 64 65 64 63 63 63 62 59 58 55 54 53 52 54 56 59 60 60 61 62 60 60 60 59 58 57 57 57 56 56 56 56 55 55 55 55 54 52
65 64 64 65 65 64 64 63 62 62 61 60 57 56 53 53 53 53 54 55 56 55 59 61 62 62 61 60 58 56 57 57 57 56 56 56 56 55 55 55 55 54 53
64 64 65 64 64 63 63 63 62 61 60 59 56 55 54 50 52 50 54 55 56 56 56 60 60 60 60 61 59 57 57 57 57 57 57 56 55 55 54 53 54 54 54
64 64 64 63 64 62 62 62 61 61 60 57 52 53 53 51 51 51 52 54 55 57 57 57 58 57 59 60 60 58 57 58 57 57 57 57 55 55 55 54 53 53 53
63 63 62 63 63 61 61 61 61 60 59 58 55 56 58 58 55 50 51 51 52 55 55 56 55 54 56 59 60 59 58 58 57 57 57 57 57 57 57 56 55 54 54
63 62 62 62 61 60 60 60 60 59 59 58 54 53 53 55 55 52 50 51 55 51 52 54 54 53 53 54 56 59 58 59 59 58 59 59 59 58 58 57 56 55 55
63 63 62 62 60 60 60 60 60 59 58 58 57 52 51 49 53 53 54 50 55 52 52 52 53 52 54 54 55 56 57 57 60 61 61 60 60 60 59 59 59 58 58
62 62 62 61 60 60 60 60 60 59 58 56 57 54 54 50 50 51 53 52 51 52 55 52 53 53 53 54 55 54 54 54 56 60 61 62 61 60 60 60 60 60 59
61 62 61 61 60 60 60 60 60 60 59 57 55 55 55 52 54 50 49 51 51 51 52 55 53 54 55 55 56 56 52 52 53 56 59 60 62 62 62 61 61 61 61
61 61 61 60 60 60 60 60 60 59 59 59 57 56 54 52 50 50 48 51 51 51 52 54 57 55 55 56 55 53 52 51 52 54 56 58 59 60 60 61 62 62 62
59 60 60 60 60 60 60 60 60 60 60 59 59 56 56 55 53 50 47 50 49 50 52 55 56 57 55 57 57 53 53 50 50 52 54 55 56 57 58 59 59 60 60
58 59 60 60 60 60 60 60 60 60 60 60 58 58 57 57 55 52 48 47 48 46 47 52 56 57 57 58 57 52 56 50 50 50 51 53 54 54 55 56 57 58 59
57 57 58 59 59 59 59 59 58 58 59 59 59 59 58 56 57 55 54 50 50 46 45 54 52 57 57 58 56 58 58 53 49 49 49 50 51 52 53 53 54 55 55
57 56 57 57 58 59 59 58 57 58 58 59 58 58 57 56 57 57 54 56 55 51 47 48 52 57 57 53 54 57 58 52 49 47 47 47 48 50 50 51 51 52 53
57 56 57 57 57 57 58 58 58 57 56 56 56 56 56 56 56 57 59 57 56 56 52 52 53 55 56 58 56 56 56 57 56 48 47 47 46 46 46 47 48 49 50
56 56 56 55 55 54 54 53 53 53 53 54 55 55 55 54 55 56 58 57 57 56 55 53 53 53 53 54 55 58 56 53 54 50 48 47 46 45 45 45 45 46 46
57 56 55 55 53 53 53 53 52 52 53 52 52 53 52 54 55 55 56 55 56 54 54 53 52 54 55 55 55 56 56 57 55 51 48 46 46 46 45 44 44 44 44
58 58 57 57 56 55 54 53 53 52 52 52 53 53 52 54 54 55 55 55 54 53 53 53 53 53 54 56 55 55 55 56 56 54 52 44 44 41 41 41 41 42 42
58 58 58 58 58 57 56 55 54 54 53 51 51 52 53 54 50 52 55 55 55 54 55 54 54 55 55 56 56 56 55 55 55 47 50 42 41 39 38 38 38 39 39
56 57 57 57 58 43 37 39 51 55 55 55 54 54 54 48 48 45 46 45 48 54 55 55 55 54 54 54 52 50 49 51 49 39 43 39 38 35 35 36 36 36 36
56 52 51 45 41 38 36 38 38 53 55 51 50 49 54 45 43 48 45 39 36 36 37 44 48 44 41 35 37 41 44 42 41 34 38 37 35 32 33 33 34 34 34
41 41 40 39 38 35 36 37 37 48 40 37 37 38 39 38 36 38 43 36 33 32 33 33 33 32 32 33 34 36 37 36 34 32 33 34 33 30 32 32 32 32 31
35 34 34 34 34 34 35 37 42 39 35 33 32 33 33 33 34 36 39 33 32 31 32 32 32 31 31 31 32 39 35 36 35 31 31 33 32 30 31 32 32 29 29
32 31 30 31 32 32 34 35 35 33 31 30 31 31 32 32 33 36 35 32 29 29 30 30 30 31 31 31 30 32 34 34 34 33 32 32 33 33 32 33 34 33 33

GFSMA_sfc_dewp_096.txt.gz
Dewpoint
67 66 65 64 63 64 64 64 63 63 64 63 63 62 61 61 60 60 62 63 62 62 61 60 59 59 59 59 61 59 56 56 56 58 58 58 58 57 57 57 56 56 55
67 66 65 63 63 64 65 64 63 62 63 63 63 62 60 61 60 59 60 61 62 62 61 59 60 58 59 59 60 58 56 56 56 57 57 57 58 58 58 57 56 55 54
67 65 64 64 64 64 64 63 63 63 63 63 62 60 61 60 57 57 57 59 60 60 61 61 61 61 59 59 59 58 57 57 56 56 57 57 57 57 57 57 56 54 53
66 65 64 64 64 64 64 63 63 62 62 61 60 61 60 54 54 55 56 57 58 58 60 60 61 61 61 60 58 57 57 56 57 57 57 56 57 56 56 56 56 55 54
65 65 64 64 64 64 63 63 62 62 61 61 60 61 56 54 54 53 55 56 57 56 57 60 60 61 61 61 58 57 57 57 58 57 57 57 57 56 56 56 56 55 55
65 65 64 64 64 63 63 62 61 61 61 60 61 59 53 54 53 55 54 55 56 56 57 58 59 59 59 61 60 58 58 58 58 58 58 57 57 56 56 55 54 54 55
64 64 63 63 63 62 62 62 61 60 60 61 59 56 57 54 52 53 55 55 55 55 57 57 58 57 58 60 61 59 58 58 58 58 58 58 58 58 57 56 55 55 55
64 63 63 62 62 62 61 61 60 59 60 60 57 52 52 53 55 52 54 55 54 55 54 56 56 55 56 57 57 60 59 59 59 58 59 59 59 59 58 57 56 56 56
63 63 63 62 62 61 61 61 60 59 58 59 59 51 51 49 52 53 53 52 55 55 54 54 55 54 55 55 56 57 57 57 60 61 60 60 60 60 59 59 59 58 58
63 63 62 62 62 61 61 60 61 59 59 57 58 53 52 52 49 50 53 53 55 53 55 54 54 54 53 55 55 54 54 54 56 59 61 61 61 61 60 60 60 60 59
62 62 62 62 61 61 61 60 60 59 59 58 56 54 52 54 52 50 49 51 53 53 53 55 54 54 54 54 56 54 53 52 53 56 59 61 62 62 61 61 61 61 61
61 61 62 61 61 60 60 60 60 60 59 58 56 54 51 52 51 51 50 49 50 51 52 54 54 55 54 55 56 53 52 51 52 54 56 58 59 60 61 62 62 62 62
60 61 61 61 60 60 60 60 60 60 59 58 57 55 54 53 54 53 52 50 50 50 52 54 54 55 56 56 56 53 52 49 50 52 54 55 56 57 58 59 60 61 61
59 61 60 60 60 60 60 60 60 59 59 59 58 57 57 56 55 54 51 51 49 51 53 54 56 56 56 56 56 52 54 49 49 50 51 53 54 55 55 56 57 58 59
58 59 60 60 60 59 60 60 59 58 58 59 58 58 57 57 56 56 55 53 50 47 46 54 54 56 57 57 56 56 56 52 49 49 49 50 52 53 53 54 54 55 56
57 58 58 59 59 59 59 59 59 59 58 59 58 57 57 56 56 56 56 56 55 51 48 50 53 56 57 58 56 57 58 53 49 47 47 48 49 50 51 51 52 52 53
57 56 57 57 59 59 59 59 59 58 58 58 58 57 56 56 56 56 56 56 55 54 51 51 52 54 55 56 56 55 56 56 56 49 47 47 47 47 47 47 48 49 50
56 57 57 57 56 57 59 58 58 58 57 57 56 56 56 57 56 54 56 55 55 55 53 51 52 52 53 54 55 56 55 54 55 51 48 47 47 46 46 44 44 45 45
56 56 56 55 54 54 54 56 56 55 55 55 55 55 55 55 54 54 54 56 55 54 55 52 52 53 52 53 54 54 54 54 54 52 48 43 42 42 42 41 42 43 43
56 55 55 55 54 54 54 54 53 53 53 53 54 53 53 54 53 54 55 55 54 54 54 53 52 52 51 51 53 53 53 55 55 56 45 43 41 40 40 40 40 40 40
56 56 56 55 54 54 54 53 53 53 53 53 54 54 54 51 48 51 53 54 54 54 53 52 52 51 51 52 53 55 55 55 46 43 49 41 39 37 37 38 38 38 38
58 57 57 57 54 41 38 41 51 54 54 54 52 52 52 47 48 45 43 38 42 52 54 53 53 53 53 45 44 45 45 46 46 38 41 39 37 34 34 35 36 36 36
47 45 43 41 39 38 37 39 43 54 53 51 50 50 49 43 43 46 37 35 35 35 36 45 48 38 40 35 36 40 42 41 41 34 37 34 34 32 34 34 34 34 33
39 39 38 38 37 36 37 38 41 41 38 36 36 38 39 38 36 43 36 33 32 32 33 33 33 32 32 33 34 37 37 35 33 32 32 33 32 30 32 33 32 31 31
33 33 33 33 34 34 36 37 39 36 33 32 32 34 34 34 35 40 35 32 30 30 33 33 33 32 32 32 33 37 34 34 32 30 30 31 31 29 30 30 31 30 29
31 30 30 31 32 33 34 35 34 33 31 31 31 31 33 33 36 35 33 31 29 29 30 30 31 31 31 30 30 30 31 32 32 30 27 30 31 32 31 32 32 32 30

GFSMA_sfc_dewp_099.txt.gz
Dewpoint
65 65 64 64 64 64 63 62 63 63 63 63 63 63 61 62 62 61 62 63 63 63 61 60 61 61 60 59 60 58 58 57 58 58 58 59 57 56 57 57 56 56 56
66 65 64 63 63 63 63 63 62 62 63 63 63 63 62 62 61 61 62 61 62 62 62 61 61 60 59 59 61 57 57 58 58 58 58 58 59 58 58 57 56 56 55
66 65 64 63 63 63 63 63 63 62 62 63 62 63 62 62 61 60 60 60 60 60 61 62 61 60 59 58 59 57 57 57 57 58 58 58 58 58 58 57 56 56 55
65 64 64 63 64 63 63 63 62 61 61 61 61 61 61 62 60 59 59 59 59 58 59 60 61 59 60 59 58 57 57 57 57 57 58 58 58 57 57 57 56 55 54
65 64 63 64 64 64 63 63 62 61 60 61 61 61 61 60 58 57 58 59 58 58 58 60 60 60 60 59 59 58 58 57 57 57 57 57 58 57 57 57 57 56 55
64 63 63 63 63 63 62 62 62 62 61 61 61 60 61 59 56 56 57 57 57 57 58 59 59 59 59 61 60 58 58 58 58 58 58 57 58 57 57 57 57 56 56
65 64 64 63 63 62 61 62 61 61 60 61 59 58 58 57 54 55 56 56 56 56 57 58 59 58 59 60 60 59 58 58 58 58 58 58 58 59 58 56 56 55 55
64 64 63 63 63 62 62 61 61 60 60 60 57 56 54 54 53 54 55 55 55 55 57 58 58 57 57 58 58 60 59 59 59 59 59 60 59 59 58 57 56 56 56
63 63 63 63 63 62 61 61 60 59 58 59 59 55 51 49 51 53 54 54 54 55 56 57 57 56 56 56 57 58 58 58 60 61 60 60 60 60 59 59 58 58 57
63 63 63 62 62 62 61 61 61 60 59 57 59 58 53 51 48 50 54 54 54 54 54 56 56 55 55 56 56 56 55 54 56 60 61 61 61 61 61 60 60 60 59
63 62 62 62 62 62 61 61 61 60 59 58 58 56 52 52 51 48 49 51 54 55 54 54 56 55 54 55 55 54 53 52 53 57 59 61 62 61 61 61 61 61 61
62 62 62 62 62 61 61 61 61 59 59 59 59 57 53 50 50 49 49 50 50 52 53 54 54 54 54 55 55 53 52 51 52 54 56 58 59 61 62 62 62 61 61
60 61 61 61 61 61 61 61 60 60 59 59 58 57 55 53 51 51 50 49 49 51 51 53 53 55 53 54 55 53 52 50 50 52 54 55 56 58 59 60 61 62 62
59 59 60 61 61 61 61 61 60 60 59 59 58 58 57 55 52 52 52 50 50 51 52 52 54 54 55 54 54 52 53 49 49 50 51 53 54 55 56 57 58 58 59
59 60 61 60 61 60 60 60 60 60 59 59 58 58 58 57 56 56 55 52 50 48 49 54 54 54 54 56 55 55 54 50 48 48 48 50 52 53 53 54 54 55 56
58 58 59 60 60 60 60 60 59 60 59 59 58 58 58 58 57 57 57 55 54 50 49 52 54 56 57 58 55 56 56 53 49 47 47 48 49 50 51 52 52 53 54
57 57 57 58 59 59 59 59 59 59 58 58 58 58 57 57 56 55 55 56 54 52 50 51 52 54 55 56 55 56 57 57 56 48 47 47 47 48 49 48 48 49 49
57 56 57 57 58 59 59 59 58 58 58 58 58 58 57 57 56 55 54 54 54 54 52 50 52 52 52 55 55 55 55 55 55 52 49 48 46 46 44 43 44 44 45
56 57 56 56 55 57 58 58 58 58 58 58 58 57 57 56 55 54 54 54 54 54 53 52 51 53 53 53 53 53 54 55 54 49 42 42 42 41 41 41 42 42 43
56 56 56 55 55 55 56 57 57 57 57 57 56 56 56 56 55 55 54 54 55 54 54 53 51 51 52 52 52 51 51 54 54 46 42 40 40 40 40 40 40 40 40
56 56 55 55 54 54 52 54 55 55 55 54 55 55 55 53 50 51 54 55 54 54 53 52 51 50 50 51 52 53 52 52 43 45 43 41 39 38 38 38 38 38 38
56 55 55 55 47 42 38 41 50 54 54 53 53 54 55 50 49 42 40 39 46 53 52 51 50 49 51 46 44 46 47 47 46 37 42 36 37 34 35 36 36 36 36
43 42 41 41 39 39 37 39 42 53 53 52 52 53 52 44 45 41 36 36 34 35 36 47 51 43 42 37 38 41 43 43 40 33 37 33 34 32 34 35 34 34 33
37 36 36 37 37 37 38 39 39 39 37 36 36 38 40 39 40 40 36 33 32 33 33 33 33 32 32 33 35 38 38 33 32 31 32 32 32 30 32 33 32 31 30
33 32 33 34 34 34 36 36 36 34 33 33 33 35 35 37 37 37 34 31 31 31 33 33 33 32 33 33 35 36 34 33 32 29 30 32 31 30 30 30 31 31 30
31 30 31 32 33 33 35 35 34 32 31 31 31 32 34 35 34 34 32 31 29 29 31 31 30 30 30 30 30 31 32 32 31 28 28 30 31 31 30 31 31 30 23

GFSMA_sfc_dewp_102.txt.gz
Dewpoint
65 64 64 64 64 64 63 62 62 62 62 64 64 63 63 63 63 63 63 63 64 65 63 62 61 60 60 59 60 59 58 58 58 57 58 59 59 59 58 57 57 57 57
65 64 64 64 64 63 62 62 62 61 61 63 63 63 62 63 63 63 62 62 62 62 63 61 59 60 60 60 60 59 58 58 58 58 58 58 58 58 58 57 57 57 56
65 64 63 63 63 63 62 61 61 62 62 62 63 63 63 62 62 62 61 61 61 61 61 61 62 61 60 60 59 58 58 59 58 57 58 58 59 58 58 57 57 56 56
65 64 63 63 63 63 63 62 62 61 61 62 61 62 62 63 62 62 61 60 60 59 60 60 61 61 61 59 58 58 58 58 58 58 58 58 58 58 58 57 57 56 55
65 64 63 63 63 63 63 62 62 61 60 61 61 61 62 62 62 62 60 59 59 58 58 60 60 59 60 61 59 59 59 58 57 58 58 58 58 58 58 58 57 56 55
64 64 63 63 63 63 63 62 61 61 60 60 61 61 61 60 61 61 60 59 58 57 57 58 58 56 58 60 60 59 59 58 58 58 58 58 57 58 58 57 57 57 56
64 63 63 63 63 63 62 62 61 61 60 61 60 59 59 59 60 59 59 58 57 57 57 58 58 58 57 59 60 60 59 59 58 57 57 57 57 58 58 58 57 57 57
64 64 63 63 63 63 62 62 61 60 60 61 58 57 54 56 56 59 57 57 56 56 57 57 58 58 57 58 58 60 60 59 58 58 59 58 59 59 58 58 57 56 56
65 64 64 63 63 63 61 61 61 60 59 60 59 56 53 52 54 56 56 56 56 56 56 57 58 58 57 58 58 58 57 57 60 60 60 60 60 60 59 58 58 57 57
64 64 63 63 63 63 62 61 61 60 59 58 58 59 57 53 52 51 55 55 55 55 55 56 57 57 57 56 57 56 55 54 56 60 61 61 61 61 61 60 60 59 59
63 63 63 63 63 63 62 61 61 60 60 58 58 57 57 52 51 52 51 53 54 54 55 56 57 56 56 56 56 55 53 53 54 57 60 61 61 61 61 61 61 61 60
63 63 62 62 62 62 62 61 61 60 60 59 59 57 56 51 51 50 49 52 52 53 54 54 56 56 56 56 55 54 52 52 52 54 57 59 60 61 61 61 61 61 61
61 62 62 62 62 62 61 61 61 60 60 59 58 58 56 53 50 50 50 50 50 51 52 54 54 55 55 55 55 53 52 50 50 52 54 56 57 58 59 61 62 62 62
60 61 61 61 61 61 61 61 61 60 60 59 58 58 57 55 52 51 50 49 49 50 51 51 54 54 55 54 54 52 54 49 49 50 51 52 54 55 56 57 58 59 60
59 60 60 60 61 61 61 61 60 60 60 59 59 59 58 56 54 54 52 51 49 48 49 52 52 53 54 54 53 54 54 51 48 48 49 50 52 53 53 54 55 56 56
59 59 59 60 60 60 60 60 60 60 59 59 59 58 58 57 57 56 55 53 51 49 48 51 53 55 55 55 54 54 54 51 48 47 47 48 49 50 51 52 52 53 54
56 57 58 59 59 59 60 60 60 59 59 59 59 58 57 58 57 57 56 55 54 52 50 50 53 55 56 56 56 56 56 55 54 47 47 47 47 47 48 48 48 49 50
56 56 55 57 57 58 59 59 59 59 59 58 58 58 58 58 56 56 56 55 54 53 52 50 51 53 54 56 56 56 57 58 57 50 48 48 47 46 44 44 44 44 45
56 56 56 56 56 56 57 58 59 58 58 58 58 58 57 57 56 56 55 55 55 54 52 52 51 53 54 55 54 54 54 55 50 44 42 41 42 42 42 42 42 43 42
56 56 56 56 55 55 56 58 58 58 58 58 58 58 58 57 56 56 55 55 55 54 53 52 51 52 52 53 53 51 52 54 49 43 41 40 40 41 40 40 41 41 40
56 56 55 55 55 51 46 50 58 58 57 57 58 58 58 55 50 53 56 55 55 54 53 52 51 51 51 51 51 51 51 50 43 44 42 40 39 38 38 38 39 38 38
53 53 53 51 47 43 38 40 50 55 56 56 56 56 54 49 48 45 43 40 48 54 53 52 51 50 50 49 48 49 49 48 43 37 41 35 36 35 36 37 37 36 36
41 40 40 40 40 39 38 40 42 51 47 49 51 53 49 46 45 40 36 36 35 35 37 51 51 47 45 41 42 43 44 43 37 33 37 32 34 32 34 36 35 34 33
35 35 35 36 36 37 37 38 38 39 38 37 38 41 44 43 42 41 36 34 33 33 33 34 34 32 33 34 38 39 39 32 32 32 33 31 32 30 32 33 33 32 31
32 32 33 33 34 34 35 36 36 35 34 33 35 36 38 38 37 38 34 32 31 31 33 33 33 33 33 34 36 37 34 34 31 28 30 32 31 30 30 31 32 32 30
30 30 30 31 33 32 34 34 34 33 32 32 32 33 34 34 35 35 33 32 30 30 30 30 29 29 29 31 31 32 34 33 30 27 29 30 31 31 29 29 29 24 24

GFSMA_sfc_dewp_105.txt.gz
Dewpoint
67 66 65 65 64 63 63 62 62 61 62 62 62 63 63 63 63 64 63 63 64 66 66 64 63 62 61 60 60 59 59 59 57 58 57 57 57 58 59 58 58 57 57
66 66 64 64 64 63 62 62 61 61 61 62 62 62 62 63 63 63 64 63 63 64 65 64 63 61 60 60 61 60 59 59 59 58 57 57 58 58 58 58 57 57 56
65 64 64 64 64 63 62 61 60 61 61 61 61 62 62 63 63 63 63 63 62 61 62 63 63 61 60 59 61 60 59 59 59 56 57 57 57 58 57 57 57 57 56
65 64 63 64 64 63 61 61 60 60 61 61 61 62 62 62 62 63 63 63 61 60 60 61 62 62 62 60 61 60 59 60 59 59 58 57 57 57 58 57 57 57 56
65 64 63 64 63 63 62 61 61 61 60 61 61 61 62 62 62 63 62 62 61 60 59 60 60 61 61 61 60 59 59 59 59 59 58 58 58 58 58 58 57 56 56
64 64 63 63 63 62 62 62 61 61 60 60 61 60 61 61 62 62 61 61 60 59 58 58 59 59 59 60 61 59 60 60 59 59 59 58 58 59 58 58 57 57 56
64 64 63 63 63 62 62 62 61 61 60 60 59 59 60 61 61 61 61 61 60 58 57 58 57 54 57 59 60 60 60 60 59 59 59 58 58 56 59 58 58 57 57
64 64 64 63 63 62 62 62 61 60 60 60 58 57 55 55 59 60 61 60 59 58 57 57 57 56 54 56 57 60 60 60 59 58 59 58 59 57 58 58 58 58 58
64 64 64 63 63 63 62 62 61 60 59 61 60 57 53 52 55 58 58 59 59 57 56 56 57 57 57 56 57 58 57 58 60 60 59 60 56 58 59 59 58 58 57
64 64 63 63 63 63 62 62 62 61 60 58 60 59 57 55 53 52 56 57 57 56 56 56 57 57 57 57 57 56 55 54 56 59 60 60 60 60 60 60 59 59 58
64 64 63 63 63 63 62 62 61 61 61 59 59 58 57 57 56 53 52 54 55 55 55 56 56 57 57 57 57 56 54 53 53 57 60 60 61 61 61 61 61 60 60
64 64 63 63 63 62 62 62 62 61 61 60 60 58 57 54 53 53 52 53 53 54 55 55 56 56 57 56 56 54 53 52 52 54 57 59 60 61 61 61 61 61 61
62 62 63 62 62 62 62 62 61 61 60 60 59 58 57 56 54 53 52 53 53 53 54 55 56 56 56 56 56 53 53 50 51 53 54 56 58 59 60 61 61 62 62
62 62 62 62 62 62 62 62 61 61 61 60 59 59 58 57 55 53 53 52 50 51 51 52 54 55 56 56 55 52 54 49 49 50 52 53 54 55 56 57 59 60 61
60 61 62 62 61 62 61 61 61 60 60 60 59 59 58 57 56 55 52 52 50 49 50 51 52 54 55 55 54 55 54 51 49 48 49 50 52 53 53 54 55 56 57
59 59 59 60 60 61 61 61 60 60 60 60 60 59 59 58 56 54 55 53 52 50 48 51 52 53 54 55 54 54 54 52 48 47 47 48 49 50 51 51 52 53 53
59 59 59 58 59 60 60 60 60 59 59 59 59 59 58 58 56 55 55 55 53 52 49 51 53 54 54 54 54 54 54 54 53 47 46 46 46 46 47 48 49 50 50
57 58 57 57 58 58 59 59 59 59 59 58 59 58 58 58 57 56 55 54 53 53 51 50 52 53 54 55 55 55 55 55 56 48 47 46 46 45 44 44 44 45 45
56 55 56 56 56 56 56 56 57 58 59 58 58 58 58 58 57 56 56 55 55 53 52 52 52 53 54 55 54 55 56 51 46 44 42 42 42 42 42 42 43 42 42
55 55 56 56 55 55 55 55 56 57 57 58 59 59 58 58 57 56 55 55 55 54 53 52 52 52 53 54 54 53 53 53 46 42 41 40 41 41 41 41 41 41 40
56 56 56 55 54 51 45 43 48 56 57 57 58 58 58 56 52 54 55 55 55 54 53 52 51 51 52 51 52 52 52 48 43 43 41 40 39 38 39 39 39 39 39
48 48 46 47 45 43 37 38 42 53 56 57 56 57 58 51 49 46 47 47 52 54 53 52 51 50 50 51 50 51 50 46 43 39 39 35 36 35 37 37 38 37 37
40 39 39 39 39 37 37 39 41 46 45 43 47 53 51 46 44 41 37 37 35 36 42 53 52 50 49 48 47 45 46 46 40 34 37 32 34 32 35 36 36 35 35
35 35 35 35 35 35 36 37 37 39 37 37 38 40 45 44 43 41 38 35 33 33 34 36 40 36 35 38 43 43 41 32 32 32 34 31 32 30 33 34 34 33 32
32 32 33 33 33 33 35 35 36 35 34 34 34 36 37 38 37 40 37 33 32 32 34 35 34 34 35 36 37 38 34 35 30 29 30 32 31 30 31 31 32 33 31
30 30 30 31 32 32 34 34 34 33 32 32 33 32 34 34 35 35 34 33 31 30 31 31 30 29 29 31 32 33 35 33 30 28 29 31 31 30 28 31 31 30 29

GFSMA_sfc_dewp_108.txt.gz
Dewpoint
68 67 66 66 65 63 63 62 62 62 62 62 63 63 63 63 63 63 64 63 64 66 66 65 64 63 62 61 61 60 59 60 59 58 57 58 59 59 57 58 57 58 58
67 66 66 66 64 64 62 62 62 62 62 62 62 62 62 63 63 63 63 63 63 64 65 65 64 63 62 60 61 61 59 59 59 58 57 59 58 58 56 57 58 56 57
67 66 65 65 65 62 61 61 60 60 60 61 61 61 62 63 63 63 63 63 63 62 63 64 64 64 62 59 61 60 60 61 59 59 57 58 58 58 57 58 58 57 56
66 66 65 65 65 63 61 61 60 60 60 61 61 60 61 62 62 63 63 63 63 63 62 62 63 63 62 61 61 60 59 59 59 59 58 58 58 58 58 58 57 57 57
66 65 65 64 64 63 62 61 60 60 60 61 61 62 62 62 62 63 62 63 62 62 62 61 61 61 61 62 61 60 59 60 60 59 59 57 58 57 58 58 57 57 57
66 65 64 64 63 63 62 61 60 61 61 61 61 61 62 62 62 62 62 62 62 62 60 60 60 59 60 61 61 61 60 58 59 59 59 58 58 58 59 58 58 57 57
65 65 64 63 63 62 62 62 61 60 60 61 59 59 60 61 61 62 62 62 61 61 60 59 59 59 59 60 61 61 60 60 60 59 59 59 59 60 60 59 58 57 57
65 64 64 63 62 62 62 62 61 60 60 60 57 57 55 57 60 61 62 61 61 60 59 58 58 57 58 57 57 60 60 60 60 60 60 60 59 59 56 58 58 58 58
64 64 64 63 63 62 62 62 62 61 59 60 60 57 54 53 55 58 60 61 60 59 59 58 57 56 54 56 57 58 58 58 61 61 60 61 59 59 57 57 58 58 58
64 64 64 64 63 63 62 62 62 61 60 59 59 60 57 56 53 52 57 58 60 59 59 57 57 57 56 55 56 55 55 54 57 60 60 60 57 56 58 58 59 59 58
64 64 64 64 63 63 63 62 62 61 61 59 59 59 59 56 56 54 52 54 57 58 58 57 57 57 57 56 56 55 53 53 53 57 59 59 59 59 59 60 60 60 60
64 64 64 63 63 63 63 62 62 61 61 60 60 59 58 56 55 55 53 54 54 56 57 57 56 57 57 57 56 55 53 52 52 54 57 59 60 60 60 60 60 61 61
63 63 63 63 63 63 63 62 62 61 61 60 60 59 59 58 57 55 55 54 54 54 55 57 56 56 57 57 57 54 53 51 51 53 54 56 58 59 59 59 60 60 61
62 62 63 62 63 63 62 62 62 61 61 61 60 60 59 59 58 55 55 54 52 52 53 54 56 56 56 56 56 52 55 50 50 51 52 53 54 56 57 58 59 59 60
61 61 62 62 62 62 62 62 61 61 61 61 60 60 59 59 58 57 55 55 53 51 51 53 53 56 56 56 55 56 56 51 49 49 49 51 52 53 54 55 55 57 58
60 61 61 61 61 61 61 61 61 61 60 60 60 60 59 59 58 57 56 56 55 54 50 52 53 55 55 56 55 56 55 52 49 48 47 48 49 51 52 52 52 53 54
59 60 60 60 59 60 60 60 60 60 59 59 59 59 58 59 58 57 56 55 55 53 50 52 53 54 55 55 55 55 55 55 54 47 47 47 46 47 47 48 49 50 51
58 58 58 58 58 58 59 59 59 59 59 59 58 58 58 59 58 57 56 55 55 54 52 50 52 53 53 55 55 54 55 55 53 46 46 46 46 45 45 45 45 46 46
58 57 57 57 57 57 57 56 56 57 58 58 58 58 58 58 58 57 55 55 54 54 54 52 52 53 54 55 54 55 55 48 45 44 43 43 43 43 43 43 43 43 43
56 56 56 55 55 55 55 53 52 53 55 57 57 58 58 58 58 57 56 55 54 54 53 52 52 52 53 54 55 54 52 49 44 42 41 41 42 42 42 41 41 41 41
56 56 56 55 53 49 42 43 47 49 52 54 56 57 57 57 53 55 57 56 55 54 53 53 52 52 52 53 53 54 52 48 44 42 40 40 39 40 40 40 40 40 39
42 44 45 45 42 41 37 38 40 51 50 48 51 56 58 52 50 47 47 49 53 54 53 53 52 52 52 53 52 53 49 46 44 42 39 35 37 36 37 38 38 38 37
35 35 37 38 37 36 36 38 38 44 43 42 42 44 50 50 50 48 39 39 38 39 47 53 53 52 51 51 51 50 49 47 44 37 37 32 35 33 36 37 37 36 35
32 32 33 34 34 34 35 36 36 38 37 36 36 39 42 40 39 43 40 35 34 34 35 38 45 38 37 44 50 49 47 34 33 33 35 31 32 31 34 35 35 34 33
30 30 31 31 32 32 35 35 35 35 34 33 34 35 36 36 37 39 36 33 32 32 34 34 34 34 34 35 38 41 37 38 32 31 32 31 31 30 31 32 33 34 32
30 29 29 30 30 30 33 34 33 33 32 32 32 32 34 34 35 36 35 34 33 32 32 31 31 30 31 31 32 33 36 39 31 30 30 31 30 30 28 31 31 31 31

GFSMA_sfc_dewp_111.txt.gz
Dewpoint
67 68 68 68 68 68 68 68 68 68 67 66 66 66 66 66 66 66 66 64 64 66 67 67 65 64 63 62 62 61 60 59 59 58 59 60 60 59 59 59 58 56 57
67 67 67 68 68 68 68 67 67 66 66 66 66 66 65 65 65 66 66 65 63 64 66 66 66 64 63 61 62 61 60 61 59 59 58 60 60 59 59 59 58 58 57
68 67 67 66 67 68 67 67 66 66 66 66 65 65 65 65 65 64 64 64 63 62 63 66 65 65 63 61 60 61 61 61 60 59 58 59 59 59 59 59 58 57 57
68 68 66 66 67 66 66 66 65 65 65 65 64 65 64 64 64 64 63 63 63 64 63 63 64 64 64 62 61 60 59 60 60 59 59 59 58 58 58 58 59 57 57
67 67 66 66 66 66 65 65 65 64 64 64 63 63 64 64 63 63 63 63 63 63 63 63 63 62 63 62 61 60 59 60 60 60 59 59 58 58 59 58 58 58 57
65 66 66 66 66 64 64 64 64 64 64 63 62 63 64 63 64 64 63 63 63 63 64 63 63 62 61 61 61 61 59 60 60 60 59 59 59 59 59 59 58 58 57
65 66 66 65 65 64 63 63 63 63 62 63 61 61 62 63 62 63 63 63 63 63 63 62 63 61 59 60 61 62 61 60 59 60 60 59 59 59 57 59 58 58 57
65 65 65 64 64 64 63 63 62 62 62 62 60 59 57 59 62 62 63 62 63 62 62 61 62 61 59 58 59 61 62 61 60 60 60 61 60 59 56 59 59 58 58
65 65 64 64 64 64 63 63 63 62 60 61 62 59 56 55 57 60 61 61 61 62 62 61 61 61 60 58 58 58 58 58 61 61 61 61 60 59 57 59 59 59 58
65 64 64 64 64 63 63 63 63 63 62 60 61 61 61 58 56 54 58 60 61 61 60 60 60 59 59 58 57 56 55 54 57 61 61 61 60 59 57 58 58 59 59
64 64 64 64 63 64 64 63 63 63 63 61 60 60 60 60 58 55 54 57 59 60 61 60 59 59 57 57 58 56 53 53 54 59 60 60 60 59 58 59 58 59 60
64 64 64 64 64 63 64 63 63 63 62 62 61 61 59 58 56 56 55 55 56 57 59 59 59 59 58 57 55 54 52 52 52 55 58 59 59 59 59 59 59 59 60
63 63 64 64 63 63 63 64 63 63 62 62 61 61 60 59 58 56 56 56 55 56 57 58 59 59 58 59 57 53 53 50 51 53 55 57 58 58 58 58 59 59 60
63 64 64 64 64 64 63 63 63 63 63 62 62 61 60 60 59 58 57 56 54 54 56 55 58 58 58 58 57 52 55 50 50 50 52 54 55 56 56 57 57 58 59
64 64 64 63 63 63 63 63 63 62 62 62 62 62 61 61 60 60 59 57 56 52 52 55 55 57 58 58 57 58 57 52 49 49 49 51 52 54 54 55 56 57 58
63 63 63 63 63 62 63 62 62 62 62 62 62 61 61 61 61 60 60 58 58 55 52 54 55 56 57 57 55 58 57 53 49 48 48 49 50 51 52 52 53 54 55
62 62 62 63 62 62 62 62 62 61 61 61 61 61 61 61 60 60 60 59 57 56 54 55 55 56 56 56 56 57 57 57 55 48 47 47 47 48 49 49 50 51 52
62 62 62 61 60 61 61 61 60 60 60 60 60 60 59 59 59 59 58 57 57 56 56 54 54 55 55 57 57 57 57 56 56 49 47 46 46 46 46 46 46 47 48
59 59 60 60 59 59 59 59 59 58 59 59 59 59 59 59 58 58 58 57 56 55 55 54 52 54 55 55 55 56 57 56 52 45 44 44 45 45 45 44 45 45 45
57 57 58 57 57 55 52 52 53 54 55 55 57 57 57 57 58 58 58 58 57 55 55 54 53 53 54 55 55 54 51 51 48 44 43 43 43 43 43 42 42 42 42
44 45 49 47 46 41 38 41 46 50 52 53 54 55 56 56 51 54 57 57 56 55 55 54 53 53 53 53 53 54 52 48 46 45 43 43 43 43 42 41 41 41 40
37 37 37 37 37 36 36 37 39 47 51 50 49 49 51 50 50 46 46 48 54 55 54 53 53 52 52 53 54 54 49 46 44 43 41 38 40 39 40 40 39 39 38
34 33 34 34 33 33 35 36 37 43 42 41 41 42 44 45 42 46 41 40 41 43 49 54 53 53 53 53 54 53 50 49 48 42 39 35 36 35 37 38 37 36 34
31 30 31 31 30 31 34 35 36 37 36 35 35 37 39 39 40 41 38 35 34 34 35 39 50 43 42 53 54 53 51 39 35 34 37 32 33 32 35 37 36 35 32
30 30 30 29 29 29 32 33 34 34 33 32 32 33 34 36 36 38 36 33 33 32 34 35 35 34 34 35 40 46 42 42 33 33 33 32 32 31 32 32 34 34 33
30 30 29 29 29 28 30 30 30 30 29 30 30 31 32 33 34 34 37 35 33 32 33 33 32 32 32 32 33 33 41 45 33 32 32 32 31 31 27 31 32 33 33

GFSMA_sfc_dewp_114.txt.gz
Dewpoint
69 68 66 66 66 67 68 66 66 66 66 65 64 64 64 63 62 62 64 65 65 66 68 67 66 65 64 63 64 63 63 61 60 59 59 60 60 60 59 60 57 57 58
68 67 67 66 66 66 67 67 66 66 65 65 64 64 64 63 63 63 61 65 64 64 66 67 67 66 65 63 63 63 62 62 61 59 60 60 60 60 60 59 59 59 58
68 68 67 66 65 67 67 68 67 65 65 65 64 64 64 64 63 63 62 61 63 62 64 65 66 66 65 63 62 62 61 61 61 60 60 60 60 59 59 59 59 59 58
69 68 67 67 67 68 68 66 66 65 65 64 64 64 63 64 63 63 62 61 60 61 62 63 63 65 64 64 61 60 60 62 62 61 60 61 59 59 59 59 59 59 58
70 68 67 67 69 68 68 66 65 66 64 64 63 63 64 63 63 62 62 62 62 61 62 62 62 62 64 63 62 61 61 61 61 60 60 60 59 59 59 59 59 58 58
68 68 65 68 68 67 66 67 66 65 64 64 62 62 63 63 64 62 62 61 63 64 63 63 64 63 62 63 63 62 61 60 60 59 60 59 59 60 59 59 59 59 58
68 67 65 66 67 66 66 67 66 66 66 65 64 64 63 63 63 61 61 61 62 62 63 64 64 64 63 62 62 63 61 60 61 60 61 60 60 60 59 59 59 58 58
66 67 66 66 66 66 65 66 65 64 64 65 62 61 59 60 62 62 62 61 63 64 63 63 63 63 63 62 60 61 62 61 61 61 62 61 60 60 59 59 59 59 58
66 68 66 66 66 66 64 64 65 64 62 63 64 59 58 54 55 59 61 61 63 64 62 63 62 62 63 63 60 59 58 59 61 61 61 61 61 59 58 58 60 60 59
66 66 67 66 66 66 64 64 64 64 64 61 63 62 60 57 55 54 59 61 62 62 62 62 62 62 62 62 61 56 55 55 58 60 61 62 61 60 58 59 59 60 60
66 66 66 66 65 65 65 64 64 64 64 62 61 61 61 60 59 57 54 56 59 61 62 62 62 62 61 61 61 58 54 53 55 59 60 61 61 60 59 58 59 59 59
65 65 65 65 65 65 64 64 64 64 64 63 62 61 60 59 59 58 57 56 56 57 61 62 61 61 61 61 60 55 52 52 53 56 59 60 60 59 59 58 59 59 59
63 64 65 64 64 65 65 64 64 64 64 63 63 62 61 59 58 57 57 57 57 57 59 60 62 61 60 60 59 55 52 51 51 53 56 58 58 58 59 58 58 59 59
63 64 64 64 64 64 64 64 64 64 64 64 64 64 61 61 60 58 57 57 56 57 58 57 60 60 60 60 59 53 56 49 49 51 52 54 56 56 57 57 57 57 58
63 64 64 64 64 64 64 64 63 63 64 64 64 65 63 62 61 61 60 58 57 55 54 56 56 59 59 60 59 58 58 51 49 48 50 51 53 54 55 55 55 56 57
64 64 64 64 63 63 64 64 63 63 63 63 63 63 63 62 62 62 61 60 59 58 55 55 55 57 59 59 58 59 59 53 49 48 47 48 50 52 52 53 53 54 55
64 64 64 64 63 63 63 63 63 62 62 62 62 62 62 62 61 61 61 61 60 59 56 56 56 58 58 58 58 58 58 59 56 48 47 47 48 48 49 50 50 51 52
64 63 63 62 62 62 62 62 61 61 61 61 61 61 61 61 61 61 61 60 60 59 58 55 57 57 57 58 58 57 57 57 57 50 48 47 47 47 47 47 48 48 49
61 61 61 61 62 61 61 61 61 61 61 61 60 60 60 59 60 60 60 59 59 58 58 56 55 57 57 58 57 57 57 57 56 48 46 46 46 46 46 46 46 47 47
56 53 51 46 44 43 44 48 54 56 57 57 58 59 58 57 57 58 58 58 57 57 57 56 56 55 55 56 56 55 55 56 51 50 45 46 46 45 45 45 45 45 45
43 43 40 39 39 37 37 41 47 52 53 54 55 55 55 52 46 46 52 57 58 57 57 55 55 54 53 53 53 55 54 50 47 47 45 45 46 45 44 43 44 43 42
36 36 35 35 36 36 37 37 42 49 48 46 45 45 47 48 47 42 42 41 45 55 56 55 54 54 53 53 54 54 53 46 44 45 43 40 44 43 43 43 41 40 40
33 33 33 33 33 34 35 37 38 40 38 37 37 37 39 41 42 43 43 40 38 36 37 46 55 54 53 53 54 53 52 49 49 43 41 35 39 37 40 39 39 38 38
31 31 31 31 31 32 33 35 35 35 34 33 33 32 35 36 37 38 42 39 36 35 34 37 37 40 45 54 54 54 52 45 39 40 38 33 35 34 36 37 36 35 35
30 30 29 29 29 30 32 32 32 32 31 30 30 30 31 33 33 36 38 37 35 34 35 35 34 34 34 35 44 54 42 41 34 34 34 33 32 32 33 33 34 34 33
31 30 29 29 29 28 30 31 30 29 27 27 27 28 29 30 31 32 34 35 33 32 32 33 33 33 32 32 33 35 46 45 34 33 33 33 31 31 27 32 32 32 33

GFSMA_sfc_dewp_117.txt.gz
Dewpoint
69 68 66 66 67 66 67 67 66 66 65 64 64 65 64 64 64 61 66 65 67 67 68 67 67 66 66 65 65 64 64 63 62 61 61 60 60 60 57 58 59 56 57
69 66 66 63 65 64 65 66 66 66 66 65 65 64 64 63 64 64 65 65 65 65 67 68 67 67 66 65 65 64 64 63 63 62 61 60 60 59 57 56 56 56 59
70 69 68 65 62 63 68 68 68 67 67 66 65 64 64 64 65 65 62 64 64 63 64 66 66 66 66 65 64 64 63 63 62 62 61 60 60 60 59 56 56 56 56
69 69 68 67 65 65 66 68 67 66 66 65 65 65 65 64 64 64 62 64 65 64 63 64 64 65 63 66 65 64 61 62 62 61 61 60 60 59 59 58 56 56 58
70 68 67 68 69 65 67 66 67 67 66 65 65 65 65 63 64 61 62 65 65 63 62 62 62 62 63 65 65 63 61 59 61 61 61 61 60 59 58 58 56 57 59
69 69 66 68 68 67 67 67 67 67 65 64 62 62 66 65 63 62 62 62 61 64 62 63 63 62 61 63 64 63 61 60 61 60 60 61 60 60 59 59 57 59 58
69 69 67 68 68 67 67 68 67 66 65 66 64 64 64 65 64 62 61 59 61 62 64 64 63 63 62 61 62 65 62 62 61 61 61 61 61 59 59 58 59 59 59
68 68 68 66 69 67 66 67 66 66 66 67 63 62 59 61 62 62 60 59 62 61 62 63 63 63 64 64 62 63 63 63 62 62 62 61 60 60 59 57 59 60 60
68 69 68 67 67 68 66 66 66 65 64 67 66 60 57 53 55 60 62 62 62 64 62 63 63 63 64 63 62 61 59 59 61 62 62 61 61 60 59 59 59 59 59
67 68 69 68 68 67 66 65 65 65 64 62 65 63 62 56 52 53 60 61 61 62 63 64 64 63 63 63 62 60 57 56 58 61 62 62 61 60 59 59 59 59 59
66 67 68 68 68 67 67 66 65 65 64 62 62 63 63 61 61 56 56 57 59 60 61 63 63 63 62 62 63 61 57 54 55 59 61 62 62 61 60 59 59 59 59
65 68 67 68 67 66 66 66 66 64 64 63 63 62 61 60 58 58 57 57 58 59 58 60 63 63 63 62 62 58 55 53 54 56 59 60 61 61 60 59 59 59 59
63 66 66 66 66 66 66 66 65 64 64 63 62 62 62 61 60 59 58 57 56 55 59 60 62 63 62 63 62 57 55 51 52 54 56 58 59 60 60 59 59 59 59
63 66 66 65 65 66 65 65 64 64 64 64 63 63 62 63 63 59 58 57 57 57 58 57 60 62 62 62 60 55 59 51 50 52 53 55 56 57 57 57 57 58 58
63 65 66 64 64 64 65 64 64 63 64 64 64 63 64 63 64 63 61 59 58 56 56 56 57 60 60 60 59 60 60 52 50 49 50 52 54 55 55 55 56 56 57
63 64 65 64 64 64 64 64 64 63 63 63 64 63 63 64 63 64 62 62 61 59 57 57 57 58 61 60 59 60 60 54 50 49 48 49 51 53 53 53 54 54 55
62 62 64 64 63 63 63 63 63 62 62 63 63 63 63 64 63 62 62 62 61 61 58 58 58 58 60 61 60 60 60 59 57 48 47 47 48 49 50 50 51 52 53
62 62 63 63 63 63 63 62 62 62 62 61 62 62 61 62 62 62 62 61 61 61 59 57 58 59 59 60 61 59 59 59 59 52 48 47 47 47 47 48 48 49 50
59 57 59 56 58 60 61 62 62 61 62 62 62 61 61 62 61 60 61 60 61 59 60 59 57 58 58 59 59 59 59 58 59 55 48 46 46 46 46 47 47 47 48
43 44 42 42 41 41 44 50 59 60 59 59 60 60 60 59 57 55 57 58 58 59 58 58 57 56 57 57 58 56 56 57 57 55 48 49 48 47 46 46 46 46 47
38 40 42 41 40 39 40 42 52 54 55 55 51 50 49 46 43 43 47 50 50 53 55 57 56 56 56 55 55 56 55 56 51 49 46 47 49 50 49 45 48 46 45
33 34 35 36 38 38 39 40 45 46 44 43 42 42 44 44 42 41 40 40 40 45 48 52 54 54 54 55 55 55 55 48 45 46 45 41 44 44 44 47 45 44 43
32 32 32 32 32 33 36 36 36 37 36 34 34 36 37 37 38 39 41 40 38 35 35 39 43 48 50 54 55 54 54 51 51 45 42 35 39 37 40 40 41 41 41
30 30 30 30 30 31 32 33 34 33 32 31 31 31 33 33 33 36 40 40 37 37 36 36 35 34 34 35 38 52 54 52 40 41 40 33 35 33 36 38 39 39 39
30 30 30 29 29 30 31 31 31 31 30 29 30 30 30 30 32 34 37 37 34 33 34 33 32 32 32 33 34 42 50 43 34 34 34 34 32 32 32 32 35 36 36
32 31 30 31 30 29 32 31 29 28 27 27 28 28 30 30 30 30 31 32 32 31 31 31 30 30 30 29 30 32 35 45 35 33 34 33 32 31 28 32 32 32 32

GFSMA_sfc_dewp_123.txt.gz
Dewpoint
68 67 68 68 69 68 68 68 67 67 66 66 66 65 64 63 65 66 66 65 66 68 69 68 68 68 67 67 66 66 66 64 63 63 62 62 62 61 60 60 59 59 60
67 68 65 68 68 68 68 68 67 66 65 65 65 65 64 63 64 65 65 65 65 66 68 68 68 67 67 66 66 66 66 65 64 64 63 61 61 60 56 58 58 60 60
67 68 66 67 67 67 68 67 67 66 65 65 65 64 64 63 63 65 65 64 64 64 65 67 68 68 68 67 66 66 65 65 64 64 63 62 61 59 57 56 57 56 59
68 67 67 66 67 67 67 66 66 66 65 65 64 65 64 64 64 63 65 65 64 64 63 64 66 67 67 67 66 65 65 65 64 64 62 61 60 60 58 57 56 56 56
68 68 67 66 67 66 66 66 66 66 65 64 64 64 64 64 64 63 63 64 64 64 64 63 64 64 65 66 66 65 65 64 64 64 63 61 60 60 58 58 57 56 56
67 67 68 66 66 66 66 65 65 66 65 64 64 64 64 64 64 63 63 62 64 64 63 63 63 63 62 64 66 66 64 64 64 63 64 62 61 59 58 58 58 58 57
66 67 67 66 66 65 66 65 65 65 65 65 63 61 62 64 64 63 63 62 63 62 63 63 62 63 62 62 64 65 64 65 64 63 63 62 61 59 59 58 58 58 59
66 66 66 65 67 65 64 65 65 64 64 65 61 61 59 60 63 63 63 63 62 62 62 62 62 62 61 61 61 64 65 65 65 64 63 62 61 60 59 59 58 59 58
62 65 65 65 65 66 64 64 65 64 63 64 62 60 56 55 58 61 62 62 62 62 62 62 61 61 60 60 60 61 60 61 63 65 64 62 61 61 60 59 58 59 59
55 60 64 65 64 66 66 63 66 65 64 62 63 61 59 58 55 55 60 62 61 61 61 62 62 62 61 61 60 59 57 57 59 63 64 62 62 61 60 59 58 58 59
52 56 61 64 66 65 66 65 63 66 64 62 62 62 60 59 59 56 55 58 60 61 61 61 62 62 62 62 62 60 56 55 55 59 62 63 62 61 60 59 59 58 58
48 52 56 61 63 65 65 65 65 65 65 63 63 62 61 59 58 57 55 56 59 59 61 61 62 62 62 62 62 59 55 53 54 57 60 61 62 62 60 60 60 59 59
45 49 54 57 62 62 64 65 65 64 64 63 63 63 63 61 60 59 58 56 56 58 59 61 62 62 62 62 62 58 56 52 53 54 56 59 60 61 61 60 60 60 60
43 46 50 53 58 61 62 63 64 63 61 61 62 63 62 62 62 61 59 57 53 56 57 57 60 62 62 62 61 55 60 52 51 52 54 55 56 58 58 59 59 59 59
42 44 48 51 55 59 61 61 62 62 62 61 61 63 62 61 61 61 61 59 56 52 55 57 58 61 62 62 60 60 60 55 51 50 51 52 54 55 56 57 57 57 57
44 44 46 48 53 57 60 60 60 61 61 63 62 62 62 61 61 62 61 60 58 55 52 57 57 60 62 62 60 60 60 55 50 49 49 50 51 53 54 55 55 55 56
45 47 47 49 52 57 59 58 60 60 61 62 62 62 61 61 61 62 62 61 59 58 56 57 58 59 59 60 59 59 59 59 59 49 48 48 48 50 51 52 53 54 54
46 49 50 51 54 53 54 54 55 55 52 61 61 62 61 61 61 62 61 60 60 59 57 56 57 57 57 58 59 58 59 60 59 54 48 48 48 47 48 49 50 50 51
38 40 41 41 42 43 45 49 52 54 60 61 61 61 61 61 61 61 59 59 58 58 57 57 57 58 58 57 57 57 58 58 59 55 49 47 47 47 47 48 49 49 50
34 34 35 36 36 37 39 44 52 59 59 59 56 55 52 53 57 59 60 59 57 57 56 57 56 56 56 57 57 57 57 59 58 58 55 51 49 47 47 47 47 48 49
32 32 32 32 34 34 35 37 41 42 43 44 43 40 40 41 41 43 50 50 52 51 51 52 52 53 54 54 53 55 55 54 57 58 57 57 54 52 51 47 49 47 48
30 31 31 31 31 32 34 34 34 34 36 36 37 36 36 38 41 39 37 37 37 45 46 47 48 49 50 46 42 43 47 52 52 51 56 55 51 55 54 54 48 46 45
29 28 30 30 30 31 33 33 32 31 32 32 32 33 34 35 38 41 37 36 35 35 34 39 41 37 37 35 35 37 41 42 45 46 47 52 41 43 38 40 40 41 43
27 27 27 28 29 31 33 32 32 31 29 29 30 30 30 31 34 37 35 33 31 32 32 32 32 31 31 32 32 33 34 35 37 40 43 42 34 33 34 35 38 40 41
25 24 24 25 25 28 32 32 30 30 29 29 30 31 30 30 31 32 31 30 29 28 31 32 31 31 30 30 30 31 31 31 34 35 34 35 32 32 32 32 33 36 37
22 22 21 22 25 24 29 31 30 29 28 28 30 30 32 31 32 30 28 27 25 26 27 27 27 27 28 28 29 28 28 28 30 34 33 34 32 32 30 31 31 32 33

GFSMA_sfc_dewp_126.txt.gz
Dewpoint
69 69 68 68 68 69 68 67 67 66 66 66 66 66 65 64 64 65 65 65 65 67 69 69 68 68 68 68 67 67 67 65 64 63 64 63 62 61 60 60 61 62 61
68 69 68 68 68 68 68 67 67 66 66 66 65 65 65 63 64 65 65 65 64 65 67 69 69 68 67 67 67 67 66 66 65 64 63 62 62 61 59 58 58 56 57
68 68 67 67 68 68 68 67 67 66 65 65 65 65 64 63 64 64 65 65 65 63 65 67 68 68 68 68 67 66 66 65 65 64 63 62 62 61 60 59 58 59 59
67 67 67 66 67 67 67 67 67 66 65 64 64 64 64 63 64 64 64 64 64 65 64 65 66 67 67 67 67 66 66 66 65 64 64 62 61 61 60 59 59 59 59
68 67 67 67 66 67 67 67 66 66 65 64 64 64 63 63 63 63 64 63 63 64 64 64 64 64 65 67 68 67 66 65 65 65 64 62 62 61 60 59 59 59 58
59 65 67 66 66 66 66 66 66 66 65 64 63 63 63 63 63 63 63 64 63 63 64 64 64 64 63 65 66 67 66 66 65 64 65 63 62 61 60 59 59 59 58
57 59 65 62 65 66 66 66 65 65 65 65 62 60 60 62 63 63 63 62 63 63 63 63 63 64 63 63 65 67 66 65 65 64 64 63 62 60 60 59 59 59 59
52 55 57 64 62 65 65 65 64 64 65 64 62 60 58 59 62 63 63 63 62 63 63 62 62 63 63 63 63 65 66 66 65 64 65 64 63 61 60 59 59 59 59
47 50 52 56 63 61 61 64 65 64 62 64 63 60 58 57 58 60 62 62 62 62 62 62 62 62 62 62 62 61 61 61 63 64 65 64 63 62 61 60 59 59 59
45 47 50 54 57 63 62 63 65 64 63 61 63 63 59 58 56 56 60 62 62 61 61 62 61 61 61 61 61 59 57 57 59 63 63 64 63 63 61 60 59 59 59
41 44 48 51 54 59 62 63 63 63 63 62 61 59 60 58 56 55 53 59 61 61 61 61 61 61 60 60 60 58 55 54 56 59 62 63 63 63 61 60 60 59 59
39 42 45 49 54 56 57 62 63 63 63 63 63 62 60 58 57 56 54 56 59 60 61 61 61 61 61 61 60 57 55 53 54 56 59 61 62 63 62 61 60 60 60
37 39 43 46 49 52 55 59 62 62 63 63 63 62 62 61 60 58 56 55 55 56 58 61 61 61 62 62 61 58 55 52 52 54 56 58 59 61 62 61 60 60 60
37 39 41 43 45 48 50 54 60 62 61 62 62 60 59 59 63 61 58 55 52 54 55 56 61 61 62 62 61 55 60 52 51 52 53 55 56 58 59 60 59 59 59
39 41 42 43 45 47 50 53 58 60 60 60 60 58 57 57 57 63 61 59 56 51 55 55 57 61 61 62 60 60 60 54 51 50 50 52 54 56 56 57 58 58 58
43 43 43 44 45 46 48 51 55 59 59 58 58 57 58 55 58 59 61 61 58 56 53 56 57 58 61 61 59 60 60 55 51 50 49 49 51 53 54 54 55 56 56
40 44 46 46 46 47 48 51 54 58 58 59 58 57 57 58 58 58 58 61 60 58 55 54 56 57 60 60 60 60 60 60 59 49 48 48 48 49 50 51 52 53 54
37 37 39 40 42 44 47 50 52 57 58 57 57 59 59 60 60 59 57 59 60 59 57 55 55 56 57 60 60 59 59 60 60 54 49 48 47 47 47 48 49 50 51
34 34 35 36 36 38 42 45 48 53 53 53 52 54 55 53 58 60 61 60 60 60 58 55 55 56 56 57 58 58 58 59 59 55 48 47 47 47 46 46 47 48 49
32 33 33 34 34 35 36 37 39 42 41 41 41 41 42 45 51 59 60 60 60 59 58 57 54 54 55 55 56 55 56 58 58 58 54 51 49 47 47 46 46 47 47
31 31 31 32 33 33 33 34 34 34 35 36 36 37 38 39 38 40 54 50 57 58 57 55 54 54 54 54 54 53 54 54 57 57 56 57 55 53 52 46 48 46 46
28 27 30 31 31 32 33 33 33 33 32 32 32 34 35 38 38 36 36 37 37 45 50 51 51 50 46 42 41 43 45 48 49 48 54 55 54 55 54 53 42 44 44
24 25 26 28 30 31 33 33 32 31 31 31 31 31 32 33 35 36 34 34 34 34 34 40 38 35 36 33 35 37 40 41 43 45 42 44 42 42 39 39 38 40 40
22 22 24 25 28 31 33 33 32 31 30 30 30 30 30 31 32 33 33 30 29 31 31 32 31 31 31 31 31 32 34 34 35 37 39 37 35 36 34 34 35 37 38
19 20 22 24 24 27 30 31 29 29 29 29 29 30 29 29 31 31 29 28 27 27 30 31 31 31 31 31 30 32 29 31 33 34 33 34 33 33 32 32 33 34 36
19 19 19 21 24 24 28 28 27 27 26 26 27 28 29 28 29 29 28 27 25 26 27 27 27 28 28 28 29 28 27 27 29 32 30 30 33 33 33 30 31 32 32

GFSMA_sfc_dewp_129.txt.gz
Dewpoint
68 68 67 68 68 68 68 67 66 66 65 65 65 65 64 64 64 64 64 64 65 67 68 69 69 69 68 68 68 67 67 65 65 64 64 64 64 63 62 60 61 63 63
67 68 68 68 67 68 67 66 66 65 65 66 65 65 64 64 63 64 64 64 63 65 67 69 69 68 68 68 67 67 67 66 66 65 64 63 63 62 62 61 60 61 62
66 67 67 68 67 67 67 66 66 66 64 65 64 65 65 64 63 64 64 64 64 63 64 66 68 68 68 68 68 67 67 66 66 65 64 63 62 61 61 60 59 59 59
59 60 66 67 67 68 67 67 66 65 64 64 64 64 64 64 63 63 64 64 64 64 63 64 66 67 68 68 68 67 67 66 66 65 64 63 62 62 61 60 59 59 58
58 59 64 65 65 66 67 67 66 65 64 64 64 63 64 64 63 63 63 63 63 64 64 63 64 64 66 67 68 67 66 66 66 65 65 64 63 62 61 60 60 59 59
55 58 60 60 62 62 65 66 66 66 65 64 63 63 63 63 63 63 63 63 63 63 64 64 64 64 63 66 67 68 66 67 66 65 65 64 63 62 61 60 59 59 59
52 54 57 57 56 62 62 64 65 65 64 64 61 61 61 61 62 63 63 63 63 63 63 64 64 65 64 64 66 68 67 66 66 66 65 64 63 62 61 60 59 59 59
47 46 49 52 55 59 62 62 64 63 64 65 61 61 59 61 62 62 63 62 63 63 62 63 63 63 64 65 64 65 67 66 66 66 65 64 64 62 62 61 60 59 59
41 46 47 49 53 57 61 60 61 63 61 63 63 59 57 57 59 61 62 62 62 62 62 62 62 62 63 63 63 63 61 62 64 65 65 64 63 64 62 61 61 60 59
39 42 44 45 49 53 56 60 61 60 61 61 62 63 61 59 57 56 60 62 62 62 62 62 62 62 62 62 62 61 58 58 60 64 64 64 63 64 62 61 61 60 60
36 39 42 45 47 50 54 58 60 59 60 61 61 61 61 60 59 56 56 60 62 62 62 62 62 62 61 61 62 60 56 56 57 61 63 63 63 63 63 62 61 60 60
35 37 39 41 46 50 53 57 59 61 61 61 61 61 59 58 57 57 55 56 59 60 62 62 61 61 61 61 60 57 55 54 55 57 60 61 62 63 63 63 62 61 60
36 37 38 41 42 44 47 48 50 56 61 62 61 61 61 60 60 59 58 56 56 58 59 61 61 61 61 61 60 56 55 53 53 55 57 58 60 61 62 62 62 61 60
37 38 39 39 40 42 44 46 48 50 55 61 61 62 61 62 61 61 59 57 55 55 56 57 61 61 61 61 60 55 59 52 51 52 53 55 57 58 59 60 61 60 60
40 41 41 42 41 42 44 46 47 49 54 58 60 61 60 61 61 59 57 57 57 52 54 56 57 61 61 61 60 60 60 54 52 51 51 52 54 55 56 57 58 59 59
38 39 42 42 44 44 45 46 46 48 51 55 59 59 58 60 58 58 59 58 58 58 55 56 57 58 61 61 59 60 60 55 50 49 49 49 51 53 53 54 55 56 57
35 36 38 40 44 46 47 48 48 48 50 55 58 59 57 57 57 57 56 57 58 59 57 57 57 58 59 60 61 60 60 60 59 48 48 48 48 49 50 51 52 53 54
35 35 35 36 37 39 42 46 50 51 53 55 58 57 56 57 55 55 56 57 56 58 58 57 58 56 57 60 60 59 60 61 60 52 48 48 48 47 47 48 49 49 50
32 32 33 33 33 35 37 40 43 46 43 43 44 45 45 52 56 56 57 57 57 57 57 57 57 57 57 57 59 59 59 59 59 55 49 49 48 47 46 46 47 48 48
29 30 31 31 32 32 34 35 36 38 38 38 39 39 38 38 42 43 50 58 56 56 56 57 57 56 56 56 57 57 56 57 57 58 54 51 48 47 46 46 45 46 47
27 28 30 30 31 32 32 32 33 34 34 34 35 36 38 37 37 37 39 38 40 54 57 58 57 56 55 55 56 55 55 55 55 56 56 55 53 51 50 46 47 46 45
24 25 27 29 30 31 33 32 31 30 30 31 31 32 34 35 35 34 35 34 33 37 35 40 56 55 49 45 43 46 48 51 51 45 49 53 53 53 53 48 40 41 42
22 23 25 27 28 30 32 32 31 29 28 28 28 29 30 32 34 34 32 32 32 33 32 32 30 30 32 31 35 40 41 42 44 40 41 42 44 44 40 38 38 38 39
20 21 23 24 26 27 29 30 30 28 27 27 28 28 28 29 31 31 30 29 28 30 31 31 30 30 30 31 32 32 33 34 35 35 36 35 35 35 35 35 36 36 37
19 20 21 22 22 23 27 26 26 25 25 25 26 28 27 28 30 31 28 27 27 27 30 31 31 31 31 32 30 31 30 32 33 33 29 31 33 33 32 32 32 34 34
18 19 19 22 22 21 23 23 24 23 22 22 23 24 27 26 27 27 25 25 24 26 27 27 27 27 28 28 29 28 27 26 28 31 27 27 32 32 33 31 31 31 32